[[{"header":{"parameterUnit":"m.s-1","parameterCategory":1,"la1":30.6,"la2":28.766,"lo1":-90.7593,"lo2":-88.6598,"dy":0.0162,"dx":0.0183,"nx":116,"ny":114,"refTime":"2023-07-14T00:00:00:Z","depth":0,"parameterNumber":2,"parameterNumberName":"U-component_of_WINDS"},"data":[0.0,0.0,0.0,0.0,0.0,0.0,0.0,0.0,0.0,0.0,0.0,0.0,0.0,0.0,0.0,0.0,0.0,0.0,0.0,0.0,0.0,0.0,0.0,0.0,0.0,0.0,0.0,0.0,0.0,0.0,0.0,0.0,0.0,0.0,0.0,0.0,0.0,0.0,0.0,0.0,0.0,0.0,0.0,0.0,0.0,0.0,0.0,0.0,0.0,0.0,0.0,0.0,0.0,0.0,0.0,0.0,0.0,0.0,0.0,0.0,0.0,0.0,0.0,0.0,0.0,0.0,0.0,0.0,0.0,0.0,0.0,0.0,0.0,0.0,0.0,0.0,0.0,0.0,0.0,0.0,0.0,0.0,0.0,0.0,0.0,0.0,0.0,0.0,0.0,0.0,0.0,0.0,0.0,0.0,0.0,0.0,0.0,0.0,0.0,0.0,0.0,0.0,0.0,0.0,0.0,0.0,0.0,0.0,0.0,0.0,0.0,0.0,0.0,0.0,0.0,0.0,0.0,0.0,0.0,0.0,0.0,0.0,0.0,0.0,0.0,0.0,0.0,0.0,0.0,0.0,0.0,0.0,0.0,0.0,0.0,0.0,0.0,0.0,0.0,0.0,0.0,0.0,0.0,0.0,0.0,0.0,0.0,0.0,0.0,0.0,0.0,0.0,0.0,0.0,0.0,0.0,0.0,0.0,0.0,0.0,0.0,0.0,0.0,0.0,0.0,0.0,0.0,0.0,0.0,0.0,0.0,0.0,0.0,0.0,0.0,0.0,0.0,0.0,0.0,0.0,0.0,0.0,0.0,0.0,0.0,0.0,0.0,0.0,0.0,0.0,0.0,0.0,0.0,0.0,0.0,0.0,0.0,0.0,0.0,0.0,0.0,0.0,0.0,0.0,0.0,0.0,0.0,0.0,0.0,0.0,0.0,0.0,0.0,0.0,0.0,0.0,0.0,0.0,0.0,0.0,0.0,0.0,0.0,0.0,0.0,0.0,0.0,0.0,0.0,0.0,0.0,0.0,0.0,0.0,0.0,0.0,0.0,0.0,0.0,0.0,0.0,0.0,0.0,0.0,0.0,0.0,0.0,0.0,0.0,0.0,0.0,0.0,0.0,0.0,0.0,0.0,0.0,0.0,0.0,0.0,0.0,0.0,0.0,0.0,0.0,0.0,0.0,0.0,0.0,0.0,0.0,0.0,0.0,0.0,0.0,0.0,0.0,0.0,0.0,0.0,0.0,0.0,0.0,0.0,0.0,0.0,0.0,0.0,0.0,0.0,0.0,0.0,0.0,0.0,0.0,0.0,0.0,0.0,0.0,0.0,0.0,0.0,0.0,0.0,0.0,0.0,0.0,0.0,0.0,0.0,0.0,0.0,0.0,0.0,0.0,0.0,0.0,0.0,0.0,0.0,0.0,0.0,0.0,0.0,0.0,0.0,0.0,0.0,0.0,0.0,0.0,0.0,0.0,0.0,0.0,0.0,0.0,0.0,0.0,0.0,0.0,0.0,0.0,0.0,0.0,0.0,0.0,0.0,0.0,0.0,0.0,0.0,0.0,0.0,0.0,0.0,0.0,0.0,0.0,0.0,0.0,0.0,0.0,0.0,0.0,0.0,0.0,0.0,0.0,0.0,0.0,0.0,0.0,0.0,0.0,0.0,0.0,0.0,0.0,0.0,0.0,0.0,0.0,0.0,0.0,0.0,0.0,0.0,0.0,0.0,0.0,0.0,0.0,0.0,0.0,0.0,0.0,0.0,0.0,0.0,0.0,0.0,0.0,0.0,0.0,0.0,0.0,0.0,0.0,0.0,0.0,0.0,0.0,0.0,0.0,0.0,0.0,0.0,0.0,0.0,0.0,0.0,0.0,0.0,0.0,0.0,0.0,0.0,0.0,0.0,0.0,0.0,0.0,0.0,0.0,0.0,0.0,0.0,0.0,0.0,0.0,0.0,0.0,0.0,0.0,0.0,0.0,0.0,0.0,0.0,0.0,0.0,0.0,0.0,0.0,0.0,0.0,0.0,0.0,0.0,0.0,0.0,0.0,0.0,0.0,0.0,0.0,0.0,0.0,0.0,0.0,0.0,0.0,0.0,0.0,0.0,0.0,0.0,0.0,0.0,0.0,0.0,0.0,0.0,0.0,0.0,0.0,0.0,0.0,0.0,0.0,0.0,0.0,0.0,0.0,0.0,0.0,0.0,0.0,0.0,0.0,0.0,0.0,0.0,0.0,0.0,0.0,0.0,0.0,0.0,0.0,0.0,0.0,0.0,0.0,0.0,0.0,0.0,0.0,0.0,0.0,0.0,0.0,0.0,0.0,0.0,0.0,0.0,0.0,0.0,0.0,0.0,0.0,0.0,0.0,0.0,0.0,0.0,0.0,0.0,0.0,0.0,0.0,0.0,0.0,0.0,0.0,0.0,0.0,0.0,0.0,0.0,0.0,0.0,0.0,0.0,0.0,0.0,0.0,0.0,0.0,0.0,0.0,0.0,0.0,0.0,0.0,0.0,0.0,0.0,0.0,0.0,0.0,0.0,0.0,0.0,0.0,0.0,0.0,0.0,0.0,0.0,0.0,0.0,0.0,0.0,0.0,0.0,0.0,0.0,0.0,0.0,0.0,0.0,0.0,0.0,0.0,0.0,0.0,0.0,0.0,0.0,0.0,0.0,0.0,0.0,0.0,0.0,0.0,0.0,0.0,0.0,0.0,0.0,0.0,0.0,0.0,0.0,0.0,0.0,0.0,0.0,0.0,0.0,0.0,0.0,0.0,0.0,0.0,0.0,0.0,0.0,0.0,0.0,0.0,0.0,0.0,0.0,0.0,0.0,0.0,0.0,0.0,0.0,0.0,0.0,0.0,0.0,0.0,0.0,0.0,0.0,0.0,0.0,0.0,0.0,0.0,0.0,0.0,0.0,0.0,0.0,0.0,0.0,0.0,0.0,0.0,0.0,0.0,0.0,0.0,0.0,0.0,0.0,0.0,0.0,0.0,0.0,0.0,0.0,0.0,0.0,0.0,0.0,0.0,0.0,0.0,0.0,0.0,0.0,0.0,0.0,0.0,0.0,0.0,0.0,0.0,0.0,0.0,0.0,0.0,0.0,0.0,0.0,0.0,0.0,0.0,0.0,0.0,0.0,0.0,0.0,0.0,0.0,0.0,0.0,0.0,0.0,0.0,0.0,0.0,0.0,0.0,0.0,0.0,0.0,0.0,0.0,0.0,0.0,0.0,0.0,0.0,0.0,0.0,0.0,0.0,0.0,0.0,0.0,0.0,0.0,0.0,0.0,0.0,0.0,0.0,0.0,0.0,0.0,0.0,0.0,0.0,0.0,0.0,0.0,0.0,0.0,0.0,0.0,0.0,0.0,0.0,0.0,0.0,0.0,0.0,0.0,0.0,0.0,0.0,0.0,0.0,0.0,0.0,0.0,0.0,0.0,0.0,0.0,0.0,0.0,0.0,0.0,0.0,0.0,0.0,0.0,0.0,0.0,0.0,0.0,0.0,0.0,0.0,0.0,0.0,0.0,0.0,0.0,0.0,0.0,0.0,0.0,0.0,0.0,0.0,0.0,0.0,0.0,0.0,0.0,0.0,0.0,0.0,0.0,0.0,0.0,0.0,0.0,0.0,0.0,0.0,0.0,0.0,0.0,0.0,0.0,0.0,0.0,0.0,0.0,0.0,0.0,0.0,0.0,0.0,0.0,0.0,0.0,0.0,0.0,0.0,0.0,0.0,0.0,0.0,0.0,0.0,0.0,0.0,0.0,0.0,0.0,0.0,0.0,0.0,0.0,0.0,0.0,0.0,0.0,0.0,0.0,0.0,0.0,0.0,0.0,0.0,0.0,0.0,0.0,0.0,0.0,0.0,0.0,0.0,0.0,0.0,0.0,0.0,0.0,0.0,0.0,0.0,0.0,0.0,0.0,0.0,0.0,0.0,0.0,0.0,0.0,0.0,0.0,0.0,0.0,0.0,0.0,0.0,0.0,0.0,0.0,0.0,0.0,0.0,0.0,0.0,0.0,0.0,0.0,0.0,0.0,0.0,0.0,0.0,0.0,0.0,0.0,0.0,0.0,0.0,0.0,0.0,0.0,0.0,0.0,0.0,0.0,0.0,0.0,0.0,0.0,0.0,0.0,0.0,0.0,0.0,0.0,0.0,0.0,0.0,0.0,0.0,0.0,0.0,0.0,0.0,0.0,0.0,0.0,0.0,0.0,0.0,0.0,0.0,0.0,0.0,0.0,0.0,0.0,0.0,0.0,0.0,0.0,0.0,0.0,0.0,0.0,0.0,0.0,0.0,0.0,0.0,0.0,0.0,0.0,0.0,0.0,0.0,0.0,0.0,0.0,0.0,0.0,0.0,0.0,0.0,0.0,0.0,0.0,0.0,0.0,0.0,0.0,0.0,0.0,0.0,0.0,0.0,0.0,0.0,0.0,0.0,0.0,0.0,0.0,0.0,0.0,0.0,0.0,0.0,0.0,0.0,0.0,0.0,0.0,0.0,0.0,0.0,0.0,0.0,0.0,0.0,0.0,0.0,0.0,0.0,0.0,0.0,0.0,0.0,0.0,0.0,0.0,0.0,0.0,0.0,0.0,0.0,0.0,0.0,0.0,0.0,0.0,0.0,0.0,0.0,0.0,0.0,0.0,0.0,0.0,0.0,0.0,0.0,0.0,0.0,0.0,0.0,0.0,0.0,0.0,0.0,0.0,0.0,0.0,0.0,0.0,0.0,0.0,0.0,0.0,0.0,0.0,0.0,0.0,0.0,0.0,0.0,0.0,0.0,0.0,0.0,0.0,0.0,0.0,0.0,0.0,0.0,0.0,0.0,0.0,0.0,0.0,0.0,0.0,0.0,0.0,0.0,0.0,0.0,0.0,0.0,0.0,0.0,0.0,0.0,0.0,0.0,0.0,0.0,0.0,0.0,0.0,0.0,0.0,0.0,0.0,0.0,0.0,0.0,0.0,0.0,0.0,0.0,0.0,0.0,0.0,0.0,0.0,0.0,0.0,0.0,0.0,0.0,0.0,0.0,0.0,0.0,0.0,0.0,0.0,0.0,0.0,0.0,0.0,0.0,0.0,0.0,0.0,0.0,0.0,0.0,0.0,0.0,0.0,0.0,0.0,0.0,0.0,0.0,0.0,0.0,0.0,0.0,0.0,0.0,0.0,0.0,0.0,0.0,0.0,0.0,0.0,0.0,0.0,0.0,0.0,0.0,0.0,0.0,0.0,0.0,0.0,0.0,0.0,0.0,0.0,0.0,0.0,0.0,0.0,0.0,0.0,0.0,0.0,0.0,0.0,0.0,0.0,0.0,0.0,0.0,0.0,0.0,0.0,0.0,0.0,0.0,0.0,0.0,0.0,0.0,0.0,0.0,0.0,0.0,0.0,0.0,0.0,0.0,0.0,0.0,0.0,0.0,0.0,0.0,0.0,0.0,0.0,0.0,0.0,0.0,0.0,0.0,0.0,0.0,0.0,0.0,0.0,0.0,0.0,0.0,0.0,0.0,0.0,0.0,0.0,0.0,0.0,0.0,0.0,0.0,0.0,0.0,0.0,0.0,0.0,0.0,0.0,0.0,0.0,0.0,0.0,0.0,0.0,0.0,0.0,0.0,0.0,0.0,0.0,0.0,0.0,0.0,0.0,0.0,0.0,0.0,0.0,0.0,0.0,0.0,0.0,0.0,0.0,0.0,0.0,0.0,0.0,0.0,0.0,0.0,0.0,0.0,0.0,0.0,0.0,0.0,0.0,0.0,0.0,0.0,0.0,0.0,0.0,0.0,0.0,0.0,0.0,0.0,0.0,0.0,0.0,0.0,0.0,0.0,0.0,0.0,0.0,0.0,0.0,0.0,0.0,0.0,0.0,0.0,0.0,0.0,0.0,0.0,0.0,0.0,0.0,0.0,0.0,0.0,0.0,0.0,0.0,0.0,0.0,0.0,0.0,0.0,0.0,0.0,0.0,0.0,0.0,0.0,0.0,0.0,0.0,0.0,0.0,0.0,0.0,0.0,0.0,0.0,0.0,0.0,0.0,0.0,0.0,0.0,0.0,0.0,0.0,0.0,0.0,0.0,0.0,0.0,0.0,0.0,0.0,-3.4824,0.0,0.0,0.0,0.0,0.0,0.0,0.0,0.0,0.0,0.0,0.0,0.0,0.0,0.0,0.0,0.0,0.0,0.0,0.0,0.0,0.0,0.0,0.0,0.0,0.0,0.0,0.0,0.0,0.0,0.0,0.0,0.0,0.0,0.0,0.0,0.0,0.0,0.0,0.0,0.0,0.0,0.0,-4.3773,-4.2157,-3.9357,0.0,0.0,0.0,0.0,0.0,0.0,0.0,0.0,0.0,0.0,0.0,0.0,0.0,0.0,0.0,0.0,0.0,0.0,0.0,0.0,0.0,0.0,0.0,0.0,0.0,0.0,0.0,0.0,0.0,0.0,0.0,0.0,0.0,0.0,0.0,0.0,0.0,0.0,0.0,0.0,0.0,0.0,0.0,0.0,0.0,0.0,0.0,0.0,0.0,0.0,0.0,0.0,0.0,0.0,0.0,0.0,0.0,0.0,0.0,0.0,0.0,0.0,0.0,0.0,0.0,0.0,0.0,0.0,0.0,0.0,0.0,-4.0035,0.0,0.0,0.0,0.0,0.0,0.0,0.0,0.0,0.0,0.0,0.0,0.0,0.0,0.0,0.0,0.0,0.0,0.0,0.0,0.0,0.0,0.0,0.0,0.0,0.0,0.0,0.0,0.0,0.0,0.0,0.0,0.0,0.0,0.0,0.0,0.0,0.0,0.0,0.0,0.0,0.0,-5.1589,-4.9991,-4.5884,0.0,0.0,0.0,0.0,0.0,0.0,0.0,0.0,0.0,0.0,0.0,0.0,0.0,0.0,0.0,0.0,0.0,0.0,0.0,0.0,0.0,0.0,0.0,0.0,0.0,0.0,0.0,0.0,0.0,0.0,0.0,0.0,0.0,0.0,0.0,0.0,0.0,0.0,0.0,0.0,0.0,0.0,0.0,0.0,0.0,0.0,0.0,0.0,0.0,0.0,0.0,0.0,0.0,0.0,0.0,0.0,0.0,0.0,0.0,0.0,0.0,0.0,0.0,0.0,0.0,-4.8242,-5.0134,-5.0011,-4.9429,-4.8341,-4.475,-4.2949,-4.2423,0.0,0.0,0.0,0.0,0.0,0.0,0.0,0.0,0.0,0.0,0.0,0.0,0.0,0.0,0.0,0.0,0.0,0.0,0.0,0.0,0.0,0.0,0.0,0.0,0.0,0.0,0.0,0.0,0.0,0.0,0.0,0.0,0.0,0.0,0.0,0.0,0.0,0.0,-5.2561,-5.4555,-5.5396,-5.6135,-5.6505,-5.0927,0.0,0.0,0.0,0.0,0.0,0.0,0.0,0.0,0.0,0.0,0.0,0.0,0.0,0.0,0.0,0.0,0.0,0.0,0.0,0.0,0.0,0.0,0.0,0.0,0.0,0.0,0.0,0.0,0.0,0.0,0.0,0.0,0.0,0.0,0.0,0.0,0.0,0.0,0.0,0.0,0.0,0.0,0.0,-3.6247,-3.8197,0.0,0.0,0.0,0.0,0.0,0.0,0.0,0.0,0.0,0.0,0.0,0.0,0.0,0.0,-4.3721,-4.4013,-4.4343,-4.4762,-4.8973,-5.2264,-5.464,-5.4033,-5.2581,-5.0474,-4.9888,0.0,-4.6274,-4.6446,0.0,0.0,0.0,0.0,0.0,0.0,0.0,0.0,0.0,0.0,0.0,0.0,0.0,0.0,0.0,0.0,0.0,0.0,0.0,0.0,0.0,0.0,0.0,0.0,0.0,0.0,0.0,0.0,0.0,0.0,0.0,0.0,0.0,0.0,0.0,0.0,-5.4606,-5.6745,-5.6938,-5.8011,-5.9321,-6.0593,-5.8369,-5.6091,-5.3665,-4.7677,0.0,0.0,0.0,0.0,0.0,0.0,0.0,0.0,0.0,0.0,0.0,0.0,0.0,0.0,0.0,0.0,0.0,0.0,0.0,0.0,0.0,0.0,0.0,0.0,0.0,0.0,0.0,0.0,0.0,0.0,0.0,0.0,0.0,0.0,0.0,0.0,0.0,0.0,0.0,-3.5499,-3.8987,-4.0325,-4.175,-4.1894,0.0,0.0,0.0,0.0,0.0,0.0,0.0,0.0,0.0,-4.5321,-4.6138,-4.7388,-4.9248,-4.9658,-4.988,-4.9884,-5.1994,-5.3476,-5.4437,-5.485,-5.4475,-5.3401,-5.1645,-5.0622,-4.9964,-4.8374,-4.6613,-4.466,0.0,0.0,0.0,0.0,0.0,-3.6609,0.0,0.0,0.0,0.0,0.0,0.0,0.0,0.0,0.0,0.0,0.0,0.0,0.0,0.0,0.0,-3.8549,0.0,0.0,0.0,0.0,0.0,0.0,0.0,0.0,0.0,0.0,0.0,-5.6124,-5.8765,-5.9597,-5.8893,-6.0109,-6.1409,-6.291,-6.378,-6.1877,-5.7706,-5.3818,-4.9135,0.0,0.0,0.0,0.0,0.0,0.0,0.0,0.0,0.0,0.0,0.0,0.0,0.0,0.0,0.0,0.0,0.0,0.0,0.0,0.0,0.0,0.0,0.0,0.0,0.0,0.0,0.0,0.0,0.0,0.0,0.0,0.0,0.0,0.0,0.0,0.0,0.0,0.0,-3.7874,-4.1446,-4.2897,-4.5444,-4.6067,0.0,0.0,0.0,0.0,0.0,0.0,-4.5077,-4.6535,-4.8279,-5.0373,-5.1244,-5.2178,-5.3208,-5.378,-5.4085,-5.4134,-5.4273,-5.4311,-5.4347,-5.5155,-5.5507,-5.5367,-5.3512,-5.2723,-5.2481,-4.9952,-4.8931,-4.8641,-4.5775,-4.2951,-4.0491,-4.0587,-4.3305,-4.6934,0.0,0.0,0.0,0.0,0.0,0.0,0.0,0.0,0.0,0.0,0.0,0.0,0.0,0.0,-3.5789,-3.899,-3.9103,-3.926,0.0,0.0,0.0,0.0,0.0,0.0,0.0,0.0,0.0,-5.9218,-6.0509,-6.1046,-6.0861,-6.1684,-6.3,-6.4801,-6.5778,-6.5914,-6.5051,-5.9151,-5.5827,-5.402,0.0,0.0,0.0,0.0,0.0,0.0,0.0,0.0,0.0,0.0,0.0,0.0,0.0,0.0,0.0,0.0,0.0,0.0,0.0,0.0,0.0,0.0,0.0,0.0,0.0,0.0,0.0,0.0,0.0,0.0,0.0,0.0,0.0,0.0,0.0,0.0,0.0,0.0,0.0,-4.6972,-4.9972,0.0,0.0,0.0,0.0,-4.5259,-4.6564,-4.8037,-4.9495,-5.0937,-5.215,-5.3159,-5.4098,-5.4665,-5.488,-5.5047,-5.5348,-5.5752,-5.5338,-5.5496,-5.6221,-5.5764,-5.5507,-5.5625,-5.7007,-5.5925,-5.3103,-5.2518,-5.2263,-5.2082,-5.0379,-4.8415,-4.6585,-4.7004,-4.7843,-4.8904,0.0,0.0,0.0,0.0,0.0,0.0,0.0,0.0,0.0,0.0,0.0,0.0,0.0,-3.4235,-3.6403,-3.8246,-3.8957,-3.9026,-3.8379,0.0,0.0,0.0,0.0,0.0,0.0,0.0,-5.8187,-6.1659,-6.2071,-6.1972,-6.1535,-6.2935,-6.4256,-6.5368,-6.695,-6.7107,-6.596,-6.1555,-5.8519,-5.6325,-5.2135,-4.8254,0.0,0.0,0.0,0.0,0.0,0.0,0.0,0.0,0.0,0.0,0.0,0.0,0.0,0.0,0.0,0.0,0.0,0.0,0.0,0.0,0.0,0.0,0.0,0.0,0.0,0.0,0.0,0.0,0.0,0.0,0.0,0.0,0.0,0.0,0.0,0.0,0.0,-4.9676,-5.2305,0.0,0.0,-5.0692,-5.067,-5.0053,-5.1321,-5.264,-5.3772,-5.4711,-5.5382,-5.5721,-5.6161,-5.6355,-5.6305,-5.6405,-5.6563,-5.6744,-5.6563,-5.6545,-5.6653,-5.6273,-5.6273,-5.6617,-5.7239,-5.6343,-5.4391,-5.3198,-5.2798,-5.285,-5.1597,-5.0689,-4.9919,-4.9388,-4.8848,-4.8453,0.0,0.0,0.0,0.0,0.0,0.0,0.0,0.0,0.0,0.0,0.0,-3.1278,-3.196,-3.4214,-3.6271,-3.7592,-3.8355,-3.8429,-3.7641,0.0,0.0,0.0,0.0,0.0,0.0,-5.7675,-6.0272,-6.349,-6.3178,-6.2929,-6.2821,-6.4023,-6.5103,-6.6014,-6.7087,-6.6923,-6.5722,-6.2638,-6.0359,-5.8519,-5.5754,-5.2753,-4.9591,0.0,0.0,0.0,0.0,0.0,0.0,0.0,0.0,0.0,0.0,0.0,0.0,0.0,0.0,0.0,0.0,0.0,0.0,0.0,0.0,0.0,0.0,0.0,0.0,0.0,0.0,0.0,0.0,0.0,0.0,0.0,0.0,0.0,0.0,0.0,-5.0231,-5.1862,-5.4454,-5.518,-5.2936,-5.3741,-5.4163,-5.3544,-5.4575,-5.5548,-5.6191,-5.6541,-5.6812,-5.6829,-5.6933,-5.6984,-5.6933,-5.7036,-5.7138,-5.7188,-5.7188,-5.7087,-5.6933,-5.6546,-5.66,-5.6933,-5.6545,-5.5801,-5.4709,-5.3927,-5.3405,-5.2974,-5.2293,-5.1858,-5.1571,-5.0432,-4.9324,-4.8356,0.0,0.0,0.0,0.0,0.0,0.0,0.0,0.0,0.0,0.0,-3.0794,-3.1098,-3.2783,-3.3871,-3.5212,-3.7099,-3.7244,-3.7432,-3.789,-3.607,0.0,0.0,0.0,0.0,-5.6209,-5.9169,-6.1998,-6.4694,-6.3824,-6.3882,-6.4741,-6.5015,-6.5676,-6.6735,-6.6268,-6.5583,-6.4733,-6.2642,-6.1603,-6.1086,-5.8533,-5.597,-5.3267,0.0,0.0,0.0,0.0,0.0,0.0,0.0,0.0,0.0,0.0,0.0,0.0,0.0,0.0,0.0,0.0,0.0,0.0,0.0,0.0,0.0,0.0,0.0,0.0,0.0,0.0,0.0,0.0,0.0,0.0,0.0,0.0,0.0,-4.6104,-4.9232,-5.2122,-5.372,-5.6524,-5.7228,-5.4481,-5.6018,-5.6675,-5.5542,-5.6134,-5.6564,-5.66,-5.6492,-5.6437,-5.66,-5.66,-5.6653,-5.6812,-5.6933,-5.7036,-5.7188,-5.7188,-5.7188,-5.7188,-5.6653,-5.6383,-5.6366,-5.5382,-5.4617,-5.411,-5.4854,-5.4264,-5.2761,-5.2572,-5.2078,-5.1414,-5.0341,-4.9564,-4.8883,0.0,0.0,0.0,0.0,0.0,0.0,0.0,0.0,0.0,0.0,-2.9678,-3.0661,-3.228,-3.4185,-3.5682,-3.6733,-3.6505,-3.6288,-3.6028,0.0,0.0,0.0,0.0,0.0,-5.9827,-6.1267,-6.2993,-6.505,-6.423,-6.451,-6.5893,-6.6523,-6.7149,-6.7729,-6.7168,-6.6011,-6.4572,-6.2761,-6.2021,-6.187,-5.9727,-5.828,-5.6843,0.0,0.0,0.0,0.0,0.0,0.0,0.0,0.0,0.0,0.0,0.0,0.0,0.0,0.0,0.0,0.0,0.0,0.0,0.0,0.0,0.0,0.0,0.0,0.0,0.0,0.0,0.0,0.0,0.0,0.0,0.0,0.0,-4.7829,-4.9105,-5.2599,-5.5356,-5.6357,-5.7645,-5.8017,-5.6905,-5.6671,-5.6563,-5.6453,-5.6181,-5.6217,-5.6724,-5.6546,-5.6383,-5.6437,-5.6437,-5.6492,-5.6492,-5.6848,-5.7005,-5.7057,-5.7174,-5.7188,-5.7188,-5.6653,-5.6492,-5.6671,-5.6485,-5.5902,-5.5036,-5.5341,-5.435,-5.2526,-5.2102,-4.9983,-4.7335,-4.9034,-4.9385,-4.8754,0.0,0.0,0.0,0.0,0.0,0.0,0.0,0.0,0.0,0.0,-2.955,-3.0499,-3.2233,-3.3513,-3.4387,-3.486,-3.4889,-3.4329,-3.3149,0.0,0.0,0.0,0.0,-5.7617,-6.0808,-6.2002,-6.3297,-6.4793,-6.4021,-6.4483,-6.6053,-6.6038,-6.6636,-6.7566,-6.6153,-6.4918,-6.389,-6.2438,-6.1776,-6.1541,-6.069,-6.0079,-5.9218,-5.5546,-5.2228,-4.9086,-4.5433,-4.2356,-3.9959,-3.9329,0.0,0.0,0.0,0.0,0.0,0.0,0.0,0.0,0.0,0.0,0.0,0.0,0.0,0.0,0.0,0.0,0.0,0.0,0.0,0.0,0.0,0.0,0.0,0.0,-4.8048,-5.0737,-5.2443,-5.4781,-5.6692,-5.7881,-5.8233,-5.8083,-5.7381,-5.6915,-5.6586,-5.6377,-5.579,-5.5702,-5.6221,-5.5562,-5.5221,-5.5275,-5.565,-5.5829,-5.5883,-5.6563,-5.6901,-5.6953,-5.7123,-5.7087,-5.6829,-5.6546,-5.6492,0.0,-5.5826,-5.5266,-5.4871,-5.4855,-5.3773,0.0,0.0,0.0,0.0,0.0,-4.9046,-4.8821,0.0,0.0,0.0,0.0,0.0,0.0,0.0,0.0,0.0,0.0,0.0,-3.034,-3.2016,-3.2174,-3.2174,-3.2348,-3.2786,-3.2356,0.0,0.0,0.0,-4.6458,-5.1857,-5.6492,-6.0257,-6.1902,-6.3214,-6.4192,-6.3576,-6.4022,-6.5561,-6.4567,-6.504,-6.6523,-6.4279,-6.329,-6.329,-6.2225,-6.1496,-6.1064,-6.1402,-6.1272,-6.0448,-5.6734,-5.3304,-4.9857,-4.5786,-4.2391,-3.9884,-4.0442,0.0,0.0,0.0,0.0,0.0,0.0,0.0,0.0,0.0,0.0,0.0,0.0,0.0,0.0,0.0,0.0,0.0,0.0,0.0,0.0,0.0,0.0,0.0,0.0,-5.1178,-5.3836,-5.539,-5.596,-5.6837,-5.8512,-5.8375,-5.7744,-5.6685,-5.6648,-5.6335,-5.5721,-5.5222,-5.5044,-5.5329,0.0,0.0,0.0,0.0,-5.4901,-5.4973,-5.617,-5.6707,-5.676,-5.6984,-5.6829,-5.6383,-5.6328,-5.6328,-5.6276,-5.4577,-5.3913,-5.4092,-5.3828,-5.2888,-5.1571,-5.1393,-5.0751,-4.986,-4.8809,-4.863,0.0,0.0,0.0,0.0,0.0,0.0,0.0,0.0,0.0,0.0,-2.8826,-2.8806,-2.899,-2.9898,-3.077,-3.1216,-3.0974,-3.1501,-3.2313,0.0,0.0,-4.3099,-4.7642,-5.3566,-5.7925,-6.049,-6.2024,-6.3046,-6.3613,-6.3511,-6.3848,-6.4706,-6.4594,-6.4702,-6.4813,-6.4074,-6.3882,-6.4208,-6.265,-6.2366,-6.2908,-6.2302,-6.1353,-5.9963,-5.6762,-5.3151,-4.922,-4.492,-4.1498,-3.9036,-3.8926,-4.1629,-4.5627,-4.8362,0.0,0.0,0.0,0.0,0.0,0.0,0.0,0.0,0.0,0.0,0.0,0.0,0.0,0.0,0.0,0.0,0.0,0.0,0.0,0.0,-4.831,-5.0138,-5.2417,-5.5294,-5.5834,-5.6589,-5.8471,-5.7771,-5.703,-5.6649,-5.5254,-5.4448,-5.4633,-5.4466,-5.458,-5.5062,-5.4662,0.0,-5.4444,-5.4095,-5.3812,-5.3757,-5.5741,-5.6707,-5.6492,0.0,0.0,-5.6383,-5.6106,-5.6049,-5.6162,-5.5826,-5.4831,-5.3473,-5.3417,-5.2481,-5.0893,-4.9416,-4.9229,-4.9746,-4.8104,-4.7936,-4.8547,0.0,0.0,0.0,0.0,0.0,0.0,0.0,0.0,0.0,0.0,-2.9251,-2.8926,-2.9524,-2.9492,-2.9058,-2.8116,-2.8336,0.0,0.0,-3.8605,-4.3488,-4.8335,-5.3916,-5.7864,-5.9928,-6.113,-6.1865,-6.2122,-6.2278,-6.2512,-6.2745,-6.315,-6.3588,-6.4077,-6.3845,-6.4109,-6.472,-6.3734,-6.33,-6.303,-6.2669,-6.1402,-5.9403,-5.6612,-5.2943,-4.8635,-4.3484,-3.9759,-3.7278,-3.759,-4.0763,-4.5255,-4.8898,-5.2373,-5.4783,0.0,0.0,0.0,0.0,0.0,0.0,0.0,0.0,0.0,0.0,0.0,0.0,0.0,0.0,-5.1106,0.0,0.0,-5.0223,-5.0224,-5.1329,-5.309,-5.5367,-5.6123,-5.6842,-5.7788,-5.7192,-5.6328,-5.5368,-5.452,-5.3976,-5.3828,-5.3611,-5.353,-5.3708,-5.3172,-5.285,-5.274,-5.287,-5.3101,-5.3379,-5.4792,-5.515,-5.4543,-5.3937,-5.4134,-5.4989,-5.4485,-5.4323,-5.4378,-5.4237,-5.3708,-5.2856,-5.2429,-5.1723,-5.0875,-4.9888,-4.9791,-5.0011,-4.8999,-4.8523,-4.842,0.0,0.0,0.0,0.0,0.0,0.0,0.0,0.0,0.0,0.0,0.0,-2.8887,-2.9273,-2.8195,-2.6903,0.0,0.0,0.0,0.0,-3.8322,-4.3507,-4.9062,-5.3683,-5.7078,-5.9173,-5.9964,-6.0409,-6.0461,-6.0799,-6.0774,-6.0511,-6.129,-6.2264,-6.3234,-6.3638,-6.4366,-6.5152,-6.4938,-6.4097,-6.2996,-6.3049,-6.1552,-5.9065,-5.6745,-5.2901,-4.8045,-4.2043,-3.8019,-3.5645,-3.631,-3.9539,-4.4236,-4.9271,-5.3274,-5.5744,-5.3517,-5.2731,0.0,0.0,0.0,0.0,0.0,0.0,0.0,0.0,0.0,-5.4134,-5.4338,-5.5122,-5.5167,-5.3232,-5.2757,-5.2462,-5.1896,-5.2659,-5.3908,-5.5478,-5.6197,-5.6571,-5.6491,-5.6373,-5.566,-5.4054,-5.3929,-5.372,-5.3109,-5.283,-5.2626,-5.2467,-5.1705,-5.1227,-5.1064,-5.1649,-5.2232,-5.2921,-5.3556,-5.3415,-5.2658,-5.1473,-5.1915,-5.3686,-5.3152,-5.2976,-5.3011,-5.2427,-5.227,-5.2289,-5.1476,-5.1158,-5.1105,-5.0981,-5.0655,-5.032,-5.0068,-4.9324,-4.8356,0.0,0.0,0.0,0.0,0.0,0.0,0.0,0.0,0.0,0.0,0.0,0.0,0.0,0.0,0.0,0.0,0.0,0.0,-3.5266,-3.9947,-4.5029,-5.0525,-5.3302,-5.5898,-5.8449,-5.9027,-5.935,-5.9575,-5.9675,-5.9276,-5.8544,-5.9894,-6.0709,-6.1152,-6.3169,-6.4905,-6.619,-6.5534,-6.4915,-6.4287,-6.3688,-6.1936,-5.9569,-5.7734,-5.3406,-4.7508,-4.1358,-3.7561,-3.5409,-3.5175,-3.8091,-4.2685,-4.7387,-5.1243,-5.3737,-5.2196,0.0,-5.0198,-4.8849,-4.8855,-4.9835,-5.2096,-5.2905,-5.4559,0.0,0.0,-5.9277,-6.0093,-5.9509,-5.7766,-5.4453,-5.3576,-5.2879,-5.1423,-5.192,-5.3244,-5.531,-5.5104,-5.4613,-5.4399,-5.4709,-5.4676,-5.3971,-5.2954,-5.2318,-5.2246,-5.2559,-5.2643,-5.227,-5.2036,-5.1836,-5.1724,-5.1275,-5.1103,-5.1208,-5.2102,-5.2523,-5.2418,-5.1365,-5.2036,-5.4105,-5.3866,-5.4007,-5.4296,-5.2815,-5.2107,-5.185,-5.1529,-5.1263,-5.1105,-5.0981,-5.0544,-5.0068,-5.0011,-4.9202,-4.8066,0.0,0.0,0.0,0.0,0.0,0.0,0.0,0.0,0.0,0.0,0.0,0.0,0.0,0.0,0.0,0.0,0.0,0.0,-3.2618,-3.8929,-4.4227,-4.8118,-5.2282,-5.5254,-5.6798,-5.723,-5.7464,-5.7629,-5.7933,-5.7658,-5.7064,-5.955,-6.0928,-6.1495,-6.4074,-6.5794,-6.67,-6.6656,-6.5994,-6.4952,-6.4007,-6.2197,-5.9838,-5.7668,-5.3606,-4.8286,-4.1688,-3.7384,0.0,0.0,-3.6616,-4.0479,-4.5227,-4.839,-5.0226,-4.9153,-4.9584,0.0,-5.0977,-5.0857,0.0,0.0,-5.708,-5.9312,-6.2212,-6.2529,-6.2117,-6.1882,-6.0767,-5.8737,-5.5176,-5.3582,-5.2427,0.0,-5.1825,-5.3135,-5.5221,-5.5103,-5.4602,-5.3899,-5.3494,-5.2868,-5.181,-5.1581,-5.1466,-5.1323,-5.1844,-5.2145,-5.2072,-5.1997,-5.1885,-5.166,-5.1403,-5.1263,-5.1298,-5.1794,-5.2004,-5.1926,-5.1584,-5.164,-5.1969,-5.1913,-5.2136,-5.2625,-5.1675,-5.1374,-5.159,-5.137,-5.1211,-5.1211,-5.135,-5.0819,-5.0011,-5.0011,-4.9385,-4.858,0.0,0.0,0.0,0.0,0.0,0.0,0.0,0.0,0.0,0.0,0.0,0.0,0.0,0.0,0.0,0.0,0.0,0.0,0.0,-3.751,-4.2922,-4.6012,-5.0605,-5.3729,-5.5128,-5.5099,-5.517,-5.5436,-5.6002,-5.5936,-5.5486,-5.8938,-6.089,-6.1664,-6.4421,-6.61,-6.6707,-6.7018,-6.6272,-6.4874,-6.3993,-6.2113,-5.9518,-5.7325,-5.3684,-4.8827,-4.2316,-3.7835,0.0,0.0,-3.5818,-3.8882,-4.3123,-4.5896,-4.7505,-4.7305,-4.8827,-5.0793,-5.1459,0.0,0.0,-5.6752,-6.0167,-6.2747,-6.3444,-6.3847,-6.3786,-6.2767,-6.1119,-5.8909,-5.5654,-5.361,-5.2161,-5.1369,-5.173,-5.2808,-5.4675,-5.4483,-5.379,-5.3059,-5.1943,-5.0741,-4.9626,-5.0335,-5.0731,-5.0498,-5.1021,-5.1454,-5.1645,-5.1836,-5.1773,-5.1489,-5.1454,-5.1442,-5.1268,-5.1381,-5.1381,-5.1268,-5.1381,-5.1172,-5.0745,-5.0802,-5.1024,-5.1338,-5.0914,-5.0934,-5.122,-5.1157,-5.1158,-5.1298,-5.1571,-5.1211,-5.0432,-5.0126,-4.9683,-4.9263,0.0,0.0,0.0,0.0,0.0,0.0,0.0,0.0,0.0,0.0,0.0,0.0,0.0,0.0,0.0,0.0,0.0,0.0,0.0,-3.6382,-4.1353,-4.5626,-4.8137,-5.0837,-5.3758,-5.2708,-5.2505,-5.3315,-5.3943,-5.408,-5.3779,-5.7658,-5.9835,-6.0647,-6.368,-6.5305,-6.5746,-6.5896,-6.5197,-6.3892,-6.3457,-6.1415,-5.8556,-5.7066,-5.3421,-4.8346,-4.2984,0.0,0.0,0.0,-3.6038,-3.8397,-4.1373,-4.414,0.0,-4.7638,-4.9128,-5.0326,0.0,0.0,-5.5835,-5.8254,-6.1245,-6.3885,-6.4806,-6.4889,-6.4483,-6.3512,-6.105,-5.8392,-5.5818,-5.3921,-5.2446,-5.1699,-5.1488,-5.1972,-5.3608,-5.2391,-5.1321,-5.1174,-4.9676,-4.8424,0.0,-4.9264,-5.0037,-4.9947,-5.0295,-5.0637,-5.0838,-5.1444,-5.1638,-5.1315,-5.1396,-5.1163,-5.0432,-5.0432,-5.0432,-5.0432,-5.0432,-5.085,-5.1581,-5.1717,-5.166,-5.1546,-5.1115,-5.0819,-5.0675,-5.0999,-5.107,-5.1158,-5.1521,-5.1708,-5.1521,-5.0432,-5.0011,-4.9952,0.0,0.0,0.0,0.0,0.0,0.0,0.0,0.0,0.0,0.0,0.0,0.0,0.0,0.0,0.0,0.0,0.0,0.0,0.0,-3.4898,-3.9049,-4.1759,-4.614,-4.9158,-5.0578,-4.9864,-4.9944,-5.087,-5.1241,-5.1915,-5.2857,-5.6325,-5.8963,-6.0936,-6.2702,-6.404,-6.4799,-6.5268,-6.4384,-6.2768,-6.2574,-6.0883,-5.837,-5.6789,-5.2896,-4.7795,0.0,0.0,0.0,0.0,-3.636,-3.8114,-4.0483,-4.214,0.0,-4.7071,-4.8259,-4.9455,-5.3772,0.0,-5.77,-6.1033,-6.3298,-6.4842,-6.519,-6.5071,-6.424,-6.1706,-5.9273,-5.6667,-5.3494,-5.1519,-5.032,-5.0535,-5.0844,-5.1654,-5.3338,-5.2426,-5.1455,-5.0904,-4.9568,0.0,0.0,0.0,0.0,-5.0009,-5.0915,-5.1765,-5.2443,-5.3006,-5.3112,-5.2753,-5.2235,-5.1578,-5.0852,-5.0449,-5.0206,-5.0149,-5.0263,-5.0402,-5.0702,-5.0815,-5.1115,-5.1511,-5.0934,-5.106,-5.1598,-5.1227,-5.1052,-5.1034,-5.1505,-5.1505,-5.1141,-5.071,-5.1891,-5.3672,0.0,0.0,0.0,0.0,0.0,0.0,0.0,0.0,0.0,0.0,0.0,0.0,0.0,0.0,0.0,0.0,0.0,0.0,0.0,0.0,-3.6207,-3.8876,-4.2829,-4.5413,-4.6332,-4.5766,-4.594,-4.6828,-4.824,-4.9658,-5.1189,-5.5397,-5.8224,-5.9771,-6.1262,-6.2211,-6.2612,-6.3171,-6.2534,-6.1126,-6.0772,-5.9309,-5.7255,-5.4803,-5.1165,0.0,0.0,0.0,0.0,-3.6124,-3.6702,-3.8354,-4.0287,-4.2523,-4.5043,-4.8069,-4.9485,-5.131,-5.689,-5.8754,-5.9942,-6.3555,-6.5131,-6.5679,-6.5428,-6.4613,-6.2985,-5.9714,-5.719,-5.45,-5.1138,-4.9263,-4.8556,-4.9528,-4.9829,-5.0509,-5.2186,-5.1526,-5.0579,-4.9853,-4.9081,0.0,0.0,0.0,0.0,-5.0314,-5.1411,-5.2373,-5.3014,-5.366,-5.3938,-5.3514,-5.2812,-5.2131,-5.1468,-5.0952,-5.0573,-5.0331,-5.0195,-5.0171,-5.0171,-5.0341,-5.0676,-5.1185,-5.0774,-5.1004,-5.1654,-5.1173,-5.0981,-5.0927,-5.1298,-5.135,-5.1193,-5.1193,-5.3172,-5.568,0.0,0.0,0.0,0.0,0.0,0.0,0.0,0.0,0.0,0.0,0.0,0.0,0.0,0.0,0.0,0.0,0.0,0.0,0.0,0.0,0.0,-3.6861,-3.8432,-3.9876,-4.1349,-4.0781,-4.0776,-4.1542,-4.5126,-4.7518,-4.8941,-5.4641,-5.7304,-5.7375,-5.9328,-5.9824,-5.9213,-5.9731,-5.9592,-5.8942,-5.793,-5.6718,-5.5132,-5.1438,0.0,0.0,0.0,0.0,0.0,0.0,0.0,0.0,0.0,-4.5136,-4.9652,-5.0594,-5.2692,-5.5483,-5.8864,-6.0791,-6.2644,-6.5595,-6.6427,-6.6332,-6.5587,-6.3626,-6.0963,-5.7596,-5.4925,-5.2157,0.0,0.0,-4.7108,-4.8671,-4.852,-4.8769,-5.0367,-4.9648,-4.8755,0.0,0.0,0.0,0.0,0.0,0.0,-5.1066,0.0,-5.2522,-5.2643,-5.3633,-5.4067,-5.3671,-5.3329,-5.2798,-5.2042,-5.1788,-5.1377,-5.0807,-5.0472,-5.0241,-5.0171,-5.0341,-5.0488,-5.0599,-5.0599,-5.071,-5.0873,-5.0873,-5.0873,-5.0873,-5.0927,-5.1298,-5.1758,-5.1951,-5.3917,-5.6116,0.0,0.0,0.0,0.0,0.0,0.0,0.0,0.0,0.0,0.0,0.0,0.0,0.0,0.0,0.0,0.0,0.0,0.0,0.0,0.0,0.0,0.0,0.0,0.0,0.0,0.0,0.0,0.0,0.0,-4.5626,-4.8741,-5.1808,-5.4137,-5.5773,-5.6026,-5.6294,-5.6501,-5.6679,-5.6179,-5.5256,0.0,-5.3358,-5.2029,0.0,0.0,0.0,0.0,0.0,0.0,0.0,0.0,0.0,0.0,-4.7044,-4.9149,-5.2107,-5.415,-5.6432,-6.0423,-6.2643,-6.4223,-6.6058,-6.6199,-6.5686,-6.4482,-6.2364,-5.9397,-5.5189,-5.233,-4.9462,0.0,0.0,0.0,-4.6843,-4.751,0.0,-4.9217,-4.8537,0.0,-4.8093,0.0,-5.0346,-5.1676,-5.3571,0.0,0.0,-5.4569,-5.4363,-5.4438,-5.5389,-5.5574,-5.4652,-5.4184,-5.365,-5.3053,-5.2124,-5.1377,-5.0807,-5.0932,-5.0726,-5.0171,-5.0453,-5.0564,-5.0599,-5.0599,-5.071,-5.0873,-5.0873,-5.0873,-5.0927,-5.135,-5.1822,-5.2629,-5.5411,-5.7125,-5.8039,0.0,0.0,0.0,0.0,0.0,0.0,0.0,0.0,0.0,0.0,0.0,0.0,0.0,0.0,0.0,0.0,0.0,0.0,0.0,0.0,0.0,0.0,0.0,0.0,0.0,0.0,0.0,0.0,0.0,0.0,0.0,-4.9742,-5.1993,-5.3336,-5.3384,-5.3474,-5.3729,-5.3618,0.0,0.0,0.0,0.0,0.0,0.0,0.0,0.0,0.0,0.0,0.0,0.0,0.0,-4.5179,-4.7818,-4.9809,-5.1784,-5.4542,0.0,-5.9268,-6.2182,-6.4572,-6.6282,-6.6839,-6.6761,-6.5896,-6.3275,-6.0788,-5.7444,-5.2157,-4.9453,0.0,0.0,0.0,0.0,0.0,0.0,0.0,-4.7512,-4.7533,-4.7562,0.0,-4.955,0.0,-5.2977,-5.5212,-5.6781,0.0,-5.6411,-5.568,-5.545,-5.5978,-5.6034,-5.5637,-5.4695,-5.3969,-5.3464,-5.2486,-5.1639,-5.1138,-5.0978,-5.0607,-5.0057,-5.0194,-5.0397,-5.0488,0.0,-4.9776,-4.8837,-4.8837,-4.9802,-5.1298,-5.1571,-5.3026,-5.504,-5.5852,-5.7475,-5.929,0.0,0.0,0.0,0.0,0.0,0.0,0.0,0.0,0.0,0.0,0.0,0.0,0.0,0.0,0.0,0.0,0.0,0.0,0.0,0.0,0.0,0.0,0.0,0.0,0.0,0.0,0.0,0.0,0.0,0.0,0.0,0.0,0.0,0.0,0.0,0.0,0.0,0.0,0.0,0.0,0.0,0.0,0.0,0.0,0.0,0.0,0.0,0.0,0.0,0.0,-4.4504,-4.6485,-4.9472,-5.2525,-5.5295,-5.7066,-5.9712,-6.2348,-6.3718,-6.6002,-6.7962,-6.7564,-6.7305,-6.611,-6.2189,-5.9042,-5.523,-4.9172,0.0,-4.455,-4.1523,0.0,-4.2068,-4.3358,0.0,-4.4956,-4.569,-4.6425,-4.7066,-4.7665,-4.9928,-5.2145,-5.3981,-5.6631,-5.8426,-5.8977,-5.7894,-5.6868,-5.6154,-5.6078,-5.6071,-5.623,-5.4937,-5.3946,-5.3484,-5.2673,-5.1961,-5.1473,-5.0816,-5.0275,-4.9849,-4.9884,-5.0057,-5.0341,0.0,0.0,-4.68,-4.6463,-4.8466,-5.1708,-5.1822,-5.4447,-5.7729,-5.4941,-5.6436,-6.0013,0.0,0.0,0.0,0.0,0.0,0.0,0.0,0.0,0.0,0.0,0.0,0.0,0.0,0.0,0.0,0.0,0.0,0.0,0.0,0.0,0.0,0.0,0.0,0.0,0.0,0.0,0.0,0.0,0.0,0.0,0.0,0.0,0.0,0.0,0.0,0.0,0.0,0.0,0.0,0.0,0.0,0.0,0.0,0.0,0.0,0.0,0.0,0.0,0.0,0.0,-4.4901,-4.7496,-5.0007,-5.2509,-5.4955,-5.7061,-5.951,-6.1965,-6.3717,-6.5463,-6.6931,-6.7214,-6.645,-6.4804,-6.1796,-5.7604,0.0,0.0,0.0,-4.1942,-3.9934,-4.0781,0.0,-4.2258,0.0,0.0,0.0,0.0,-4.5789,0.0,0.0,0.0,0.0,0.0,0.0,0.0,0.0,0.0,-5.7794,-5.7148,-5.642,-5.5632,-5.4552,-5.3783,-5.3247,-5.2371,-5.1698,-5.1282,-5.0629,-5.0093,-4.9674,-4.9791,-4.9942,-5.0068,0.0,0.0,-4.9943,-4.7736,-4.8758,-5.1772,-5.2581,-5.522,-5.8206,-5.536,-5.6879,-6.0313,0.0,0.0,0.0,0.0,0.0,0.0,0.0,0.0,0.0,0.0,0.0,0.0,0.0,0.0,0.0,0.0,0.0,0.0,0.0,0.0,0.0,0.0,0.0,0.0,0.0,0.0,0.0,0.0,0.0,0.0,0.0,0.0,0.0,0.0,0.0,0.0,0.0,0.0,0.0,0.0,0.0,0.0,0.0,0.0,0.0,0.0,0.0,0.0,0.0,0.0,-4.3924,-4.6306,-4.9487,-5.2123,-5.4587,-5.7053,-5.9651,-6.2125,-6.3848,-6.5883,-6.7573,-6.7282,-6.6382,-6.4461,-6.0364,0.0,0.0,0.0,-4.2717,-4.0491,-3.8924,0.0,0.0,0.0,0.0,0.0,0.0,0.0,0.0,0.0,0.0,0.0,0.0,0.0,0.0,0.0,0.0,0.0,-5.7819,-5.7163,-5.6204,-5.4982,-5.4593,-5.3957,-5.3041,-5.2098,-5.143,-5.0957,-5.0247,-4.982,-4.959,-4.9649,-4.9767,-4.9907,0.0,0.0,-4.8799,-4.7511,-4.9041,-5.2246,-5.3151,-5.4721,-5.6295,-5.5107,-5.6045,-5.7939,0.0,0.0,0.0,0.0,0.0,0.0,0.0,0.0,0.0,0.0,0.0,0.0,0.0,0.0,0.0,0.0,0.0,0.0,0.0,0.0,0.0,0.0,0.0,0.0,0.0,0.0,0.0,0.0,0.0,0.0,0.0,0.0,0.0,0.0,0.0,0.0,0.0,0.0,0.0,0.0,0.0,0.0,0.0,0.0,0.0,0.0,0.0,0.0,0.0,0.0,-4.2825,-4.474,-4.8043,-5.1032,-5.3869,-5.6294,-5.9209,-6.1929,-6.3377,-6.5711,-6.7584,-6.6923,-6.5767,-6.3528,-5.8569,-5.4397,0.0,0.0,-4.119,-3.9303,-3.8507,0.0,0.0,0.0,0.0,0.0,0.0,0.0,0.0,0.0,0.0,0.0,0.0,0.0,0.0,0.0,0.0,0.0,0.0,-5.6695,-5.5768,-5.4465,-5.4461,-5.3923,-5.2834,-5.1724,-5.1093,-5.0693,-4.9789,-4.9434,-4.9471,-4.9471,-4.9683,-4.9873,0.0,0.0,0.0,-4.794,-5.0109,-5.2886,-5.3639,-5.4163,-5.4576,-5.4852,-5.5326,-5.5724,0.0,0.0,0.0,0.0,0.0,0.0,0.0,0.0,0.0,0.0,0.0,0.0,0.0,0.0,0.0,0.0,0.0,0.0,0.0,0.0,0.0,0.0,0.0,0.0,0.0,0.0,0.0,0.0,0.0,0.0,0.0,0.0,0.0,0.0,0.0,0.0,0.0,0.0,0.0,0.0,0.0,0.0,0.0,0.0,0.0,0.0,0.0,0.0,0.0,0.0,0.0,-4.4094,-4.5585,-4.8612,-5.2146,-5.4063,0.0,0.0,-6.1862,-6.3653,-6.4966,-6.5141,-6.3238,-6.0478,-5.6588,0.0,0.0,-4.27,-3.9642,-3.8014,-3.897,-3.8974,-3.9377,0.0,0.0,0.0,0.0,0.0,0.0,0.0,0.0,0.0,0.0,0.0,0.0,0.0,0.0,0.0,0.0,-5.5971,-5.5148,-5.4269,-5.3783,-5.328,-5.2624,-5.1052,-5.0458,-5.0693,-4.9254,-4.8866,-4.935,-4.9411,-4.9683,-4.9976,0.0,0.0,0.0,-5.1078,-5.3019,-5.3717,-5.4163,-5.4538,-5.4882,-5.5206,-5.5514,-5.5766,0.0,0.0,0.0,0.0,0.0,0.0,0.0,0.0,0.0,0.0,0.0,0.0,0.0,0.0,0.0,0.0,0.0,0.0,0.0,0.0,0.0,0.0,0.0,0.0,0.0,0.0,0.0,0.0,0.0,0.0,0.0,0.0,0.0,0.0,0.0,0.0,0.0,0.0,0.0,0.0,0.0,0.0,0.0,0.0,0.0,0.0,0.0,0.0,0.0,0.0,0.0,0.0,-4.3976,-4.6327,0.0,0.0,-5.5364,-5.8035,-6.0367,-6.23,-6.3553,-6.3307,-6.1347,-5.8506,-5.4567,0.0,-4.6055,-4.1797,-3.9372,-3.8111,-3.8274,-3.8638,-3.9309,0.0,0.0,0.0,0.0,0.0,0.0,0.0,0.0,0.0,0.0,0.0,0.0,0.0,0.0,0.0,0.0,-5.5709,-5.5234,-5.4431,-5.3715,-5.3111,-5.259,-5.0985,-5.0323,-5.0493,-4.9251,-4.9221,-5.0275,-5.0032,-5.0114,-5.0509,0.0,0.0,0.0,-5.3275,-5.4434,-5.4754,-5.4874,-5.513,-5.5413,-5.5682,-5.5866,-5.6012,0.0,0.0,0.0,0.0,0.0,0.0,0.0,0.0,0.0,0.0,0.0,0.0,0.0,0.0,0.0,0.0,0.0,0.0,0.0,0.0,0.0,0.0,0.0,0.0,0.0,0.0,0.0,0.0,0.0,0.0,0.0,0.0,0.0,0.0,0.0,0.0,0.0,0.0,0.0,0.0,0.0,0.0,0.0,0.0,0.0,0.0,0.0,0.0,0.0,0.0,0.0,0.0,0.0,0.0,0.0,0.0,-5.3247,-5.5469,-5.7722,-5.9587,-6.0882,-6.0446,-5.8561,-5.5826,0.0,0.0,-4.4319,-4.0859,-3.8861,-3.7806,-3.8142,-3.852,-3.9176,0.0,0.0,-4.2503,0.0,0.0,0.0,0.0,0.0,0.0,0.0,0.0,0.0,0.0,0.0,0.0,0.0,-5.4965,-5.4699,-5.4086,-5.327,-5.2539,-5.2027,-5.0691,-5.0126,-5.0292,-4.9371,-4.9528,-5.071,-5.0749,-5.106,0.0,0.0,0.0,0.0,-5.5282,-5.5597,-5.544,-5.5461,-5.5934,-5.6618,-5.6781,-5.6877,-5.7003,0.0,0.0,0.0,0.0,0.0,0.0,0.0,0.0,0.0,0.0,0.0,0.0,0.0,0.0,0.0,0.0,0.0,0.0,0.0,0.0,0.0,0.0,0.0,0.0,0.0,0.0,0.0,-3.6967,-4.0433,0.0,0.0,0.0,0.0,0.0,0.0,0.0,0.0,0.0,0.0,0.0,0.0,0.0,0.0,0.0,0.0,0.0,0.0,0.0,0.0,0.0,0.0,0.0,0.0,0.0,0.0,0.0,-5.0576,-5.2927,-5.3661,-5.5036,-5.6269,-5.6304,-5.4295,-5.1693,0.0,0.0,-4.1314,-3.9735,-3.7728,-3.6841,-3.8977,-3.8835,-3.9075,-4.1036,-4.1276,0.0,0.0,0.0,0.0,0.0,0.0,0.0,0.0,0.0,0.0,0.0,0.0,0.0,0.0,0.0,-5.3125,-5.3135,-5.2072,-5.1251,-5.0727,-4.999,-4.9751,-5.0071,-4.963,-4.9674,-5.0241,-5.1633,0.0,0.0,0.0,0.0,0.0,-5.7332,-5.6725,-5.5508,-5.5769,-5.7017,-5.8674,-5.8752,-5.8829,-5.8799,0.0,0.0,0.0,0.0,0.0,0.0,0.0,0.0,0.0,0.0,0.0,0.0,0.0,0.0,0.0,0.0,0.0,0.0,0.0,0.0,0.0,0.0,0.0,0.0,0.0,0.0,-3.5418,-3.8375,-4.0951,-4.3056,-4.4731,0.0,0.0,0.0,0.0,0.0,0.0,0.0,0.0,0.0,0.0,0.0,0.0,0.0,0.0,0.0,0.0,0.0,0.0,0.0,0.0,0.0,0.0,0.0,0.0,-4.4692,0.0,0.0,-4.9452,-5.0481,-5.0961,-5.0103,-4.8987,-4.7476,-4.497,-4.2365,-4.0206,-3.9201,-3.8112,-3.7801,-3.9129,-3.9476,-3.9967,-4.1176,-4.1299,0.0,0.0,0.0,0.0,0.0,0.0,0.0,0.0,0.0,0.0,0.0,0.0,0.0,0.0,0.0,-5.1276,-5.2467,-5.1609,-5.1121,-5.0925,-5.0056,-4.9782,-5.0193,-5.0017,-5.0436,-5.152,-5.2448,0.0,0.0,0.0,0.0,0.0,-5.8022,-5.8196,-5.8,-5.7661,-5.7981,-5.8644,-5.8764,-5.8829,-5.8799,0.0,0.0,0.0,0.0,0.0,0.0,0.0,0.0,0.0,0.0,0.0,0.0,0.0,0.0,0.0,0.0,0.0,0.0,0.0,0.0,0.0,0.0,0.0,0.0,0.0,-3.3472,-3.6679,-3.9588,-4.2255,-4.4311,-4.5824,-4.7044,-4.6962,0.0,0.0,0.0,0.0,0.0,0.0,0.0,0.0,0.0,-4.2019,0.0,0.0,0.0,0.0,0.0,0.0,0.0,0.0,0.0,0.0,0.0,0.0,0.0,-4.2558,-4.3548,0.0,-4.643,-4.6672,-4.5805,-4.501,0.0,0.0,-4.0021,-3.8461,-3.79,-3.7496,-3.7451,-3.8305,-3.9126,-3.98,-4.0321,-4.0446,0.0,0.0,0.0,0.0,0.0,0.0,0.0,0.0,0.0,0.0,0.0,0.0,0.0,0.0,0.0,-4.9783,-5.0657,-5.0503,-5.0469,-5.0469,-4.9869,-4.9848,-5.042,-5.0515,-5.1262,-5.2604,0.0,0.0,0.0,0.0,0.0,0.0,-5.9531,-5.984,-5.9862,-5.9241,-5.908,-5.9257,-5.9343,-5.963,-5.9824,0.0,0.0,0.0,0.0,0.0,0.0,0.0,0.0,0.0,0.0,0.0,0.0,0.0,0.0,0.0,0.0,0.0,0.0,0.0,0.0,0.0,0.0,0.0,0.0,0.0,-3.5055,-3.8172,-4.0481,-4.3939,-4.6026,-4.6878,-4.8924,-4.8596,-4.6287,-4.5785,0.0,0.0,0.0,0.0,0.0,0.0,0.0,0.0,0.0,0.0,0.0,0.0,0.0,0.0,0.0,0.0,0.0,0.0,0.0,0.0,0.0,0.0,0.0,0.0,-4.2672,0.0,0.0,0.0,0.0,-3.9917,-3.7951,0.0,-3.6091,-3.6004,-3.6195,-3.6852,-3.797,-3.8771,-3.8774,-3.904,0.0,0.0,0.0,0.0,0.0,0.0,0.0,0.0,0.0,0.0,0.0,0.0,0.0,0.0,0.0,0.0,-4.826,-4.9045,-4.9521,-4.9462,-4.9521,-4.9873,-5.064,-5.1158,-5.208,-5.3483,0.0,0.0,0.0,0.0,0.0,0.0,-6.1562,-6.1497,-6.102,-6.042,-6.0272,-6.0403,-6.0464,-6.0996,-6.1559,0.0,0.0,0.0,0.0,0.0,0.0,0.0,0.0,0.0,0.0,0.0,0.0,0.0,0.0,0.0,0.0,0.0,0.0,0.0,0.0,0.0,0.0,0.0,0.0,0.0,-3.5561,-3.7691,-4.03,-4.3239,-4.5585,-4.741,-4.9883,-4.9975,-4.8078,-4.7141,0.0,0.0,0.0,0.0,0.0,0.0,0.0,0.0,0.0,0.0,0.0,-3.7768,-3.7735,0.0,0.0,0.0,0.0,0.0,0.0,0.0,0.0,-3.7642,-3.6847,-3.7306,0.0,-3.7446,-3.6771,-3.6707,-3.6612,0.0,-3.5065,-3.4636,-3.5285,0.0,-3.5487,-3.7407,-3.7648,-3.8038,-3.9313,0.0,0.0,0.0,0.0,0.0,0.0,0.0,0.0,0.0,0.0,0.0,0.0,0.0,0.0,0.0,0.0,0.0,-4.867,-4.924,-4.9382,-4.8988,-4.9313,-5.0029,-5.107,-5.2436,-5.3453,-5.4159,0.0,0.0,0.0,0.0,0.0,-6.1831,-6.2054,-6.1736,-6.1098,-6.1104,-6.1167,-6.1296,-6.1369,-6.1529,-6.1676,0.0,0.0,0.0,0.0,0.0,0.0,0.0,0.0,0.0,0.0,0.0,0.0,0.0,0.0,0.0,0.0,0.0,0.0,0.0,0.0,0.0,0.0,0.0,0.0,-3.5241,-3.6482,-3.8394,-4.1243,-4.3556,-4.597,-4.8496,-5.0422,-5.0431,-4.857,-4.6149,0.0,0.0,0.0,0.0,0.0,0.0,0.0,0.0,0.0,0.0,0.0,-3.75,-3.7109,0.0,-3.7158,-3.7533,-3.7933,0.0,0.0,0.0,0.0,-3.5768,-3.4874,-3.46,-3.5496,-3.6441,-3.6182,-3.6271,-3.6351,-3.6005,0.0,0.0,0.0,0.0,0.0,0.0,0.0,0.0,0.0,0.0,0.0,0.0,0.0,0.0,0.0,0.0,0.0,0.0,0.0,0.0,0.0,0.0,0.0,0.0,0.0,0.0,0.0,-4.9055,-4.9442,-4.9866,-5.0224,-5.1129,-5.2485,-5.3599,-5.4754,-5.602,0.0,0.0,0.0,0.0,0.0,-6.2924,-6.2836,-6.2574,-6.2293,-6.168,-6.1529,-6.1632,-6.1701,-6.1709,-6.1704,0.0,0.0,0.0,0.0,0.0,0.0,0.0,0.0,0.0,0.0,0.0,0.0,0.0,0.0,0.0,0.0,0.0,0.0,0.0,0.0,0.0,0.0,0.0,-3.4625,-3.6257,-3.7376,-3.9266,-4.2008,-4.4195,-4.6686,-4.9464,-5.1016,-5.0574,-4.8359,-4.433,-4.2437,0.0,0.0,0.0,0.0,-4.077,0.0,0.0,0.0,0.0,0.0,0.0,0.0,0.0,-3.5924,-3.6114,-3.6394,-3.6473,0.0,0.0,0.0,0.0,0.0,-3.3372,-3.5392,-3.7369,-3.7289,-3.7369,-3.7449,-3.7266,0.0,0.0,0.0,0.0,0.0,0.0,0.0,0.0,0.0,0.0,0.0,0.0,0.0,0.0,0.0,0.0,0.0,0.0,0.0,0.0,0.0,0.0,0.0,0.0,0.0,0.0,0.0,-4.9053,-4.982,-5.1515,-5.1571,-5.2412,-5.4115,-5.4658,-5.5992,-5.8014,-5.9228,0.0,0.0,0.0,0.0,-6.4369,-6.3897,-6.3608,-6.3356,-6.2035,-6.1595,-6.169,-6.1711,-6.1717,-6.1718,0.0,0.0,0.0,0.0,0.0,0.0,0.0,0.0,0.0,0.0,0.0,0.0,0.0,0.0,0.0,0.0,0.0,0.0,0.0,0.0,0.0,0.0,0.0,-3.6985,-3.7614,-3.7811,-3.8638,-4.0184,-4.4466,-4.7375,-4.8942,-5.1751,-5.1168,-4.7612,-4.3963,-4.2046,-4.1423,-4.1179,-4.068,-4.0051,-4.0629,0.0,0.0,0.0,0.0,0.0,0.0,0.0,0.0,-3.2617,-3.3006,-3.3787,-3.2566,0.0,0.0,0.0,0.0,0.0,-3.4372,-3.6202,-3.7046,-3.4545,-3.4988,-3.5802,-3.488,-3.4305,0.0,0.0,0.0,0.0,0.0,0.0,0.0,0.0,0.0,0.0,0.0,0.0,0.0,0.0,0.0,0.0,0.0,0.0,0.0,0.0,0.0,0.0,0.0,0.0,0.0,0.0,0.0,-5.1229,-5.295,-5.2212,-5.2742,-5.4548,-5.5846,-5.7146,-5.8358,-5.9642,-6.1218,0.0,0.0,-6.3844,-6.5697,-6.5562,-6.4077,-6.1928,-6.1758,-6.1686,-6.1707,-6.1717,-6.1719,-6.1719,0.0,0.0,0.0,0.0,0.0,0.0,0.0,0.0,0.0,0.0,0.0,0.0,0.0,0.0,0.0,0.0,0.0,0.0,0.0,0.0,0.0,0.0,-3.7473,-3.7532,-3.7504,-3.7891,-3.9417,-4.2315,-4.4917,-4.7813,-5.0882,-5.0907,-4.9363,-4.6406,-4.3113,-4.1401,-4.0982,-4.0807,-4.0341,-3.9727,0.0,0.0,0.0,0.0,0.0,0.0,0.0,0.0,0.0,0.0,-3.2615,-3.2975,-3.2104,0.0,0.0,0.0,0.0,0.0,-3.314,-3.4959,-3.6276,-3.518,-3.682,-3.8553,-3.8151,-3.725,0.0,0.0,0.0,0.0,0.0,0.0,0.0,0.0,0.0,0.0,0.0,0.0,0.0,0.0,0.0,0.0,0.0,0.0,0.0,0.0,0.0,0.0,0.0,0.0,0.0,0.0,0.0,0.0,-5.2895,-5.301,-5.3757,-5.5175,-5.6504,-5.7693,-5.8825,-6.0494,-6.1873,-6.3037,0.0,-6.5093,-6.5968,-6.4268,-6.2807,-6.1616,-6.166,-6.1686,-6.1697,-6.1717,-6.1718,-6.1716,0.0,0.0,0.0,0.0,0.0,0.0,0.0,0.0,0.0,0.0,0.0,0.0,0.0,0.0,0.0,0.0,0.0,0.0,0.0,0.0,-3.7337,-3.6792,-3.7154,-3.7372,-3.7537,-3.8255,-4.0294,-4.3745,-4.5226,-4.7951,-5.1568,-4.9372,-4.7169,-4.4864,-4.2058,-4.0716,-4.045,-4.0411,-3.9934,-3.9294,0.0,0.0,0.0,0.0,0.0,0.0,0.0,0.0,0.0,0.0,0.0,0.0,0.0,0.0,0.0,-3.1911,-3.1544,-3.1653,-3.2386,-3.4007,-3.5712,-3.6625,0.0,-4.0502,-4.113,-3.986,0.0,0.0,0.0,0.0,0.0,0.0,0.0,0.0,0.0,0.0,0.0,0.0,0.0,0.0,0.0,0.0,0.0,0.0,0.0,0.0,0.0,0.0,0.0,0.0,0.0,0.0,0.0,0.0,-5.2751,-5.3529,-5.4493,-5.5607,-5.6898,-5.8025,-5.9063,-6.0935,-6.1983,-6.2433,-6.4231,-6.547,-6.6012,-6.2885,-6.1607,-6.1616,-6.168,-6.171,-6.1686,-6.1716,-6.117,-6.0618,0.0,0.0,0.0,0.0,0.0,0.0,0.0,0.0,0.0,0.0,0.0,0.0,0.0,0.0,0.0,0.0,0.0,0.0,0.0,0.0,-3.624,-3.5576,-3.576,-3.6766,-3.8755,-3.9541,-4.0538,-4.1759,-4.5201,-4.7422,-4.8309,-4.7598,-4.5696,-4.2787,-4.1175,-4.0184,-3.9787,-4.0201,-3.9787,-3.8929,-3.9354,0.0,0.0,0.0,0.0,0.0,0.0,0.0,0.0,0.0,0.0,0.0,0.0,0.0,-3.097,-3.0969,-3.1055,-3.1622,-3.3853,-3.4985,-3.6026,-3.7703,-3.7869,0.0,-4.0522,-3.9544,0.0,-3.9454,0.0,0.0,0.0,0.0,0.0,0.0,0.0,0.0,0.0,0.0,0.0,0.0,0.0,0.0,0.0,0.0,0.0,0.0,0.0,0.0,0.0,0.0,0.0,0.0,0.0,0.0,-5.3327,-5.3236,-5.4029,-5.571,-5.7101,-5.8116,-5.8792,-6.0365,-6.1176,-6.132,-6.1426,-6.3356,-6.6237,-6.2958,-6.1607,-6.1607,-6.1616,-6.1666,-6.1686,-6.1716,-5.9687,-5.7421,0.0,0.0,0.0,0.0,0.0,0.0,0.0,0.0,0.0,0.0,0.0,0.0,0.0,0.0,0.0,0.0,0.0,0.0,0.0,0.0,-3.4158,-3.4838,-3.511,-3.6117,-3.7806,-3.9051,-4.083,-4.3113,-4.6013,-4.6971,-4.613,-4.55,-4.3918,-4.1483,-4.0591,-3.9817,-3.9192,-3.9728,-3.9106,-3.7725,-3.8318,-3.7676,0.0,0.0,0.0,0.0,0.0,0.0,0.0,0.0,-3.1006,-3.0629,0.0,0.0,-3.2053,-3.1389,-3.1051,-3.116,-3.2486,-3.3458,-3.4598,-3.6841,-3.7378,0.0,0.0,-4.0788,-4.0703,-4.1694,-4.2267,0.0,0.0,0.0,0.0,0.0,0.0,0.0,0.0,0.0,0.0,0.0,0.0,0.0,0.0,0.0,0.0,0.0,0.0,0.0,0.0,0.0,0.0,0.0,0.0,0.0,0.0,-5.213,-5.3278,-5.4591,-5.6267,-5.7402,-5.8072,-5.9456,-6.0544,-6.1337,-6.1408,-6.2207,-6.3427,-6.2123,-6.0282,-5.8503,-6.0643,-6.0243,-5.8747,-6.0909,-5.9526,-5.6797,0.0,0.0,0.0,0.0,0.0,0.0,0.0,0.0,0.0,0.0,0.0,0.0,0.0,0.0,0.0,0.0,0.0,0.0,0.0,0.0,-3.2415,-3.3571,-3.4208,-3.5189,-3.6632,-3.7949,-3.9978,-4.2738,-4.5005,-4.5311,-4.3773,-4.3412,-4.2495,-4.0959,-4.0258,-3.9727,-3.9386,-3.909,-3.8206,-3.6979,-3.7238,-3.6544,0.0,0.0,0.0,0.0,0.0,0.0,0.0,0.0,0.0,0.0,0.0,0.0,0.0,0.0,-3.0777,-3.0583,-3.1067,-3.1802,-3.2961,-3.5177,0.0,0.0,-4.0388,-4.1241,-4.1778,-4.2541,-4.2462,0.0,0.0,0.0,0.0,0.0,0.0,0.0,0.0,0.0,0.0,0.0,0.0,0.0,0.0,0.0,0.0,0.0,0.0,0.0,0.0,0.0,0.0,0.0,0.0,0.0,0.0,-5.1128,-5.231,-5.3656,-5.5116,-5.622,-5.712,-5.9226,-6.0073,-5.9911,-5.998,-6.0041,-6.0076,-5.998,-5.9075,-5.8047,-6.0414,-5.9957,-5.8335,-6.0769,-5.9538,-5.6597,0.0,0.0,0.0,0.0,0.0,0.0,0.0,0.0,0.0,0.0,0.0,0.0,0.0,0.0,0.0,0.0,0.0,0.0,0.0,0.0,-3.1292,-3.1611,-3.2791,-3.4046,-3.5488,-3.625,-3.7776,-4.0037,-4.1849,-4.2093,-4.1076,-4.1346,-4.1397,-4.1309,-4.0051,-4.0,-4.0595,-3.8281,-3.72,-3.6921,-3.6041,-3.5554,-3.5427,0.0,0.0,0.0,0.0,0.0,0.0,0.0,-3.1351,0.0,0.0,0.0,0.0,0.0,-3.0165,-3.0022,-2.9911,-3.0401,-3.1255,0.0,0.0,0.0,-3.9807,-4.0746,-4.1168,-4.1682,0.0,0.0,0.0,0.0,0.0,0.0,0.0,0.0,0.0,0.0,0.0,0.0,0.0,0.0,0.0,0.0,0.0,0.0,0.0,0.0,0.0,0.0,0.0,0.0,0.0,0.0,0.0,-5.0347,-5.1233,-5.3087,-5.3686,-5.4632,-5.5924,-5.9646,-5.961,-5.6606,-5.6606,-5.6606,-5.6597,-5.6397,-5.8172,-6.1118,-6.1079,-6.1148,-6.1356,-6.1489,-5.9435,-5.661,0.0,0.0,0.0,0.0,0.0,0.0,0.0,0.0,0.0,0.0,0.0,0.0,0.0,0.0,0.0,0.0,0.0,0.0,0.0,0.0,0.0,0.0,-3.2166,-3.339,-3.483,0.0,-3.6721,-3.8938,-3.9324,-3.9247,-3.8716,-4.0307,-3.996,-3.816,-4.0198,-3.9671,-3.73,-3.7478,-3.6823,-3.5654,-3.5842,-3.5437,-3.4758,0.0,0.0,0.0,0.0,0.0,0.0,0.0,0.0,0.0,0.0,0.0,0.0,-2.909,-2.8572,-2.8081,-2.913,-3.05,0.0,-3.4156,0.0,0.0,0.0,-4.0948,0.0,0.0,0.0,0.0,0.0,0.0,0.0,0.0,0.0,0.0,0.0,0.0,0.0,0.0,0.0,0.0,0.0,0.0,0.0,0.0,0.0,0.0,0.0,0.0,0.0,0.0,0.0,0.0,0.0,0.0,-5.037,-5.1559,-5.2782,-5.4304,-5.6117,-5.7285,-5.7359,-5.6542,-5.6542,-5.6542,-5.6488,-5.6226,-5.8076,-6.0847,-5.8449,-5.7621,-5.782,-5.7946,-5.7414,-5.6606,0.0,0.0,0.0,0.0,0.0,0.0,0.0,0.0,0.0,0.0,0.0,0.0,0.0,0.0,0.0,0.0,0.0,0.0,0.0,0.0,0.0,0.0,0.0,0.0,0.0,-3.4638,-3.5411,0.0,0.0,-3.7296,-3.7462,-3.9563,-3.9989,-3.9093,-4.1025,-4.0208,-3.7374,-3.6997,-3.5925,-3.4495,-3.527,-3.5127,-3.4456,0.0,0.0,0.0,0.0,0.0,0.0,0.0,0.0,0.0,0.0,0.0,0.0,-2.7859,-2.7453,-2.7287,-2.8104,0.0,0.0,0.0,0.0,0.0,0.0,0.0,0.0,0.0,0.0,0.0,0.0,0.0,0.0,0.0,0.0,0.0,0.0,0.0,0.0,0.0,0.0,0.0,0.0,0.0,0.0,0.0,0.0,0.0,0.0,0.0,0.0,0.0,0.0,0.0,0.0,0.0,0.0,-4.9935,-5.1039,-5.2447,-5.408,-5.4233,-5.4319,-5.4461,-5.5823,-5.6375,-5.6278,-5.6094,-5.7211,-5.8874,-5.6908,-5.617,-5.6304,-5.6427,-5.5659,-5.4537,0.0,0.0,0.0,0.0,0.0,0.0,0.0,0.0,0.0,0.0,-2.9381,0.0,0.0,0.0,0.0,0.0,0.0,0.0,0.0,0.0,0.0,0.0,0.0,0.0,0.0,0.0,0.0,0.0,0.0,0.0,-3.679,-3.9025,-4.0712,-4.1784,-4.1797,-4.0742,-3.8839,-3.6374,-3.4433,-3.3165,-3.4198,-3.4371,-3.4149,-3.4847,0.0,0.0,0.0,0.0,0.0,0.0,0.0,0.0,-2.9635,0.0,-2.716,-2.6153,-2.6351,-2.6903,-2.6719,0.0,0.0,0.0,0.0,0.0,0.0,0.0,0.0,0.0,0.0,0.0,0.0,0.0,0.0,0.0,0.0,0.0,0.0,0.0,0.0,0.0,0.0,0.0,0.0,0.0,0.0,0.0,0.0,0.0,0.0,0.0,0.0,0.0,0.0,0.0,0.0,0.0,0.0,0.0,-4.8684,-4.9528,-5.0674,-5.0998,-5.1178,-5.1396,-5.4815,-5.6209,-5.6029,-5.6012,-5.6012,-5.6007,-5.5888,-5.5838,-5.5862,-5.5969,-5.406,-5.1414,0.0,0.0,0.0,0.0,0.0,0.0,0.0,0.0,0.0,0.0,0.0,0.0,0.0,0.0,0.0,0.0,0.0,0.0,0.0,0.0,0.0,0.0,0.0,0.0,0.0,0.0,0.0,0.0,0.0,0.0,0.0,0.0,-3.8313,-3.6874,-3.8822,-3.7325,-3.3311,-3.2585,-3.1467,-3.0188,-3.104,-3.1347,-3.1313,-3.1279,-3.167,0.0,0.0,0.0,0.0,0.0,0.0,0.0,-2.9189,-2.6949,-2.4383,-2.3378,-2.3152,-2.3357,0.0,-2.6963,0.0,0.0,0.0,0.0,0.0,0.0,0.0,0.0,0.0,0.0,0.0,0.0,0.0,0.0,0.0,0.0,0.0,0.0,0.0,0.0,0.0,0.0,0.0,0.0,0.0,0.0,0.0,0.0,0.0,0.0,0.0,0.0,0.0,0.0,-4.199,-4.4061,-4.5216,0.0,-4.6319,-4.7495,-4.8972,-5.0229,-5.0945,-5.1396,-5.4815,-5.6278,-5.6238,-5.6062,-5.6094,-5.598,-5.3327,-5.2347,-5.2386,-5.2403,-5.1993,-5.1414,0.0,0.0,0.0,0.0,0.0,0.0,0.0,0.0,0.0,0.0,0.0,0.0,0.0,0.0,0.0,0.0,0.0,0.0,0.0,0.0,0.0,0.0,0.0,0.0,0.0,0.0,0.0,0.0,0.0,0.0,0.0,0.0,0.0,-3.7491,0.0,-3.6114,-3.2339,-3.1017,-2.9752,-2.8681,-2.9398,-2.9844,-2.9958,-2.9726,-2.9826,-2.9978,-2.9261,0.0,0.0,0.0,0.0,0.0,0.0,0.0,-2.3013,-2.1478,-2.1108,-2.1433,0.0,0.0,0.0,0.0,0.0,0.0,0.0,0.0,0.0,0.0,0.0,0.0,0.0,0.0,0.0,0.0,0.0,0.0,0.0,0.0,0.0,0.0,0.0,0.0,0.0,0.0,0.0,0.0,0.0,0.0,0.0,0.0,0.0,0.0,0.0,0.0,-4.0169,-4.1549,-4.2449,-4.2889,-4.3768,-4.523,-4.7273,-4.962,-5.0776,-5.1076,-5.3016,-5.388,-5.3885,-5.3778,-5.3825,-5.3758,-5.196,-5.1304,-5.1336,-5.1336,-5.1352,-5.1414,0.0,0.0,0.0,0.0,0.0,0.0,0.0,0.0,0.0,0.0,0.0,0.0,0.0,0.0,0.0,0.0,0.0,0.0,0.0,0.0,0.0,0.0,0.0,0.0,0.0,0.0,0.0,0.0,0.0,0.0,0.0,0.0,0.0,-3.9283,0.0,-3.5597,-3.2609,-3.0131,-2.8349,-2.7224,-2.7574,-2.7933,-2.8156,-2.7886,-2.7552,-2.733,-2.7118,-2.7427,-2.7998,-2.8261,0.0,0.0,0.0,0.0,-2.1678,-1.9717,-1.9319,-1.9788,0.0,0.0,0.0,0.0,0.0,0.0,0.0,0.0,0.0,0.0,0.0,0.0,0.0,0.0,0.0,0.0,0.0,0.0,0.0,0.0,0.0,0.0,0.0,0.0,0.0,0.0,0.0,0.0,0.0,0.0,0.0,0.0,0.0,0.0,0.0,-3.6948,-3.8617,-3.8636,-3.9225,-4.0387,-4.1482,-4.3065,-4.5142,-4.8392,-5.0236,-5.0794,-5.1062,-5.1229,-5.1281,-5.1296,-5.1341,-5.1382,-5.1341,-5.1352,-5.146,-5.2081,-5.2312,-5.2312,0.0,0.0,0.0,0.0,0.0,0.0,0.0,0.0,0.0,0.0,0.0,0.0,0.0,0.0,0.0,0.0,0.0,0.0,-2.251,0.0,0.0,-2.8373,-3.1273,0.0,0.0,0.0,0.0,0.0,0.0,0.0,0.0,0.0,0.0,-3.6798,0.0,-3.387,-3.0585,-2.8327,-2.6027,-2.3804,-2.3301,-2.2994,-2.2891,-2.2483,-2.3129,-2.4079,-2.3103,-2.4047,-2.5655,-2.5119,-2.4665,0.0,0.0,0.0,-1.8872,-1.7073,-1.6698,-1.6888,0.0,0.0,0.0,0.0,0.0,0.0,0.0,0.0,0.0,0.0,0.0,0.0,0.0,0.0,0.0,0.0,0.0,0.0,0.0,0.0,0.0,0.0,0.0,0.0,0.0,0.0,0.0,0.0,0.0,0.0,0.0,0.0,-3.2814,-3.307,-3.3677,0.0,-3.5479,-3.5553,-3.6511,-3.8316,-4.0312,-4.1338,-4.1675,-4.5071,-4.8281,-5.1153,-5.119,-5.1229,-5.1289,-5.1347,-5.1389,-5.1406,-5.1404,-5.1405,-5.1757,-5.4783,-5.5903,-5.5903,0.0,0.0,0.0,0.0,0.0,0.0,0.0,0.0,0.0,0.0,0.0,0.0,0.0,0.0,0.0,-2.2352,-2.1545,-2.1495,-2.2382,-2.5234,-2.7283,-2.8154,-3.0545,-3.1605,0.0,0.0,0.0,0.0,0.0,0.0,0.0,-3.1067,-3.3691,0.0,0.0,0.0,0.0,0.0,-2.5319,-2.3787,-2.1985,-2.2151,-2.3252,-2.1357,-2.2137,-2.3982,-2.1532,-2.136,-2.2296,-2.2064,-2.1629,-2.1075,-2.0234,0.0,0.0,0.0,-1.3622,0.0,0.0,0.0,0.0,0.0,0.0,0.0,0.0,0.0,0.0,0.0,0.0,0.0,0.0,0.0,0.0,0.0,0.0,0.0,0.0,0.0,0.0,0.0,0.0,0.0,0.0,0.0,0.0,0.0,0.0,0.0,0.0,-3.1401,-3.1235,-3.0801,-3.1842,0.0,-3.2985,-3.3147,-3.4305,-3.6513,-3.7672,-3.9203,-4.1123,-4.455,-4.6912,-4.8289,-4.8351,-4.9487,-5.1328,-5.1357,-5.1394,-5.1601,-5.3555,-5.4295,-5.4486,-5.6041,-5.6606,-5.6602,0.0,0.0,0.0,0.0,0.0,0.0,0.0,0.0,0.0,0.0,0.0,0.0,0.0,0.0,0.0,0.0,-2.1245,-2.1061,-2.2173,-2.443,-2.6238,-2.7336,-2.9702,-3.0651,-3.0011,0.0,0.0,0.0,0.0,0.0,-2.9021,-2.9139,-3.2626,0.0,-3.6788,-3.4562,0.0,0.0,0.0,-2.4688,-2.2237,-2.2431,-2.3992,-2.2216,-2.3045,-2.4757,-2.144,-2.032,-2.0364,-1.9708,-1.9052,-1.8343,-1.7778,-1.6492,0.0,0.0,0.0,0.0,0.0,0.0,0.0,0.0,0.0,0.0,0.0,0.0,0.0,0.0,0.0,0.0,0.0,0.0,0.0,0.0,0.0,0.0,0.0,0.0,0.0,0.0,0.0,0.0,0.0,0.0,0.0,0.0,0.0,0.0,-2.9399,-2.957,-2.9485,-2.8924,-2.9803,-3.0552,-3.1041,-3.18,-3.2949,-3.4554,-3.5509,-3.7762,-4.1236,-4.467,-4.6154,-4.6007,-4.6146,-4.7657,-5.008,-5.099,-5.1929,-5.2967,-5.5584,-5.66,-5.6591,-5.6582,-5.6587,-5.6575,0.0,0.0,0.0,0.0,0.0,0.0,0.0,0.0,0.0,0.0,0.0,0.0,-2.5821,-2.5156,-2.3904,-2.1886,-2.1545,-2.1454,-2.147,-2.3885,-2.5245,-2.4963,-2.8777,0.0,-2.8058,0.0,0.0,0.0,0.0,0.0,-2.899,-2.8657,-3.1762,-3.7507,-3.7901,-3.5296,-3.0713,0.0,0.0,0.0,0.0,0.0,0.0,0.0,0.0,0.0,0.0,-2.1754,-2.1291,-1.8474,-1.7177,-1.6692,-1.6318,-1.5086,-1.3387,0.0,0.0,0.0,0.0,0.0,0.0,0.0,0.0,0.0,0.0,0.0,0.0,0.0,0.0,0.0,0.0,0.0,0.0,0.0,0.0,0.0,0.0,0.0,0.0,0.0,0.0,0.0,0.0,0.0,0.0,0.0,0.0,0.0,-2.7554,-2.6709,-2.6723,-2.7735,-2.7538,-2.8185,-2.9781,-3.2061,-3.2876,-3.2212,-3.4652,-3.7698,-4.1328,-4.475,-4.6203,-4.6007,-4.6146,-4.6293,-4.6722,-4.9964,-5.328,-5.6337,-5.6532,-5.6591,-5.6601,-5.653,-5.6511,-5.6503,0.0,0.0,0.0,0.0,0.0,0.0,0.0,0.0,0.0,0.0,0.0,0.0,0.0,-2.3969,-2.2847,-2.1327,-2.1053,-2.1098,-2.1371,-2.3483,-2.4979,-2.5532,-2.8617,-2.9926,-2.9092,0.0,0.0,0.0,0.0,-2.2571,-2.502,-2.553,-2.7258,-3.0063,-3.4526,-3.4852,-3.2047,-2.9987,0.0,0.0,0.0,0.0,0.0,0.0,0.0,0.0,0.0,0.0,0.0,0.0,0.0,-1.7333,-1.6757,-1.5198,-1.2937,-0.9659,-0.8856,0.0,0.0,0.0,0.0,0.0,0.0,0.0,0.0,0.0,0.0,0.0,0.0,0.0,0.0,0.0,0.0,0.0,0.0,0.0,0.0,0.0,0.0,0.0,0.0,0.0,0.0,0.0,0.0,0.0,0.0,0.0,-2.4537,-2.5,-2.5208,-2.4964,-2.6167,-2.7754,-2.9735,-3.1436,-3.2487,-3.2905,-3.4831,-3.7637,-4.1328,-4.4753,-4.6209,-4.5997,-4.5964,-4.5905,-4.6112,-4.9726,-5.1989,-5.3351,-5.557,-5.7806,-5.9489,-5.708,-5.6185,-5.6185,0.0,0.0,0.0,0.0,0.0,0.0,0.0,0.0,0.0,-2.3546,0.0,0.0,0.0,0.0,-2.3005,-2.1929,-2.1639,-2.1697,-2.2068,-2.3661,-2.4837,-2.5411,-2.8155,-2.9456,-2.8996,0.0,0.0,0.0,0.0,0.0,0.0,-2.3406,-2.4566,-2.601,-3.0271,-3.1976,0.0,0.0,0.0,-2.6258,0.0,0.0,-2.8656,0.0,0.0,0.0,0.0,0.0,0.0,0.0,0.0,0.0,-1.8044,-1.5435,-1.2185,-0.8715,-0.8528,0.0,-0.9234,0.0,0.0,0.0,0.0,0.0,0.0,0.0,0.0,0.0,0.0,0.0,0.0,0.0,0.0,0.0,0.0,0.0,0.0,0.0,0.0,0.0,0.0,0.0,0.0,0.0,0.0,0.0,0.0,0.0,-2.2681,-2.35,-2.4144,-2.4438,-2.64,-2.8314,-3.0124,-3.1515,-3.2766,-3.3958,-3.5121,-3.7396,-4.0659,-4.3312,-4.5059,-4.5929,-4.5742,-4.5582,-4.5783,-4.9418,-5.1548,-5.284,-5.5249,-5.7638,-5.9413,-5.6859,-5.5866,-5.5614,0.0,0.0,0.0,0.0,0.0,0.0,0.0,0.0,-2.3165,-2.4372,0.0,0.0,0.0,0.0,0.0,-2.3786,-2.3373,-2.3258,-2.3493,-2.4384,-2.4705,-2.4334,-2.7288,-2.8533,-2.7642,0.0,0.0,0.0,0.0,0.0,0.0,0.0,-2.3944,-2.5953,-2.564,-2.6674,-2.87,0.0,-2.9347,-2.8383,0.0,-2.8137,-2.9714,0.0,0.0,0.0,-3.1756,-3.0011,0.0,-2.5574,0.0,0.0,0.0,0.0,-1.1136,-0.9175,-0.909,0.0,0.0,0.0,0.0,0.0,0.0,0.0,0.0,0.0,0.0,0.0,0.0,0.0,0.0,0.0,0.0,0.0,0.0,0.0,0.0,0.0,0.0,0.0,0.0,0.0,0.0,0.0,0.0,0.0,0.0,-2.1233,-2.2018,-2.2117,-2.3483,-2.6387,-2.82,-2.9719,-3.0957,-3.2413,-3.3785,-3.5047,-3.5483,-3.6936,-3.9282,-4.0546,-4.2773,-4.5631,-4.54,-4.5316,-4.5545,-4.8907,-5.2245,-5.5301,-5.5692,-5.5879,-5.5977,-5.5766,-5.5523,-5.488,0.0,0.0,0.0,0.0,0.0,0.0,0.0,0.0,-2.4995,0.0,0.0,0.0,-2.4403,-2.4069,-2.4105,-2.4593,-2.4489,-2.4209,-2.3814,-2.4171,-2.4411,-2.451,-2.6477,-2.7583,-2.7655,0.0,0.0,0.0,0.0,0.0,0.0,0.0,0.0,0.0,-2.2798,-2.3111,-2.3245,-2.3863,0.0,0.0,-2.4582,-2.6977,0.0,0.0,0.0,0.0,0.0,-3.2621,-3.0416,0.0,-2.8424,-2.5043,0.0,0.0,0.0,0.0,0.0,0.0,-0.9983,0.0,0.0,0.0,0.0,0.0,0.0,0.0,0.0,0.0,0.0,0.0,0.0,0.0,0.0,0.0,0.0,0.0,0.0,0.0,0.0,0.0,0.0,0.0,0.0,0.0,0.0,0.0,0.0,-1.8663,-1.9078,-2.0755,-2.3119,-2.6189,-2.817,-3.0306,-3.2766,-3.4204,-3.5254,-3.5963,-3.7511,-3.819,-3.8151,-4.0189,-4.151,-4.2305,-4.4384,-4.5192,-4.5276,-4.8644,-5.0582,-5.1444,-5.1752,-5.3398,-5.5538,-5.5248,-5.5085,-5.4457,0.0,0.0,0.0,0.0,0.0,0.0,0.0,-2.6857,-2.6438,0.0,0.0,0.0,-2.5577,-2.6122,-2.6637,-2.6841,-2.6436,-2.583,-2.4978,-2.4812,-2.4447,-2.3783,-2.5067,-2.6072,-2.6589,0.0,0.0,0.0,0.0,0.0,0.0,0.0,0.0,0.0,0.0,0.0,0.0,0.0,0.0,0.0,-2.4376,0.0,0.0,-3.1802,-3.3093,0.0,0.0,0.0,-3.2202,-3.2658,-3.0049,0.0,0.0,0.0,0.0,0.0,0.0,0.0,-1.3011,0.0,0.0,0.0,0.0,0.0,0.0,-1.7813,0.0,0.0,0.0,0.0,0.0,0.0,0.0,0.0,0.0,0.0,0.0,0.0,0.0,0.0,0.0,0.0,0.0,0.0,0.0,0.0,-1.6556,-1.7296,-1.8876,-2.1495,-2.4202,-2.6971,-2.9031,-3.1345,-3.4045,-3.4748,-3.569,-3.684,-3.7833,-3.8336,-3.8483,-3.9513,-4.0333,-4.1062,-4.4016,-4.5148,-4.5066,-4.6999,-4.8628,-4.9906,-5.0063,-5.1358,-5.321,-5.43,-5.3361,-5.1195,0.0,0.0,0.0,0.0,0.0,0.0,0.0,0.0,-2.7989,0.0,-2.7919,-2.7921,-2.8726,-2.9997,-3.0598,-3.0053,-2.8904,-2.7774,-2.6806,-2.5948,-2.4647,-2.2736,-2.3533,-2.4312,-2.4828,0.0,0.0,0.0,0.0,0.0,0.0,0.0,0.0,0.0,0.0,0.0,0.0,0.0,0.0,-2.1,-2.5072,-2.7428,0.0,0.0,-3.4412,0.0,-3.51,-3.4775,-3.3577,-3.2959,-3.0097,0.0,0.0,0.0,0.0,0.0,-1.7965,0.0,0.0,-1.7616,-1.903,0.0,0.0,0.0,-2.0283,-1.9781,-1.9509,0.0,0.0,0.0,0.0,0.0,0.0,0.0,0.0,0.0,0.0,0.0,0.0,0.0,0.0,0.0,0.0,0.0,0.0,-1.4577,-1.5098,-1.6865,-2.0072,-2.2998,-2.5715,-2.8115,-3.0132,-3.2322,-3.4832,-3.4649,-3.556,-3.7583,-3.7307,-3.8064,-3.9734,-3.9078,-3.9683,-4.1441,-4.419,-4.5426,-4.5542,-4.5469,-4.6999,-4.9386,-4.9728,-4.9879,-5.0231,-5.2887,-5.0968,-4.6998,-2.9338,0.0,0.0,0.0,0.0,0.0,0.0,0.0,-3.0815,-3.0671,-3.0485,-3.1088,-3.296,-3.2362,-3.2407,-3.3815,-3.1176,-2.9295,-2.8844,-2.6645,-2.4673,-2.3007,-2.3374,-2.3513,-2.3303,-2.4505,0.0,0.0,0.0,0.0,0.0,0.0,0.0,0.0,0.0,0.0,0.0,0.0,0.0,-1.8534,-2.0636,0.0,-3.0228,-3.1415,-3.2944,-3.4495,-3.4868,-3.4487,-3.3553,0.0,-3.0893,-2.9205,0.0,0.0,0.0,0.0,0.0,0.0,0.0,0.0,0.0,0.0,0.0,0.0,-2.0002,-1.9738,-1.9891,0.0,0.0,0.0,0.0,0.0,0.0,0.0,0.0,0.0,0.0,0.0,0.0,0.0,0.0,0.0,0.0,0.0,-1.2469,-1.2351,-1.4326,-1.6693,-1.928,-2.1535,-2.4246,-2.7496,-2.9211,-3.1533,-3.4461,-3.5018,-3.6061,-3.7618,-3.845,-3.949,-4.0727,-4.0647,-4.1523,-4.3201,-4.4925,-4.7157,-4.9524,-4.9099,-4.7719,-4.6127,-4.8856,-4.9879,-4.9966,-5.0327,-4.9232,-4.7486,-2.9204,0.0,0.0,0.0,0.0,0.0,0.0,0.0,0.0,-3.2407,-3.3084,-3.3879,-3.4569,-3.4668,-3.4835,-3.54,-3.3525,-3.1674,-3.0195,-2.8049,-2.5886,-2.3686,-2.2892,-2.2485,-2.2504,-2.3516,0.0,0.0,0.0,0.0,0.0,0.0,0.0,0.0,0.0,0.0,0.0,0.0,-1.6807,-1.8352,-2.1989,0.0,-2.9686,-3.1993,-3.3563,-3.4438,-3.4506,-3.3815,-3.2766,-3.1721,-3.0907,0.0,0.0,-2.7434,-2.7114,0.0,-2.5029,-2.5623,0.0,0.0,0.0,-2.4494,0.0,0.0,0.0,-2.2122,-2.1787,0.0,0.0,0.0,0.0,0.0,0.0,0.0,0.0,0.0,0.0,0.0,0.0,0.0,0.0,0.0,0.0,0.0,-1.1039,-1.11,-1.364,-1.6241,-1.8772,-2.1136,-2.3935,-2.7257,-2.903,-3.1218,-3.3988,-3.4907,-3.6085,-3.7471,-3.9182,-4.0343,-4.1006,-4.2802,-4.3631,-4.3829,-4.6973,-4.9225,-5.0663,-4.9959,-4.8209,-4.6133,-4.8078,-4.7707,-4.6345,-4.8224,-4.7717,-4.6191,-2.8746,0.0,0.0,0.0,0.0,0.0,0.0,0.0,0.0,-3.3728,-3.5256,-3.624,-3.6173,-3.7386,-3.8063,-3.7851,-3.663,-3.4845,-3.2517,-3.0335,-2.8077,-2.562,-2.3526,-2.2609,-2.297,-2.3264,-2.3588,0.0,0.0,0.0,0.0,0.0,0.0,0.0,0.0,0.0,0.0,0.0,0.0,-2.0287,0.0,-2.712,-2.7803,-3.2202,-3.369,-3.3429,-3.3659,-3.3023,-3.195,-3.1221,0.0,-2.9979,-2.8474,-2.8849,0.0,0.0,0.0,0.0,0.0,0.0,0.0,0.0,0.0,-2.6381,0.0,0.0,0.0,-2.4006,0.0,0.0,0.0,0.0,0.0,0.0,0.0,0.0,0.0,0.0,0.0,0.0,0.0,0.0,0.0,0.0,-0.9551,-1.0172,-1.2601,-1.5216,-1.7869,-2.0593,-2.3436,-2.6513,-2.8516,-3.0653,-3.2997,-3.4438,-3.5946,-3.7564,-3.9653,-4.107,-4.1996,-4.4894,-4.5623,-4.4959,-4.9804,-5.1794,-5.1561,-5.0752,-4.9529,-4.8138,-4.7738,-4.5731,-4.3507,-4.6364,-4.6374,-4.5026,-2.7722,-2.7396,0.0,0.0,0.0,0.0,0.0,0.0,0.0,0.0,-3.6087,0.0,0.0,0.0,0.0,-4.4613,0.0,0.0,-3.8135,0.0,-3.1534,-3.0359,-2.7364,-2.5818,-2.6163,-2.5273,-2.4498,0.0,0.0,0.0,0.0,0.0,0.0,0.0,-1.703,0.0,0.0,0.0,-2.0867,0.0,-2.6668,-2.6085,0.0,-2.908,-3.0519,-3.0528,-3.2098,-3.225,-3.1665,0.0,-3.0646,-3.0335,0.0,-2.9514,0.0,0.0,0.0,0.0,0.0,0.0,0.0,0.0,-2.8976,0.0,0.0,0.0,-2.5075,-2.2697,0.0,0.0,0.0,0.0,0.0,0.0,0.0,0.0,0.0,0.0,0.0,0.0,0.0,0.0,0.0,0.0,0.0,-0.9094,-1.0826,-1.3071,-1.5772,-1.8602,-2.1298,-2.3921,-2.6526,-2.8862,-3.0905,-3.3358,-3.5873,-3.8363,-3.9769,-4.2222,-4.5527,-4.6009,-4.6953,-4.8475,-5.33,-5.5209,-5.483,-5.4138,-5.3312,-5.2133,-4.8479,-4.6656,-4.5999,-4.4834,-4.5082,-4.5993,-2.7002,-2.6854,0.0,0.0,0.0,0.0,0.0,0.0,0.0,0.0,0.0,0.0,0.0,0.0,0.0,0.0,0.0,-4.2228,0.0,0.0,-3.453,-3.2674,0.0,0.0,-2.7299,-2.6033,-2.5048,-2.4458,-2.3239,0.0,0.0,0.0,0.0,0.0,-1.8585,0.0,-2.1875,0.0,0.0,0.0,0.0,0.0,0.0,-3.0392,-3.2247,-3.1613,-3.2414,-3.2285,-3.1792,0.0,-3.1001,0.0,0.0,0.0,0.0,0.0,0.0,0.0,0.0,0.0,0.0,0.0,0.0,0.0,0.0,0.0,-2.5089,0.0,0.0,0.0,0.0,0.0,0.0,0.0,0.0,0.0,0.0,0.0,0.0,0.0,0.0,0.0,0.0,0.0,0.0,0.0,0.0,-1.1397,-1.3498,-1.6303,-1.9163,-2.2136,-2.4322,-2.6767,-2.9551,-3.2603,-3.522,-3.7392,-4.0377,-4.3036,-4.5396,-4.6666,-4.7773,-4.8928,-5.1998,-5.3894,-5.4912,-5.5995,-5.4846,-5.2149,-5.0097,-4.7985,-4.6147,-4.6122,-4.5549,-4.4768,-2.6661,-2.6721,0.0,0.0,0.0,0.0,0.0,0.0,0.0,0.0,0.0,0.0,-4.3025,-4.3745,0.0,0.0,-4.7358,-4.5474,0.0,0.0,-3.7863,0.0,0.0,0.0,0.0,0.0,-2.6277,-2.5511,0.0,0.0,0.0,0.0,0.0,0.0,0.0,-2.1628,-2.4799,0.0,0.0,-2.4805,-2.5382,-2.5813,-2.6647,-3.147,-3.3246,-3.3097,-3.3187,-3.3104,-3.2846,-3.2496,-3.2136,0.0,-3.265,0.0,0.0,0.0,0.0,0.0,-2.9877,0.0,0.0,0.0,0.0,0.0,0.0,0.0,0.0,0.0,0.0,0.0,0.0,0.0,0.0,0.0,0.0,0.0,0.0,0.0,0.0,0.0,0.0,0.0,0.0,0.0,0.0,0.0,-0.7043,0.0,-1.1261,-1.3976,-1.6833,-1.9812,-2.2214,-2.5087,-2.8443,-3.2054,-3.5072,-3.7491,-4.107,-4.3846,-4.5855,-4.7654,-4.9046,-5.0108,-5.132,-5.3282,-5.5696,-5.7184,-5.5897,-5.2905,-5.2192,-4.9716,-4.6707,-4.7062,-4.5717,-4.3683,-2.6741,-2.687,0.0,0.0,0.0,0.0,0.0,0.0,0.0,0.0,0.0,0.0,0.0,0.0,0.0,0.0,0.0,-4.957,-4.7134,0.0,-4.1952,0.0,0.0,-3.5182,0.0,0.0,0.0,0.0,0.0,0.0,0.0,0.0,0.0,0.0,0.0,-2.3255,-2.5714,-2.4987,-2.7275,-3.1441,-3.0421,-3.1681,-3.3913,0.0,-3.1541,-3.3872,-3.4161,0.0,0.0,-3.4255,-3.4037,0.0,0.0,0.0,0.0,0.0,0.0,0.0,0.0,0.0,0.0,-2.8118,0.0,0.0,0.0,0.0,-2.8118,0.0,0.0,0.0,0.0,0.0,-2.5089,-2.5596,0.0,0.0,0.0,0.0,0.0,0.0,0.0,0.0,0.0,0.0,0.0,0.0,-0.5706,0.0,-0.9033,-1.1628,-1.4164,-1.6471,-2.0351,-2.4083,-2.7608,-3.1754,-3.5818,-3.9821,-4.1837,-4.4773,-4.8428,-4.9245,-5.1016,-5.343,-5.3086,-5.5095,-5.8508,-5.7594,-5.6845,-5.613,-5.4878,-5.2124,-4.8633,-4.6619,-4.4878,-4.3488,0.0,0.0,0.0,0.0,0.0,0.0,0.0,-3.3025,0.0,0.0,0.0,0.0,0.0,0.0,-4.9699,0.0,0.0,-5.0133,-4.77,-4.5779,0.0,0.0,0.0,-3.8671,0.0,0.0,0.0,0.0,0.0,0.0,0.0,0.0,0.0,0.0,0.0,-2.417,0.0,0.0,0.0,0.0,0.0,-3.2018,-3.458,0.0,0.0,-3.4805,-3.4917,-3.5192,0.0,-3.5771,-3.502,-3.427,-3.5321,-3.4451,-3.3242,-3.4188,-3.4219,0.0,0.0,0.0,-3.4955,-3.0481,0.0,0.0,0.0,0.0,0.0,0.0,0.0,0.0,0.0,0.0,-2.6131,-2.5879,-2.5459,-2.4147,0.0,0.0,0.0,0.0,0.0,0.0,0.0,0.0,0.0,-0.1834,-0.3551,-0.5476,0.0,-0.967,-1.2505,-1.5077,-1.8887,-2.3011,-2.7279,-3.1827,-3.584,-3.9214,-4.2766,-4.5327,-4.697,-4.833,-5.0104,-5.2134,-5.3398,-5.5751,-5.8614,-5.7631,-5.6881,-5.6542,-5.7719,-5.5632,-5.1688,-4.8941,-4.6522,-4.4358,-2.8706,0.0,0.0,0.0,0.0,0.0,0.0,0.0,0.0,0.0,-4.0916,0.0,-4.7389,0.0,-4.9356,0.0,-5.1752,-5.0317,-4.8327,-4.7284,0.0,-4.6052,-4.3341,0.0,0.0,0.0,0.0,0.0,0.0,-2.897,0.0,0.0,0.0,0.0,0.0,0.0,0.0,0.0,-2.794,0.0,0.0,-3.3067,0.0,0.0,-3.5305,0.0,0.0,-3.6402,-3.6713,-3.7194,-3.6567,-3.58,-3.7196,-3.6393,-3.513,-3.6055,-3.6045,-3.5547,-3.4684,-3.5871,0.0,0.0,-3.1541,0.0,-2.742,0.0,0.0,0.0,0.0,0.0,0.0,0.0,-2.7485,-2.6806,-2.5925,-2.4233,0.0,-1.9465,0.0,0.0,0.0,0.0,0.0,0.0,-0.9982,-0.2382,-0.4722,-0.6122,0.0,0.0,-1.2008,-1.4089,-1.8286,-2.3059,-2.8359,-3.3104,-3.7301,-4.082,-4.4288,-4.6403,-4.7335,-4.8767,-5.0043,-5.1292,-5.3697,-5.614,-5.84,-5.7534,-5.6881,-5.6649,-5.8843,-5.7185,-5.318,-5.0391,-4.7531,-4.4802,0.0,0.0,0.0,0.0,-3.0446,0.0,0.0,0.0,-3.8193,0.0,-3.9697,-4.2578,-4.462,-4.5972,-4.8055,-5.1591,-5.1217,0.0,-4.925,-4.83,0.0,0.0,-4.5282,-4.3904,-4.4102,0.0,0.0,0.0,0.0,0.0,0.0,0.0,0.0,0.0,-2.5844,0.0,-2.6805,-2.7732,-2.959,-3.2038,-3.394,-3.4895,-3.5274,-3.625,0.0,-3.6924,-3.7571,-3.798,-3.8304,-3.8512,-3.8421,-3.8304,-3.8459,-3.8729,-3.8801,-3.8324,-3.8596,-3.864,-3.6552,-3.646,-3.6164,-3.3276,0.0,0.0,0.0,0.0,-3.2138,0.0,0.0,0.0,0.0,0.0,0.0,-2.8254,-2.668,-2.4352,-2.0732,0.0,0.0,0.0,0.0,0.0,0.0,-1.0083,-0.8706,-0.5815,-0.9287,0.0,0.0,0.0,0.0,-1.3815,-1.8762,-2.4446,-3.0798,-3.5617,-4.0227,-4.4651,-4.6397,-4.7991,-4.9412,-5.05,-5.1029,-5.125,-5.4288,-5.6497,-5.795,-5.7388,-5.6881,-5.6558,-5.8094,-5.6509,-5.3041,-5.0647,-4.7808,-4.4837,-2.9348,-3.0338,-3.1423,0.0,-3.1366,-3.181,0.0,0.0,0.0,0.0,-4.3949,-4.6871,-4.9615,-5.0216,-5.0758,-5.1697,-5.1175,0.0,0.0,0.0,0.0,-4.9775,-4.7158,-4.5983,-4.6338,-4.2444,0.0,-3.8517,0.0,0.0,-3.2046,0.0,0.0,0.0,0.0,0.0,-2.6106,-2.6946,-2.9363,-3.2773,-3.3592,-3.4875,0.0,0.0,-3.8002,-3.8292,-3.8428,-3.86,-3.8729,-3.8819,-3.8666,-3.8432,-3.8247,-3.847,-3.889,-3.8586,-3.8742,-3.8974,-3.8839,-3.8639,-3.8122,-3.6493,-3.5395,-3.4096,0.0,0.0,0.0,0.0,0.0,0.0,0.0,0.0,0.0,-2.8482,-2.6651,-2.4653,0.0,0.0,0.0,0.0,0.0,0.0,0.0,0.0,-1.5532,-1.2523,-1.5915,0.0,0.0,0.0,0.0,-1.7139,-2.2494,-2.8263,-3.4426,-3.9823,-4.4328,-4.7839,-4.9856,-5.0115,-4.8973,-5.1513,-5.2969,-5.3648,-5.6584,-5.7921,-5.795,-5.7388,-5.6881,-5.6233,-5.47,-5.2897,-5.0951,-4.947,-4.7392,-4.5248,-3.0393,0.0,0.0,-3.3223,0.0,0.0,-3.6924,0.0,0.0,-4.3573,-4.7473,0.0,-5.0906,-5.1738,-5.2071,-5.1821,-5.1266,0.0,0.0,0.0,0.0,-5.0023,-4.8026,-4.6941,-4.7229,-4.3959,0.0,-3.9508,0.0,0.0,-3.1323,0.0,0.0,0.0,0.0,-2.4412,0.0,-2.7616,-3.0133,-3.2836,-3.4116,0.0,0.0,-3.7841,-3.8228,-3.8171,-3.853,-3.8733,-3.8908,-3.9203,-3.8952,-3.8505,-3.8505,-3.8683,-3.8855,-3.878,-3.9006,-3.9422,-3.9615,-3.9406,-3.8989,-3.8351,-3.7433,-3.6184,-3.4356,-3.4569,-3.4668,0.0,0.0,0.0,0.0,0.0,0.0,0.0,0.0,0.0,0.0,0.0,0.0,0.0,0.0,0.0,0.0,0.0,0.0,0.0,0.0,0.0,0.0,0.0,0.0,-2.0002,-2.581,-3.1745,-3.7704,-4.3436,-4.7669,-5.0376,-5.2255,-5.2333,-5.0894,-5.1901,-5.3836,-5.637,-5.7756,-5.8133,-5.7631,-5.7338,-5.6724,-5.5671,-5.2561,-5.1166,-5.0708,-4.9089,-4.7548,-4.618,0.0,0.0,0.0,0.0,0.0,0.0,0.0,-4.182,0.0,-4.4203,0.0,-5.2402,-5.0022,-5.159,-5.2487,-5.1779,0.0,-5.1042,-5.0481,-5.0184,-4.9827,-4.9565,-4.8185,-4.743,-4.743,-4.501,0.0,0.0,0.0,0.0,0.0,0.0,0.0,0.0,0.0,0.0,0.0,-2.8892,-3.1334,0.0,-3.5073,-3.6246,-3.6816,-3.8086,-3.817,-3.7564,-3.8337,-3.8748,-3.8979,-3.9475,-3.9175,-3.8678,-3.9029,-3.9089,-3.8917,-3.883,-3.9178,-3.9607,-3.9533,-3.9283,-3.9102,-3.9189,-3.8772,-3.7841,-3.6424,-3.6312,-3.623,-3.5038,-3.464,0.0,0.0,0.0,0.0,0.0,0.0,0.0,0.0,0.0,0.0,0.0,0.0,0.0,0.0,0.0,0.0,0.0,0.0,0.0,0.0,0.0,0.0,0.0,-2.8797,0.0,-4.0811,0.0,-5.0433,-5.2578,-5.4017,-5.4373,-5.3817,-5.2408,-5.4058,-5.7979,-5.7949,-5.7583,-5.7087,-5.7087,-5.6347,-5.4896,-5.141,-5.0644,-5.1247,-4.9337,-4.8039,-4.7242,0.0,0.0,0.0,0.0,0.0,-3.9011,-4.1477,-4.2665,-4.2596,-4.0672,-4.7223,0.0,-4.8666,-5.1423,-5.2885,-5.1741,-5.1626,0.0,0.0,0.0,0.0,-4.9565,-4.8291,-4.7777,-4.8094,-4.5299,-4.2694,0.0,0.0,0.0,0.0,0.0,0.0,0.0,0.0,0.0,-2.7485,-2.9457,0.0,-3.4766,-3.5515,-3.6754,-3.8198,-3.8858,-3.8858,-3.8583,-3.8858,-3.9061,-3.9078,-3.9164,-3.9498,-3.9895,-3.9311,-3.9448,-3.9725,-3.8996,-3.8917,-3.9032,-3.9419,-3.8966,-3.8568,-3.9273,-3.8923,-3.8339,-3.8091,-3.7944,-3.7676,-3.6912,-3.6874,-3.6693,-3.5545,0.0,0.0,0.0,0.0,0.0,0.0,0.0,0.0,0.0,0.0,0.0,0.0,0.0,0.0,0.0,0.0,0.0,0.0,0.0,0.0,0.0,0.0,0.0,0.0,0.0,0.0,-5.5072,-5.5475,-5.5509,-5.5249,-5.5017,-5.4666,-5.4265,-5.6405,-5.7036,-5.6546,-5.6546,-5.5496,-5.3651,-5.1696,-5.0775,-5.0532,-5.0704,-4.9543,-4.7722,0.0,0.0,0.0,0.0,0.0,0.0,0.0,-4.4705,0.0,-4.4894,-4.7785,-4.9426,-4.8246,-5.0198,-5.1265,-5.0656,-5.1075,-5.1204,-5.0824,-5.036,-4.9868,-4.9246,-4.8144,0.0,-4.726,-4.508,-4.2747,-4.0379,0.0,0.0,0.0,0.0,0.0,0.0,0.0,-2.6155,0.0,0.0,0.0,-3.5412,-3.685,-3.777,-3.8383,-3.8965,-3.879,-3.8195,-3.8274,-3.8512,-3.8889,-3.9397,-3.9648,-3.9675,-3.952,-3.9482,-3.9361,-3.8698,-3.8485,-3.863,-3.9217,-3.8775,-3.8423,-3.9396,-3.8998,-3.8339,-3.8311,-3.8341,-3.8115,-3.7422,-3.7519,-3.712,-3.5049,-3.3311,0.0,0.0,0.0,0.0,0.0,0.0,0.0,0.0,0.0,0.0,0.0,0.0,0.0,0.0,0.0,0.0,0.0,0.0,0.0,0.0,0.0,0.0,0.0,0.0,0.0,-5.4814,-5.5148,-5.5331,-5.5384,-5.4905,-5.4801,-5.4918,-5.5919,-5.5957,-5.5378,-5.5018,-5.4333,-5.3348,-5.1729,-5.0542,-4.9687,-4.9815,-4.9687,-4.9249,0.0,-3.8608,0.0,0.0,-4.051,0.0,0.0,-4.6651,-4.7768,-4.9337,-4.8686,-4.8235,-4.8409,-4.9375,-4.996,-4.9669,-5.0075,-5.0414,-5.072,-5.0007,-4.9263,-4.8612,-4.7684,-4.6823,-4.6311,-4.4955,-4.281,0.0,0.0,0.0,0.0,0.0,0.0,0.0,0.0,0.0,0.0,0.0,-3.488,-3.6335,-3.8234,-3.8629,-3.836,-3.8871,-3.8517,-3.7701,-3.7701,-3.8093,-3.8667,-3.9653,-3.9715,-3.9373,-3.9657,-3.944,-3.8967,-3.8556,-3.8352,-3.8393,-3.8841,-3.8609,-3.8468,-3.9295,-3.8881,-3.8251,-3.8144,-3.8354,-3.8296,-3.7288,-3.7416,-3.6978,-3.4748,-3.3751,0.0,0.0,0.0,0.0,0.0,0.0,0.0,0.0,0.0,0.0,0.0,0.0,0.0,0.0,0.0,0.0,0.0,0.0,0.0,0.0,0.0,0.0,-4.3623,0.0,-5.1509,0.0,-5.385,-5.4305,-5.44,-5.3793,-5.42,-5.5365,-5.5308,-5.4904,-5.4274,-5.3685,-5.328,-5.2834,-5.1466,-4.9725,-4.8098,-4.8711,-4.948,-4.9996,0.0,0.0,0.0,0.0,0.0,0.0,0.0,-4.7338,-4.9165,-4.8443,-4.8173,-4.8509,-4.9473,-5.0442,-5.0728,-4.9766,-4.8682,-4.8403,-4.935,-4.8852,-4.8267,-4.7403,-4.7063,-4.6528,-4.5845,-4.5122,-4.323,0.0,0.0,0.0,0.0,0.0,0.0,0.0,0.0,0.0,0.0,-3.4797,-3.6665,-3.8875,-3.9102,-3.8899,-3.8489,-3.8753,-3.8428,-3.7929,-3.8052,-3.8335,-3.8631,-3.9332,-3.979,-3.9952,-3.9605,-3.9601,-3.9606,-3.9151,-3.887,-3.8649,-3.8364,-3.841,-3.853,-3.8589,-3.8559,-3.8429,-3.8144,-3.847,-3.837,-3.695,-3.678,-3.6315,-3.4816,-3.4706,-3.3489,0.0,0.0,0.0,0.0,0.0,0.0,0.0,0.0,0.0,0.0,0.0,0.0,0.0,0.0,0.0,0.0,0.0,0.0,0.0,0.0,-3.9084,-4.0162,-4.5881,0.0,-4.9956,-5.164,-5.2289,-5.1948,-5.2417,-5.2437,-5.2228,-5.3893,-5.4175,-5.3551,-5.3518,-5.2694,-5.1317,-5.0402,-4.7934,-4.5356,-4.864,-4.9353,-4.8538,0.0,0.0,0.0,0.0,0.0,0.0,0.0,-4.6828,-4.8395,-4.8977,-4.9108,-4.9178,-4.9669,-5.0057,-5.0154,-4.9766,-4.8508,-4.7666,-4.7247,-4.775,-4.7681,-4.6841,-4.6571,-4.6067,-4.5302,-4.4611,-4.3178,0.0,0.0,0.0,0.0,0.0,0.0,0.0,0.0,-3.3747,-3.5366,-3.6888,-3.7947,-3.8649,-3.9207,-3.911,-3.8695,-3.89,-3.8754,-3.8427,-3.8501,-3.8649,-3.8679,-3.8898,-3.9349,-3.9924,-3.9736,-3.9459,-3.915,-3.8959,-3.8604,-3.8223,-3.8458,-3.8501,-3.8604,-3.8797,-3.8679,-3.8502,-3.8501,-3.8686,-3.8588,-3.7216,-3.6664,-3.6118,-3.5058,-3.4465,-3.3516,0.0,0.0,0.0,0.0,0.0,0.0,0.0,0.0,0.0,0.0,0.0,0.0,0.0,0.0,0.0,0.0,0.0,0.0,-2.4083,0.0,-3.6612,-3.8074,-4.2909,-4.5951,-4.7116,-4.7471,-4.8163,-4.9074,-4.9264,-4.9621,-5.0195,-5.2326,-5.2834,-5.2125,-5.2125,-5.1135,-4.9425,-4.745,-4.5526,-4.4001,-4.5379,-4.6015,-4.626,-4.3357,0.0,-4.2621,0.0,-4.3084,-4.2534,-4.5072,-4.6491,-4.7703,-4.8899,-4.904,-4.9143,-4.9679,-4.9669,-4.9475,-4.9004,-4.8354,-4.7532,-4.633,-4.7027,-4.7211,-4.6452,-4.6244,0.0,-4.4948,-4.428,-4.325,-4.1961,-3.9881,0.0,0.0,0.0,0.0,0.0,-3.4728,-3.5886,-3.6735,-3.8217,-3.8695,-3.841,-3.8974,-3.9011,-3.864,-3.8793,-3.8731,-3.8649,-3.8723,-3.8723,-3.8723,-3.853,-3.878,-3.9194,-3.937,-3.9209,-3.89,-3.887,-3.8618,-3.8352,-3.8752,-3.8723,-3.8649,-3.9017,-3.8797,-3.8546,-3.8642,-3.8931,-3.8852,-3.7789,-3.6968,-3.6155,-3.5531,-3.4576,-3.3488,0.0,0.0,0.0,0.0,0.0,0.0,0.0,0.0,-2.0335,-1.9334,0.0,0.0,0.0,0.0,0.0,0.0,0.0,0.0,0.0,0.0,0.0,0.0,0.0,-4.2795,-4.3885,-4.3845,-4.4526,-4.5845,-4.6462,-4.77,-4.9365,-5.0593,-5.0517,-4.963,-5.0205,-4.9269,-4.725,-4.5078,-4.3395,-4.2192,-4.2192,-4.2546,-4.332,-4.3448,-4.3624,-4.4067,-4.4904,-4.5264,-4.5537,-4.6225,-4.6844,-4.7309,-4.7339,-4.7339,-4.7971,-4.9504,-4.9669,-4.9033,-4.7491,-4.8059,-4.8043,-4.7172,-4.694,-4.6576,0.0,0.0,-4.5795,-4.5138,-4.451,-4.3832,-4.2992,0.0,0.0,-3.7246,0.0,-3.4991,-3.5619,-3.6399,-3.7272,-3.8231,-3.864,-3.8822,-3.8744,-3.8617,-3.84,-3.8202,-3.8202,-3.8202,-3.8202,-3.8427,-3.853,-3.853,-3.853,-3.8121,-3.7711,-3.8325,-3.8826,-3.909,-3.909,-3.9265,-3.9337,-3.9192,-3.8943,-3.887,-3.9017,-3.8943,-3.8766,-3.8471,-3.8931,-3.9192,-3.8575,-3.7457,-3.6448,-3.6053,-3.5277,-3.3632,-3.035,0.0,0.0,0.0,0.0,0.0,0.0,-2.0519,-1.8553,-1.7324,0.0,0.0,0.0,0.0,0.0,0.0,0.0,0.0,-2.2248,-2.8202,0.0,-3.3229,-3.7587,-3.9852,-4.0081,-4.1339,-4.2011,-4.2257,-4.4446,-4.7079,-4.9952,-4.8614,-4.7232,-4.6003,-4.7849,-4.7034,-4.4557,-4.3645,-4.1743,-3.9469,-3.9469,-3.9469,-3.9712,-4.4613,-4.4824,-4.5092,-4.5293,-4.5776,-4.6046,-4.6314,-4.6844,-4.7309,-4.7309,-4.7309,-4.7551,-4.8,-4.8089,-4.7852,0.0,-4.7493,-4.7496,0.0,-4.6755,-4.6342,-4.5547,-4.5518,-4.5138,-4.4296,-4.3835,-4.3484,-4.316,0.0,0.0,0.0,-3.7842,-3.7901,-3.8656,-3.8752,-3.9017,-3.9279,-3.9302,-3.8899,-3.8417,-3.8341,-3.8225,-3.8202,-3.8352,-3.8501,-3.8649,-3.8649,-3.8723,-3.859,-3.793,-3.7565,-3.7288,-3.691,-3.6749,-3.684,-3.7281,-3.7175,-3.7238,-3.834,-3.8478,-3.8495,-3.929,-3.9337,-3.9205,-3.9283,-3.8972,-3.865,-3.8508,-3.7434,-3.6457,-3.6046,-3.5411,-3.4428,-3.2817,0.0,0.0,0.0,0.0,0.0,0.0,0.0,-1.9226,0.0,-1.6555,0.0,0.0,0.0,0.0,0.0,0.0,0.0,0.0,-2.6626,0.0,-3.0465,-3.4741,-3.7057,-3.7366,-3.8525,-4.0955,-4.4428,-4.4355,-4.5501,-4.7457,-4.7861,-4.7437,-4.6538,-4.6033,-4.4716,-4.2879,-4.2555,-4.0575,-3.7624,-3.6399,-3.5966,-3.6277,-4.511,-4.5321,-4.5504,-4.5595,-4.5956,-4.6314,-4.6491,-4.6844,-4.7222,-4.7309,-4.7309,-4.7309,-4.7309,-4.7309,0.0,-4.7309,-4.7309,0.0,-4.6844,-4.6756,-4.6285,-4.5376,-4.5346,-4.4966,-4.4208,0.0,0.0,-4.3608,-4.211,-4.102,-4.0338,-3.9684,-3.9684,-4.0174,-3.9862,-3.9595,-3.9416,-3.9031,-3.8676,-3.8248,-3.7866,-3.7999,-3.8277,-3.8352,-3.8501,-3.8575,-3.8649,-3.8649,-3.8517,-3.7812,-3.7302,-3.6794,-3.6649,-3.6125,-3.5682,-3.6424,-3.6623,-3.6891,-3.8083,-3.843,-3.8627,-3.9505,-3.9553,-3.9409,-3.9553,-3.9152,-3.871,-3.8609,-3.7813,-3.7053,-3.6669,-3.6006,-3.5231,-3.4426,0.0,-3.1371,0.0,0.0,0.0,0.0,0.0,0.0,0.0,-1.7694,0.0,0.0,0.0,0.0,0.0,0.0,0.0,-1.9773,-2.6036,0.0,-3.025,-3.3608,-3.5658,-3.6292,-3.8436,-4.1926,-4.644,-4.6481,-4.6884,-4.7568,-4.8377,-4.8033,-4.6823,-4.5247,-4.3801,-4.2555,-4.2257,-4.0015,-3.6697,-3.4412,-3.3186,-3.2749,-4.5201,-4.5321,0.0,0.0,-4.6135,0.0,-4.6844,-4.6931,-4.7019,-4.7309,-4.7309,-4.7309,-4.7309,-4.7309,-4.7309,-4.7309,0.0,0.0,0.0,-4.6931,-4.6547,-4.5666,-4.5636,0.0,-4.4659,-4.4069,-4.3826,-4.4013,-4.2951,-4.2479,-4.2419,-4.1055,-4.0457,-4.0367,-3.9679,-3.9133,-3.8811,-3.8148,-3.8164,-3.8472,-3.7519,-3.768,-3.8442,-3.8219,-3.8144,-3.8144,-3.831,-3.8294,-3.8173,-3.8086,-3.7155,-3.6245,-3.7186,-3.6616,-3.5601,-3.6424,-3.7181,-3.7967,-3.8322,-3.8698,-3.9175,-3.9595,-3.9553,-3.9409,-3.9409,-3.9469,-3.9324,-3.9003,-3.8589,-3.8189,-3.7714,-3.688,-3.612,-3.5277,-3.3916,-3.2274,-3.0647,0.0,0.0,0.0,0.0,0.0,0.0,-1.9316,-2.0316,0.0,0.0,0.0,0.0,0.0,-1.8958,-2.1374,-2.6426,-3.0117,-3.2268,-3.4312,-3.5799,-3.6863,-4.0727,-4.4493,-4.8214,-5.0307,-5.085,-5.0088,-5.0115,-4.8951,-4.6997,-4.5437,-4.4189,-4.325,-4.2392,-3.9934,-3.6515,-3.3274,-3.0939,-2.9401,0.0,0.0,-4.5985,-4.6314,-4.658,-4.6931,-4.7366,-4.7508,-4.7508,-4.7593,-4.7452,-4.7309,-4.7309,-4.7309,-4.7366,-4.7624,-4.7452,-4.7309,-4.7222,-4.7222,-4.6924,-4.6181,-4.6152,-4.5669,-4.4638,-4.4458,-4.4238,-4.3995,-4.3585,-4.3115,-4.2604,-4.161,-4.095,-4.0558,-3.9242,-3.8859,-3.9205,-3.8263,-3.8207,-3.8694,-3.8281,-3.8091,-3.7987,-3.7915,-3.777,-3.7565,-3.6997,-3.7389,-3.7982,-3.6806,-3.6678,-3.6983,-3.6707,-3.6458,-3.6365,-3.6752,-3.6969,-3.7345,-3.8382,-3.8582,-3.8751,-3.9718,-3.9625,-3.9409,-3.9625,-3.9871,-4.0157,-4.0231,-3.9917,-3.9526,-3.9116,-3.8227,-3.7209,-3.6097,-3.4851,-3.3342,-3.1347,0.0,0.0,0.0,-2.4425,-2.3409,-2.1161,-2.1806,-2.249,0.0,0.0,0.0,0.0,0.0,-2.4111,-2.3096,-2.8344,-3.2456,-3.5115,-3.7932,-3.9588,-4.004,-4.3395,-4.6514,-4.9597,-5.3456,-5.4869,-5.4099,-5.2144,-5.053,-4.9073,-4.7169,-4.511,-4.325,-4.2392,-3.9609,-3.565,-3.2448,-2.9581,-2.7196,-4.6166,-4.6314,-4.6491,-4.6873,-4.7106,-4.7366,-4.7709,-4.7794,-4.788,-4.7964,-4.7709,-4.7654,-4.7739,-4.7654,-4.7709,-4.7849,-4.7624,-4.7482,-4.7482,-4.7482,-4.7096,-4.6352,-4.6107,-4.553,-4.464,-4.4418,-4.4092,-4.3532,-4.3455,-4.3045,-4.2349,-4.1535,-4.1126,-4.0777,-3.9204,-3.8672,-3.8901,-3.7564,-3.7712,-3.8542,-3.7987,-3.7883,-3.8038,-3.7895,-3.7504,-3.6996,-3.6574,-3.7099,-3.7827,-3.691,-3.7056,-3.7565,-3.7549,-3.7487,-3.7452,-3.789,-3.7701,-3.7523,-3.8482,-3.8742,-3.9032,-3.9677,-3.9625,-3.9409,-3.9553,-3.9991,-4.0323,-4.0144,-4.0194,-4.0018,-3.9417,-3.8886,-3.8078,-3.6651,-3.5212,-3.3657,-3.1782,-3.0132,0.0,-2.6529,-2.6473,-2.6063,-2.464,-2.6054,-2.7043,-2.6872,0.0,0.0,-2.6363,-2.8366,-2.8656,-2.6765,-3.2637,-3.7431,-4.0717,-4.2791,-4.3768,-4.3644,-4.5698,-4.8221,-5.1298,-5.4651,-5.6795,-5.7802,-5.545,-5.2889,-5.0263,-4.8576,-4.655,-4.422,-4.1781,-3.8717,-3.5547,-3.4602,-3.2709,-3.018,-4.6756,-4.6844,-4.7019,-4.7396,-4.7568,-4.7794,-4.8049,-4.8049,-4.8049,-4.8248,-4.8049,-4.8049,-4.8248,-4.8049,-4.8049,-4.8049,-4.7794,-4.7679,-4.7503,-4.7503,-4.7117,-4.6286,-4.5853,-4.5384,-4.472,-4.4322,-4.3791,-4.3214,-4.3122,-4.2697,-4.1923,-4.1286,-4.0952,-4.08,-3.9385,-3.8632,-3.8302,-3.6901,-3.702,-3.8112,-3.7257,-3.7456,-3.8093,-3.7742,-3.7134,-3.6453,-3.6365,-3.6863,-3.7565,-3.7448,-3.7709,-3.8191,-3.8868,-3.8805,-3.8549,-3.9188,-3.8805,-3.8288,-3.8752,-3.9174,-3.9481,-3.9625,-3.9553,-3.9439,-3.9559,-3.9994,-4.0353,-3.9806,-4.013,-4.0182,-3.9393,-3.9135,-3.8559,-3.6845,-3.5379,-3.3795,-3.1938,0.0,-2.8709,-2.8144,-2.861,-2.893,-2.8637,-3.0969,-3.238,-3.2113,-3.2383,0.0,0.0,-3.3223,-3.3854,-3.2902,-3.874,-4.3956,-4.8198,-4.8604,-4.8268,-4.7311,-4.7686,-4.955,-5.2839,-5.4706,-5.7397,-6.0525,-5.8665,-5.5194,-5.0819,-4.9649,-4.7869,-4.5507,-4.1085,-3.7866,-3.5825,-3.7529,-3.737,-3.5856,-4.7103,-4.7222,-4.7396,-4.7794,-4.788,-4.8049,-4.8438,-4.8301,-4.8218,-4.8552,-4.8103,-4.7849,-4.8218,-4.8133,-4.8049,-4.8218,-4.8218,-4.789,-4.7122,-4.7092,-4.6758,-4.5979,-4.5858,-4.5657,-4.5178,-4.471,-4.4465,-4.4342,-4.3639,-4.2952,-4.2175,-4.1389,-4.0781,-4.0314,-3.9173,-3.8702,-3.8572,-3.7476,-3.7129,-3.7307,-3.7119,-3.696,-3.6776,-3.6709,-3.6446,-3.5928,-3.5263,-3.6102,-3.7477,-3.6778,-3.7621,-3.8971,-3.906,-3.9103,-3.9218,-3.9379,-3.9421,-3.9474,-3.9758,-3.9849,-3.9839,-3.9481,-3.9409,-3.9559,-4.0127,-4.0456,-4.0772,-4.1224,-4.0953,-4.0661,-4.0553,-3.9671,-3.8398,-3.6325,-3.5836,-3.4401,-3.0991,0.0,-3.1397,-3.0597,-3.2105,-3.3425,-3.404,-3.5298,-3.6906,-3.875,-3.8662,-3.8529,-3.8579,-4.0563,-4.2406,-4.4216,-4.6961,-5.1327,-5.7342,-5.5187,-5.2966,-5.0771,-4.9402,-5.0333,-5.3212,-5.4635,-5.7112,-6.0069,-5.9294,-5.5866,-5.0854,-5.0149,-4.8639,-4.6255,-4.1342,-3.7853,-3.5751,-3.7168,-3.9268,-4.1127,-4.7819,-4.7794,-4.788,-4.8133,-4.8133,-4.8218,-4.8355,-4.8218,-4.8133,-4.8385,-4.8187,-4.8103,-4.8438,-4.8355,-4.8385,-4.8438,-4.8438,-4.8162,-4.7354,-4.7241,-4.6772,-4.591,-4.5707,-4.5379,-4.4941,-4.468,-4.4387,-4.4048,-4.3297,-4.2548,-4.1904,-4.1127,-4.0637,-4.037,-3.9421,-3.8979,-3.875,-3.7586,-3.7241,-3.7541,-3.7211,-3.6984,-3.6844,-3.6808,-3.637,-3.5717,-3.5251,-3.617,-3.7405,-3.6969,-3.7878,-3.9265,-3.9265,-3.9337,-3.9409,-3.9409,-3.9625,-3.9839,-3.9839,-3.991,-3.994,-3.9481,-3.9679,-3.9964,-4.0189,-4.0719,-4.1204,-4.1018,-4.0827,-4.0513,-3.9885,-3.9489,-3.8662,-3.7142,-3.5993,0.0,0.0,-3.3178,-3.3239,-3.4187,-3.58,-3.7387,-3.864,-3.9651,-4.0833,-4.2522,-4.1843,-4.1499,-4.1827,-4.3136,-4.5038,-4.7496,-5.2639,-5.7142,-6.1089,-5.771,-5.4808,-5.2498,-5.0671,-5.0938,-5.2899,-5.4219,-5.6916,-6.0454,-5.9107,-5.6775,-5.3741,-5.1906,-4.9943,-4.7342,-4.0832,-3.7097,-3.5478,-3.6369,-3.7901,-3.9733,-4.814,-4.8263,-4.8385,-4.8385,-4.8385,-4.8385,-4.8301,-4.8133,-4.8049,-4.8218,-4.8218,-4.8301,-4.8521,-4.8521,-4.8604,-4.8604,-4.8604,-4.8327,-4.765,-4.7384,-4.6823,-4.5829,-4.5349,-4.4972,-4.4603,-4.4572,-4.4308,-4.363,-4.3063,-4.2417,-4.1626,-4.1032,-4.0693,-4.0439,-3.978,-3.9245,-3.8743,-3.7709,-3.7339,-3.7491,-3.6975,-3.6827,-3.6926,-3.6827,-3.63,-3.5653,-3.5554,-3.6327,-3.7434,-3.7297,-3.8262,-3.9481,-3.9481,-3.9409,-3.9409,-3.9409,-3.9625,-3.991,-3.9768,-3.9839,-3.9839,-3.9481,-3.9845,-4.0308,-4.0307,-4.0997,-4.1456,-4.0843,-4.0689,-4.0427,-3.9707,-3.9446,-3.913,-3.8176,0.0,0.0,0.0,-3.5698,-3.5759,-3.7775,-3.9333,-4.0867,-4.2536,-4.3416,-4.4305,-4.5279,-4.4443,-4.4031,-4.4487,-4.5217,-4.6288,-4.8055,-5.5097,-5.955,-6.1038,-5.744,-5.4917,-5.3419,-5.1707,-5.1842,-5.3496,-5.4628,-5.7087,-6.0438,-5.9224,-5.7866,-5.6276,-5.3847,-5.1439,-4.8584,-4.1778,-3.8137,-3.6723,-3.6804,-3.6967,-3.7684,-4.7681,-4.8173,-4.8604,-4.8604,-4.8604,-4.8521,-4.8301,-4.8133,-4.8049,-4.8049,-4.8049,-4.8133,-4.8301,-4.8438,-4.8604,-4.8604,-4.8604,-4.8327,-4.765,-4.7163,-4.6515,-4.568,-4.5003,-4.4633,-4.4572,-4.4572,-4.4308,-4.3778,-4.3599,-4.289,-4.1806,-4.1595,-4.1155,-4.047,-4.027,-3.9497,-3.8335,-3.8044,-3.7248,-3.6125,-3.6064,-3.6098,-3.6098,-3.6064,-3.5842,-3.5489,-3.5489,-3.6357,-3.7464,-3.7464,-3.8472,-3.9696,-3.9696,-3.9553,-3.9409,-3.9409,-3.9553,-3.9696,-3.9696,-3.9696,-3.9696,-3.9409,-3.9771,-4.0278,-4.0901,-4.1087,-4.125,-4.1778,-4.1057,-4.0562,-4.1314,-4.0474,-3.9481,-3.9123,0.0,0.0,-3.7497,-3.8573,-3.9843,-4.0784,-4.2151,-4.3664,-4.5218,-4.5988,-4.6809,-4.7971,-4.8004,-4.7978,-4.8306,-4.8717,-4.8444,-4.7454,-5.2743,-5.5867,-5.6402,-5.4514,-5.3599,-5.3912,-5.2602,-5.3492,-5.6169,-5.6902,-5.7961,-5.9107,-6.049,-5.9378,-5.66,-5.5262,-5.2819,-4.9585,-4.5667,-4.2798,-4.0849,-3.994,-3.8932,-3.8341,-4.8419,-4.8533,-4.8604,-4.8604,-4.8552,-4.8385,-4.8301,-4.8133,-4.8049,-4.8218,-4.8301,-4.8385,-4.8438,-4.8718,-4.8646,-4.8183,-4.8152,-4.7923,-4.7401,-4.6796,-4.6143,-4.5384,-4.5104,-4.498,-4.498,-4.498,-4.4639,-4.3998,-4.349,-4.3024,-4.2426,-4.1519,-4.1171,-4.1186,-4.0546,-3.9742,-3.8825,-3.833,-3.7562,-3.6743,-3.6473,-3.6352,-3.6414,-3.6414,-3.6414,-3.6382,-3.6037,-3.6516,-3.7364,-3.7586,-3.8241,-3.9154,-3.9718,-3.9839,-3.9858,-4.0425,-4.0172,-3.9858,-4.0353,-4.007,-3.9715,-3.9771,-4.0323,-4.0825,-4.1244,-4.1653,-4.1936,-4.1811,-4.1793,-4.1824,-4.2047,-4.1987,-4.1928,-4.2153,0.0,-4.1103,-4.1964,-4.2172,-4.2851,-4.4433,-4.5622,-4.6806,-4.7891,-4.7974,-4.8518,-4.9761,-4.9082,-4.8694,-4.9071,-4.7389,-4.5768,-4.4105,-4.5157,-4.7136,-5.0019,-5.0119,-5.1316,-5.374,-5.4467,-5.6242,-5.8765,-5.8632,-5.9271,-6.0496,-5.9633,-5.8843,-5.807,-5.561,-5.3721,-5.1967,-4.8155,-4.5278,-4.3105,-4.1557,-4.0251,-3.9467,-4.8221,-4.8337,-4.844,-4.8573,-4.8438,-4.8355,-4.8301,-4.8218,-4.8133,-4.8218,-4.8355,-4.8552,-4.8552,-4.8718,-4.8604,-4.7893,-4.7831,-4.7712,-4.7107,-4.6577,-4.5966,-4.5235,-4.5204,-4.5204,-4.5204,-4.5204,-4.4861,-4.4216,-4.3675,-4.3136,-4.2661,-4.1845,-4.1395,-4.1318,-4.0931,-4.0147,-3.9259,-3.88,-3.8218,-3.7544,-3.7061,-3.6909,-3.7033,-3.6878,-3.6816,-3.6816,-3.6414,-3.6776,-3.7501,-3.7758,-3.8417,-3.9234,-3.9929,-4.0233,-4.0436,-4.1176,-4.0879,-4.0492,-4.1019,-4.0807,-4.0287,-4.0189,-4.0753,-4.1477,-4.1892,-4.2621,-4.3205,-4.3054,-4.3407,-4.3872,-4.4115,-4.4379,-4.476,-4.5405,-4.4589,-4.4385,-4.5812,-4.5561,-4.5795,-4.7205,-4.7829,-4.8518,-4.9118,-4.8824,-4.9057,-5.0226,-4.9677,-4.9327,-4.9512,-4.6995,-4.4543,-4.2324,-4.1491,-4.2696,-4.6149,-4.7492,-5.0281,-5.4632,-5.6893,-5.9307,-6.1731,-6.0847,-6.0938,-6.1659,-5.9598,-5.8699,-5.8427,-5.6078,-5.4687,-5.3686,-5.057,-4.8135,-4.6319,-4.4532,-4.2877,-4.1621,-4.6764,-4.7446,-4.8047,-4.8481,-4.8604,-4.8521,-4.8301,-4.8301,-4.8218,-4.8049,-4.8218,-4.8271,-4.8301,-4.8438,-4.8327,-4.765,-4.775,-4.7632,-4.6919,-4.6653,-4.6116,-4.5235,-4.5204,-4.5204,-4.5204,-4.5204,-4.4934,-4.4432,-4.4216,-4.3528,-4.2422,-4.2661,-4.2085,-4.0845,-4.1348,-4.0816,-3.9524,-3.9524,-3.9123,-3.8446,-3.7867,-3.7683,-3.7653,-3.7187,-3.6816,-3.6507,-3.6507,-3.7113,-3.8007,-3.8208,-3.9025,-3.998,-4.0261,-4.0609,-4.1134,-4.1549,-4.173,-4.173,-4.1761,-4.1761,-4.1535,-4.0651,-4.1232,-4.2287,-4.321,-4.4237,-4.5221,-4.589,-4.6142,-4.6781,-4.8048,-4.7794,-4.7646,-4.8716,-4.8773,-4.8593,-4.8223,-4.8776,-4.8997,-4.874,-4.8608,-4.8555,-4.8516,-4.8099,-4.8343,-4.9364,-4.9958,-5.0107,-4.9898,-4.8158,-4.5797,-4.278,-4.3215,-4.4191,-4.5686,-4.705,-5.0807,-5.6976,-5.9787,-6.2536,-6.5134,-6.3767,-6.2697,-6.1996,-6.0813,-5.9143,-5.7228,-5.6694,-5.5744,-5.4568,-5.2975,-5.1794,-5.0779,-4.9328,-4.7106,-4.4816,-4.6998,-4.731,-4.7573,-4.8016,-4.814,-4.8213,-4.846,-4.8521,-4.8438,-4.8469,-4.8635,-4.8718,-4.8521,-4.8718,-4.8419,-4.7243,-4.7119,-4.6811,-4.5739,-4.5609,-4.5497,-4.5235,-4.5426,-4.5604,-4.5604,-4.5604,-4.5299,-4.4646,-4.4575,-4.4032,-4.3082,-4.2521,-4.2039,-4.1496,-4.09,-4.0217,-3.9524,-3.9358,-3.878,-3.7897,-3.7745,-3.753,-3.7219,-3.7093,-3.6938,-3.6816,-3.6569,-3.669,-3.7118,-3.8104,-3.8586,-3.913,-4.0677,-4.1526,-4.2023,-4.2842,-4.2646,-4.2389,-4.3828,-4.4044,-4.3864,-4.3229,-4.3427,-4.4096,-4.6155,-4.6671,-4.7138,-4.8324,-4.8812,-4.9221,-5.0053,-5.0297,-5.0372,-5.0396,-5.0192,-5.014,-5.0125,-5.0,-4.9991,-5.0401,-4.9959,-4.9608,-4.9126,-4.8895,-4.8865,-4.9281,-5.0037,-5.0522,-5.0608,-4.9089,-4.7682,-4.623,-4.6903,-4.8557,-5.091,-5.1357,-5.414,-5.9275,-6.1809,-6.3862,-6.5278,-6.3136,-6.1814,-6.0979,-5.8281,-5.6596,-5.5707,-5.4231,-5.3425,-5.3143,-5.2831,-5.2563,-5.228,-5.1907,-5.0587,-4.8861,-4.6593,-4.6795,-4.7013,-4.7415,-4.7588,-4.7663,-4.7905,-4.7885,-4.7885,-4.7804,-4.7916,-4.7997,-4.7835,-4.7916,-4.7565,-4.6453,-4.6191,-4.5849,-4.5266,-4.5204,-4.5204,-4.5204,-4.5426,-4.5604,-4.5604,-4.5604,-4.5384,-4.4912,-4.4378,-4.3804,-4.3224,-4.2396,-4.179,-4.1403,-4.1001,-4.0501,-3.9924,-3.9757,-3.9431,-3.8924,-3.8709,-3.8276,-3.7779,-3.756,-3.7249,-3.6877,-3.6662,-3.6908,-3.74,-3.833,-3.9098,-3.9985,-4.1524,-4.2375,-4.3021,-4.3846,-4.4056,-4.4266,-4.5636,-4.6497,-4.712,-4.7405,-4.6906,-4.6962,-4.9187,-4.9968,-5.0498,-5.1655,-5.2101,-5.2501,-5.3263,-5.3259,-5.3038,-5.2645,-5.2449,-5.2074,-5.1455,-5.1091,-5.0936,-5.0887,-5.0408,-4.9739,-4.9285,-4.8927,-4.9033,-4.9559,-5.0147,-5.0638,-5.0836,-5.0307,-4.9822,-4.9412,-5.0827,-5.2879,-5.5453,-5.6645,-5.8783,-6.1842,-6.3345,-6.4342,-6.4774,-6.229,-6.0489,-5.908,-5.6609,-5.4892,-5.3873,-5.2819,-5.2384,-5.2471,-5.2798,-5.3335,-5.4067,-5.4325,-5.3779,-5.2818,-4.5908,-4.6184,-4.6479,-4.678,-4.6983,-4.706,-4.6888,-4.6919,-4.6841,-4.6683,-4.6683,-4.6603,-4.6603,-4.6603,-4.6326,-4.5649,-4.5125,-4.4949,-4.5129,-4.5129,-4.5129,-4.5129,-4.5129,-4.5129,-4.5129,-4.5204,-4.5204,-4.5142,-4.3831,-4.3145,-4.2989,-4.2155,-4.1434,-4.0814,-4.1287,-4.1155,-4.047,-4.047,-4.0547,-4.0727,-4.0209,-3.962,-3.8997,-3.8529,-3.7779,-3.6909,-3.6909,-3.7652,-3.8604,-3.8893,-4.0256,-4.2023,-4.2551,-4.3125,-4.3877,-4.4825,-4.5822,-4.6877,-4.7558,-4.931,-5.1196,-5.2553,-5.1717,-5.0895,-5.2313,-5.3724,-5.4858,-5.5544,-5.5633,-5.594,-5.7084,-5.6385,-5.5467,-5.5162,-5.4939,-5.4189,-5.2277,-5.2002,-5.1632,-5.0692,-5.0086,-4.9507,-4.8864,-4.8573,-4.8784,-4.9825,-5.0201,-5.0424,-5.0865,-5.146,-5.194,-5.2086,-5.4496,-5.6733,-5.8977,-6.1782,-6.3515,-6.4228,-6.4312,-6.3973,-6.3441,-6.0904,-5.8574,-5.6402,-5.5235,-5.3676,-5.1833,-5.1899,-5.2034,-5.2142,-5.2547,-5.3858,-5.5458,-5.5992,-5.6189,-5.6072,-4.5835,-4.5645,-4.5641,-4.6066,-4.6268,-4.6531,-4.6826,-4.7045,-4.7154,-4.7076,-4.6919,-4.6841,-4.6841,-4.6683,-4.6326,-4.5649,-4.5048,-4.4648,-4.4723,-4.4723,-4.4723,-4.4723,-4.4723,-4.4723,-4.4723,-4.5055,-4.4954,-4.4424,-4.4112,-4.3395,-4.2303,-4.1938,-4.1395,-4.0608,-4.0693,-4.0624,-4.0331,-4.047,-4.0337,-4.0177,-4.0022,-3.9685,-3.9251,-3.9094,-3.8842,-3.8558,-3.8558,-3.8745,-3.9085,-4.0075,-4.1441,-4.2878,-4.3272,-4.3951,-4.4856,-4.6002,-4.7371,-4.8907,-5.0905,-5.3107,-5.5212,-5.6917,-5.7774,-5.7839,-5.6667,-5.6727,-5.7338,-5.8538,-5.7986,-5.7384,-5.8181,-5.7474,-5.6456,-5.532,-5.4939,-5.4157,-5.2489,-5.2063,-5.1695,-5.0822,-5.0154,-4.9334,-4.8348,-4.7756,-4.7704,-4.8391,-4.9064,-4.9926,-5.1022,-5.0986,-5.154,-5.2832,-5.4534,-5.6495,-5.8564,-6.0515,-6.2193,-6.3613,-6.3042,-6.1597,-5.9447,-5.7029,-5.4955,-5.3134,-5.1952,-5.1132,-5.0555,-4.9579,-4.9786,-5.0549,-5.0505,-5.1598,-5.3278,-5.45,-5.5053,-5.4906,-4.5426,-4.5352,-4.5403,-4.5415,-4.5552,-4.5752,-4.5897,-4.6004,-4.6081,-4.5928,-4.5851,-4.5773,-4.5773,-4.5618,-4.534,-4.4925,-4.448,-4.422,-4.3959,-4.3959,-4.3881,-4.3648,-4.385,-4.3959,-4.3959,-4.4418,-4.4493,-4.4229,-4.3889,-4.321,-4.2017,-4.1638,-4.0974,-4.0261,-4.0261,-4.0191,-4.0152,-4.0331,-4.0393,-4.0391,-4.0489,-4.025,-3.9753,-3.9753,-3.9501,-3.9058,-3.9058,-3.9495,-4.0212,-4.1143,-4.2319,-4.3531,-4.38,-4.4756,-4.6045,-4.7348,-4.9235,-5.1425,-5.3177,-5.5747,-5.8175,-5.9009,-6.0461,-6.1294,-5.9579,-5.9497,-5.9933,-6.041,-5.9622,-5.9032,-5.9383,-5.8377,-5.7157,-5.5978,-5.5465,-5.4575,-5.2548,-5.2148,-5.1653,-5.0375,-4.9863,-4.8995,-4.7854,-4.7135,-4.697,-4.7442,-4.782,-4.8531,-4.9489,-5.007,-5.075,-5.1598,-5.3529,-5.5329,-5.7034,-5.8162,-5.9308,-6.0456,-6.0348,-5.9068,-5.6778,-5.5058,-5.3412,-5.1862,-5.1309,-5.0643,-4.9853,-4.9341,-4.9256,-4.9284,-4.9567,-5.0412,-5.1554,-5.2507,-5.3053,-5.3323,-4.5173,-4.5278,-4.5278,-4.4949,-4.5055,-4.5055,-4.4949,-4.4949,-4.4874,-4.4723,-4.4648,-4.4648,-4.4648,-4.4496,-4.4297,-4.4065,-4.4065,-4.3899,-4.3502,-4.3424,-4.3192,-4.2786,-4.3039,-4.324,-4.3288,-4.3686,-4.396,-4.4113,-4.3563,-4.2772,-4.1984,-4.1316,-4.0709,-4.0092,-4.0071,-4.0011,-4.0011,-4.0191,-4.0539,-4.0814,-4.1018,-4.0876,-4.0541,-4.0541,-4.013,-3.9562,-3.9687,-4.0466,-4.1554,-4.2209,-4.3065,-4.3925,-4.4268,-4.5656,-4.7293,-4.8658,-5.1296,-5.3949,-5.5015,-5.7806,-6.0311,-5.9958,-6.1464,-6.2683,-6.1384,-6.1684,-6.2009,-6.1477,-6.0851,-6.0324,-6.0365,-5.9024,-5.7598,-5.6651,-5.5968,-5.4721,-5.2557,-5.2097,-5.135,-4.9853,-4.9207,-4.8477,-4.7213,-4.6624,-4.6447,-4.6487,-4.659,-4.6849,-4.7419,-4.86,-4.9293,-4.9572,-5.1652,-5.3452,-5.4746,-5.55,-5.6076,-5.6462,-5.6995,-5.6401,-5.4884,-5.3714,-5.2549,-5.1386,-5.144,-5.0855,-4.9684,-4.9804,-4.9437,-4.8871,-4.9271,-4.9746,-5.0221,-5.0229,-5.0668,-5.1339,-4.5646,-4.5278,-4.4949,-4.4874,-4.4949,-4.4949,-4.4874,-4.5055,-4.5129,-4.5129,-4.498,-4.4874,-4.4874,-4.4648,-4.4496,-4.4297,-4.4419,-4.4389,-4.4144,-4.3745,-4.3525,-4.3433,-4.3002,-4.2855,-4.3257,-4.338,-4.3335,-4.3214,-4.3122,-4.2622,-4.1923,-4.1286,-4.0879,-4.0583,-4.0182,-3.991,-3.9768,-4.0261,-4.0608,-4.0783,-4.1122,-4.1327,-4.1462,-4.1462,-4.1333,-4.1333,-4.1964,-4.2622,-4.3169,-4.3613,-4.3915,-4.4237,-4.5018,-4.6478,-4.8348,-5.0058,-5.3019,-5.5966,-5.7193,-5.9628,-6.1628,-6.1119,-6.2118,-6.2962,-6.1924,-6.2207,-6.2445,-6.2021,-6.1217,-6.0501,-6.0173,-5.9024,-5.7772,-5.6652,-5.5566,-5.4171,-5.2497,-5.1488,-5.0626,-4.9502,-4.8308,-4.7212,-4.622,-4.606,-4.5884,-4.5486,-4.54,-4.5633,-4.6202,-4.6178,-4.6795,-4.8107,-4.9116,-5.0424,-5.2064,-5.3149,-5.3693,-5.3806,-5.3132,-5.3162,-5.3622,-5.2093,-5.0971,-5.0365,-5.0064,-5.0114,-5.0352,-4.9399,-4.9536,-5.037,-4.9222,-4.8949,-4.9111,-4.831,-4.8324,-4.8799,-4.5646,-4.5426,-4.5204,-4.4949,-4.4874,-4.4874,-4.4723,-4.483,-4.483,-4.4754,-4.4572,-4.4496,-4.4419,-4.3884,-4.3487,-4.3441,-4.3518,-4.3564,-4.3564,-4.3365,-4.2952,-4.2187,-4.2101,-4.2028,-4.1863,-4.2334,-4.2496,-4.2419,-4.2573,-4.1986,-4.0711,-4.0591,-4.0334,-3.9974,-3.9888,-3.9839,-3.991,-4.0261,-4.0539,-4.0783,-4.1086,-4.1323,-4.1588,-4.1588,-4.1841,-4.2284,-4.2979,-4.3535,-4.4024,-4.4306,-4.4862,-4.5625,-4.6678,-4.8442,-5.0526,-5.2545,-5.5192,-5.7694,-5.8863,-6.0653,-6.1991,-6.1195,-6.1534,-6.1984,-6.1586,-6.139,-6.1367,-6.148,-6.0853,-6.0087,-5.9596,-5.8578,-5.7465,-5.63,-5.5542,-5.4338,-5.2693,-5.1619,-5.0208,-4.7985,-4.7067,-4.6188,-4.5313,-4.5103,-4.4833,-4.4535,-4.4222,-4.4251,-4.4513,-4.523,-4.5739,-4.6089,-4.7351,-4.8742,-5.0093,-5.0726,-5.1409,-5.2087,-5.1361,-5.1484,-5.2366,-5.0968,-5.0359,-5.0312,-5.0266,-5.0487,-5.072,-5.0629,-5.0536,-5.0416,-5.0005,-4.8861,-4.7214,-4.6027,-4.5496,-4.5434]},{"header":{"parameterUnit":"m.s-1","parameterCategory":1,"la1":30.6,"la2":28.766,"lo1":-90.7593,"lo2":-88.6598,"dy":0.0162,"dx":0.0183,"nx":116,"ny":114,"refTime":"2023-07-14T00:00:00:Z","depth":0,"parameterNumber":3,"parameterNumberName":"V-component_of_WINDS"},"data":[0.0,0.0,0.0,0.0,0.0,0.0,0.0,0.0,0.0,0.0,0.0,0.0,0.0,0.0,0.0,0.0,0.0,0.0,0.0,0.0,0.0,0.0,0.0,0.0,0.0,0.0,0.0,0.0,0.0,0.0,0.0,0.0,0.0,0.0,0.0,0.0,0.0,0.0,0.0,0.0,0.0,0.0,0.0,0.0,0.0,0.0,0.0,0.0,0.0,0.0,0.0,0.0,0.0,0.0,0.0,0.0,0.0,0.0,0.0,0.0,0.0,0.0,0.0,0.0,0.0,0.0,0.0,0.0,0.0,0.0,0.0,0.0,0.0,0.0,0.0,0.0,0.0,0.0,0.0,0.0,0.0,0.0,0.0,0.0,0.0,0.0,0.0,0.0,0.0,0.0,0.0,0.0,0.0,0.0,0.0,0.0,0.0,0.0,0.0,0.0,0.0,0.0,0.0,0.0,0.0,0.0,0.0,0.0,0.0,0.0,0.0,0.0,0.0,0.0,0.0,0.0,0.0,0.0,0.0,0.0,0.0,0.0,0.0,0.0,0.0,0.0,0.0,0.0,0.0,0.0,0.0,0.0,0.0,0.0,0.0,0.0,0.0,0.0,0.0,0.0,0.0,0.0,0.0,0.0,0.0,0.0,0.0,0.0,0.0,0.0,0.0,0.0,0.0,0.0,0.0,0.0,0.0,0.0,0.0,0.0,0.0,0.0,0.0,0.0,0.0,0.0,0.0,0.0,0.0,0.0,0.0,0.0,0.0,0.0,0.0,0.0,0.0,0.0,0.0,0.0,0.0,0.0,0.0,0.0,0.0,0.0,0.0,0.0,0.0,0.0,0.0,0.0,0.0,0.0,0.0,0.0,0.0,0.0,0.0,0.0,0.0,0.0,0.0,0.0,0.0,0.0,0.0,0.0,0.0,0.0,0.0,0.0,0.0,0.0,0.0,0.0,0.0,0.0,0.0,0.0,0.0,0.0,0.0,0.0,0.0,0.0,0.0,0.0,0.0,0.0,0.0,0.0,0.0,0.0,0.0,0.0,0.0,0.0,0.0,0.0,0.0,0.0,0.0,0.0,0.0,0.0,0.0,0.0,0.0,0.0,0.0,0.0,0.0,0.0,0.0,0.0,0.0,0.0,0.0,0.0,0.0,0.0,0.0,0.0,0.0,0.0,0.0,0.0,0.0,0.0,0.0,0.0,0.0,0.0,0.0,0.0,0.0,0.0,0.0,0.0,0.0,0.0,0.0,0.0,0.0,0.0,0.0,0.0,0.0,0.0,0.0,0.0,0.0,0.0,0.0,0.0,0.0,0.0,0.0,0.0,0.0,0.0,0.0,0.0,0.0,0.0,0.0,0.0,0.0,0.0,0.0,0.0,0.0,0.0,0.0,0.0,0.0,0.0,0.0,0.0,0.0,0.0,0.0,0.0,0.0,0.0,0.0,0.0,0.0,0.0,0.0,0.0,0.0,0.0,0.0,0.0,0.0,0.0,0.0,0.0,0.0,0.0,0.0,0.0,0.0,0.0,0.0,0.0,0.0,0.0,0.0,0.0,0.0,0.0,0.0,0.0,0.0,0.0,0.0,0.0,0.0,0.0,0.0,0.0,0.0,0.0,0.0,0.0,0.0,0.0,0.0,0.0,0.0,0.0,0.0,0.0,0.0,0.0,0.0,0.0,0.0,0.0,0.0,0.0,0.0,0.0,0.0,0.0,0.0,0.0,0.0,0.0,0.0,0.0,0.0,0.0,0.0,0.0,0.0,0.0,0.0,0.0,0.0,0.0,0.0,0.0,0.0,0.0,0.0,0.0,0.0,0.0,0.0,0.0,0.0,0.0,0.0,0.0,0.0,0.0,0.0,0.0,0.0,0.0,0.0,0.0,0.0,0.0,0.0,0.0,0.0,0.0,0.0,0.0,0.0,0.0,0.0,0.0,0.0,0.0,0.0,0.0,0.0,0.0,0.0,0.0,0.0,0.0,0.0,0.0,0.0,0.0,0.0,0.0,0.0,0.0,0.0,0.0,0.0,0.0,0.0,0.0,0.0,0.0,0.0,0.0,0.0,0.0,0.0,0.0,0.0,0.0,0.0,0.0,0.0,0.0,0.0,0.0,0.0,0.0,0.0,0.0,0.0,0.0,0.0,0.0,0.0,0.0,0.0,0.0,0.0,0.0,0.0,0.0,0.0,0.0,0.0,0.0,0.0,0.0,0.0,0.0,0.0,0.0,0.0,0.0,0.0,0.0,0.0,0.0,0.0,0.0,0.0,0.0,0.0,0.0,0.0,0.0,0.0,0.0,0.0,0.0,0.0,0.0,0.0,0.0,0.0,0.0,0.0,0.0,0.0,0.0,0.0,0.0,0.0,0.0,0.0,0.0,0.0,0.0,0.0,0.0,0.0,0.0,0.0,0.0,0.0,0.0,0.0,0.0,0.0,0.0,0.0,0.0,0.0,0.0,0.0,0.0,0.0,0.0,0.0,0.0,0.0,0.0,0.0,0.0,0.0,0.0,0.0,0.0,0.0,0.0,0.0,0.0,0.0,0.0,0.0,0.0,0.0,0.0,0.0,0.0,0.0,0.0,0.0,0.0,0.0,0.0,0.0,0.0,0.0,0.0,0.0,0.0,0.0,0.0,0.0,0.0,0.0,0.0,0.0,0.0,0.0,0.0,0.0,0.0,0.0,0.0,0.0,0.0,0.0,0.0,0.0,0.0,0.0,0.0,0.0,0.0,0.0,0.0,0.0,0.0,0.0,0.0,0.0,0.0,0.0,0.0,0.0,0.0,0.0,0.0,0.0,0.0,0.0,0.0,0.0,0.0,0.0,0.0,0.0,0.0,0.0,0.0,0.0,0.0,0.0,0.0,0.0,0.0,0.0,0.0,0.0,0.0,0.0,0.0,0.0,0.0,0.0,0.0,0.0,0.0,0.0,0.0,0.0,0.0,0.0,0.0,0.0,0.0,0.0,0.0,0.0,0.0,0.0,0.0,0.0,0.0,0.0,0.0,0.0,0.0,0.0,0.0,0.0,0.0,0.0,0.0,0.0,0.0,0.0,0.0,0.0,0.0,0.0,0.0,0.0,0.0,0.0,0.0,0.0,0.0,0.0,0.0,0.0,0.0,0.0,0.0,0.0,0.0,0.0,0.0,0.0,0.0,0.0,0.0,0.0,0.0,0.0,0.0,0.0,0.0,0.0,0.0,0.0,0.0,0.0,0.0,0.0,0.0,0.0,0.0,0.0,0.0,0.0,0.0,0.0,0.0,0.0,0.0,0.0,0.0,0.0,0.0,0.0,0.0,0.0,0.0,0.0,0.0,0.0,0.0,0.0,0.0,0.0,0.0,0.0,0.0,0.0,0.0,0.0,0.0,0.0,0.0,0.0,0.0,0.0,0.0,0.0,0.0,0.0,0.0,0.0,0.0,0.0,0.0,0.0,0.0,0.0,0.0,0.0,0.0,0.0,0.0,0.0,0.0,0.0,0.0,0.0,0.0,0.0,0.0,0.0,0.0,0.0,0.0,0.0,0.0,0.0,0.0,0.0,0.0,0.0,0.0,0.0,0.0,0.0,0.0,0.0,0.0,0.0,0.0,0.0,0.0,0.0,0.0,0.0,0.0,0.0,0.0,0.0,0.0,0.0,0.0,0.0,0.0,0.0,0.0,0.0,0.0,0.0,0.0,0.0,0.0,0.0,0.0,0.0,0.0,0.0,0.0,0.0,0.0,0.0,0.0,0.0,0.0,0.0,0.0,0.0,0.0,0.0,0.0,0.0,0.0,0.0,0.0,0.0,0.0,0.0,0.0,0.0,0.0,0.0,0.0,0.0,0.0,0.0,0.0,0.0,0.0,0.0,0.0,0.0,0.0,0.0,0.0,0.0,0.0,0.0,0.0,0.0,0.0,0.0,0.0,0.0,0.0,0.0,0.0,0.0,0.0,0.0,0.0,0.0,0.0,0.0,0.0,0.0,0.0,0.0,0.0,0.0,0.0,0.0,0.0,0.0,0.0,0.0,0.0,0.0,0.0,0.0,0.0,0.0,0.0,0.0,0.0,0.0,0.0,0.0,0.0,0.0,0.0,0.0,0.0,0.0,0.0,0.0,0.0,0.0,0.0,0.0,0.0,0.0,0.0,0.0,0.0,0.0,0.0,0.0,0.0,0.0,0.0,0.0,0.0,0.0,0.0,0.0,0.0,0.0,0.0,0.0,0.0,0.0,0.0,0.0,0.0,0.0,0.0,0.0,0.0,0.0,0.0,0.0,0.0,0.0,0.0,0.0,0.0,0.0,0.0,0.0,0.0,0.0,0.0,0.0,0.0,0.0,0.0,0.0,0.0,0.0,0.0,0.0,0.0,0.0,0.0,0.0,0.0,0.0,0.0,0.0,0.0,0.0,0.0,0.0,0.0,0.0,0.0,0.0,0.0,0.0,0.0,0.0,0.0,0.0,0.0,0.0,0.0,0.0,0.0,0.0,0.0,0.0,0.0,0.0,0.0,0.0,0.0,0.0,0.0,0.0,0.0,0.0,0.0,0.0,0.0,0.0,0.0,0.0,0.0,0.0,0.0,0.0,0.0,0.0,0.0,0.0,0.0,0.0,0.0,0.0,0.0,0.0,0.0,0.0,0.0,0.0,0.0,0.0,0.0,0.0,0.0,0.0,0.0,0.0,0.0,0.0,0.0,0.0,0.0,0.0,0.0,0.0,0.0,0.0,0.0,0.0,0.0,0.0,0.0,0.0,0.0,0.0,0.0,0.0,0.0,0.0,0.0,0.0,0.0,0.0,0.0,0.0,0.0,0.0,0.0,0.0,0.0,0.0,0.0,0.0,0.0,0.0,0.0,0.0,0.0,0.0,0.0,0.0,0.0,0.0,0.0,0.0,0.0,0.0,0.0,0.0,0.0,0.0,0.0,0.0,0.0,0.0,0.0,0.0,0.0,0.0,0.0,0.0,0.0,0.0,0.0,0.0,0.0,0.0,0.0,0.0,0.0,0.0,0.0,0.0,0.0,0.0,0.0,0.0,0.0,0.0,0.0,0.0,0.0,0.0,0.0,0.0,0.0,0.0,0.0,0.0,0.0,0.0,0.0,0.0,0.0,0.0,0.0,0.0,0.0,0.0,0.0,0.0,0.0,0.0,0.0,0.0,0.0,0.0,0.0,0.0,0.0,0.0,0.0,0.0,0.0,0.0,0.0,0.0,0.0,0.0,0.0,0.0,0.0,0.0,0.0,0.0,0.0,0.0,0.0,0.0,0.0,0.0,0.0,0.0,0.0,0.0,0.0,0.0,0.0,0.0,0.0,0.0,0.0,0.0,0.0,0.0,0.0,0.0,0.0,0.0,0.0,0.0,0.0,0.0,0.0,0.0,0.0,0.0,0.0,0.0,0.0,0.0,0.0,0.0,0.0,0.0,0.0,0.0,0.0,0.0,0.0,0.0,0.0,0.0,0.0,0.0,0.0,0.0,0.0,0.0,0.0,0.0,0.0,0.0,0.0,0.0,0.0,0.0,0.0,0.0,0.0,0.0,0.0,0.0,0.0,0.0,0.0,0.0,0.0,0.0,0.0,0.0,0.0,0.0,0.0,0.0,0.0,0.0,0.0,0.0,0.0,0.0,0.0,0.0,0.0,0.0,0.0,0.0,0.0,0.0,0.0,0.0,0.0,0.0,0.0,0.0,0.0,0.0,0.0,0.0,0.0,0.0,0.0,0.0,0.0,0.0,0.0,0.0,0.0,0.0,0.0,0.0,0.0,0.0,0.0,0.0,0.0,0.0,0.0,0.0,0.0,0.0,0.0,0.0,0.0,0.0,0.0,0.0,0.0,0.0,0.0,0.0,0.0,0.0,0.0,0.0,0.0,0.0,0.0,0.0,0.0,0.0,0.0,0.0,0.0,0.0,0.0,0.0,0.0,0.0,0.0,0.0,0.0,0.0,0.0,0.0,0.0,0.0,0.0,0.0,0.0,0.0,0.0,0.0,0.0,0.0,0.0,0.0,0.0,0.0,0.0,0.0,0.0,0.0,0.0,0.0,0.0,0.0,0.0,0.0,0.0,0.0,0.0,0.0,0.0,0.0,0.0,0.0,0.0,0.0,0.0,0.0,0.0,-1.7173,0.0,0.0,0.0,0.0,0.0,0.0,0.0,0.0,0.0,0.0,0.0,0.0,0.0,0.0,0.0,0.0,0.0,0.0,0.0,0.0,0.0,0.0,0.0,0.0,0.0,0.0,0.0,0.0,0.0,0.0,0.0,0.0,0.0,0.0,0.0,0.0,0.0,0.0,0.0,0.0,0.0,0.0,-2.7619,-2.7246,-2.6174,0.0,0.0,0.0,0.0,0.0,0.0,0.0,0.0,0.0,0.0,0.0,0.0,0.0,0.0,0.0,0.0,0.0,0.0,0.0,0.0,0.0,0.0,0.0,0.0,0.0,0.0,0.0,0.0,0.0,0.0,0.0,0.0,0.0,0.0,0.0,0.0,0.0,0.0,0.0,0.0,0.0,0.0,0.0,0.0,0.0,0.0,0.0,0.0,0.0,0.0,0.0,0.0,0.0,0.0,0.0,0.0,0.0,0.0,0.0,0.0,0.0,0.0,0.0,0.0,0.0,0.0,0.0,0.0,0.0,0.0,0.0,-1.8775,0.0,0.0,0.0,0.0,0.0,0.0,0.0,0.0,0.0,0.0,0.0,0.0,0.0,0.0,0.0,0.0,0.0,0.0,0.0,0.0,0.0,0.0,0.0,0.0,0.0,0.0,0.0,0.0,0.0,0.0,0.0,0.0,0.0,0.0,0.0,0.0,0.0,0.0,0.0,0.0,0.0,-3.1769,-3.0936,-2.8811,0.0,0.0,0.0,0.0,0.0,0.0,0.0,0.0,0.0,0.0,0.0,0.0,0.0,0.0,0.0,0.0,0.0,0.0,0.0,0.0,0.0,0.0,0.0,0.0,0.0,0.0,0.0,0.0,0.0,0.0,0.0,0.0,0.0,0.0,0.0,0.0,0.0,0.0,0.0,0.0,0.0,0.0,0.0,0.0,0.0,0.0,0.0,0.0,0.0,0.0,0.0,0.0,0.0,0.0,0.0,0.0,0.0,0.0,0.0,0.0,0.0,0.0,0.0,0.0,0.0,-2.4316,-2.8077,-2.8295,-2.8682,-2.876,-2.342,-2.0832,-2.0121,0.0,0.0,0.0,0.0,0.0,0.0,0.0,0.0,0.0,0.0,0.0,0.0,0.0,0.0,0.0,0.0,0.0,0.0,0.0,0.0,0.0,0.0,0.0,0.0,0.0,0.0,0.0,0.0,0.0,0.0,0.0,0.0,0.0,0.0,0.0,0.0,0.0,0.0,-2.9738,-3.2296,-3.2794,-3.3231,-3.345,-3.0449,0.0,0.0,0.0,0.0,0.0,0.0,0.0,0.0,0.0,0.0,0.0,0.0,0.0,0.0,0.0,0.0,0.0,0.0,0.0,0.0,0.0,0.0,0.0,0.0,0.0,0.0,0.0,0.0,0.0,0.0,0.0,0.0,0.0,0.0,0.0,0.0,0.0,0.0,0.0,0.0,0.0,0.0,0.0,-1.169,-1.2135,0.0,0.0,0.0,0.0,0.0,0.0,0.0,0.0,0.0,0.0,0.0,0.0,0.0,0.0,-1.4841,-1.6128,-1.7244,-1.8199,-2.0285,-2.3406,-2.7242,-2.8428,-2.7664,-2.5441,-2.4602,0.0,-2.0724,-1.9239,0.0,0.0,0.0,0.0,0.0,0.0,0.0,0.0,0.0,0.0,0.0,0.0,0.0,0.0,0.0,0.0,0.0,0.0,0.0,0.0,0.0,0.0,0.0,0.0,0.0,0.0,0.0,0.0,0.0,0.0,0.0,0.0,0.0,0.0,0.0,0.0,-2.8426,-3.081,-3.2708,-3.3662,-3.4595,-3.5514,-3.4211,-3.2221,-2.9442,-2.4819,0.0,0.0,0.0,0.0,0.0,0.0,0.0,0.0,0.0,0.0,0.0,0.0,0.0,0.0,0.0,0.0,0.0,0.0,0.0,0.0,0.0,0.0,0.0,0.0,0.0,0.0,0.0,0.0,0.0,0.0,0.0,0.0,0.0,0.0,0.0,0.0,0.0,0.0,0.0,-1.1964,-1.3234,-1.3297,-1.3465,-1.3008,0.0,0.0,0.0,0.0,0.0,0.0,0.0,0.0,0.0,-1.5716,-1.6338,-1.7248,-1.8413,-1.9311,-2.0026,-2.0535,-2.207,-2.3949,-2.5965,-2.7347,-2.7309,-2.6045,-2.5189,-2.3337,-2.0952,-1.979,-1.8833,-1.7931,0.0,0.0,0.0,0.0,0.0,-1.6877,0.0,0.0,0.0,0.0,0.0,0.0,0.0,0.0,0.0,0.0,0.0,0.0,0.0,0.0,0.0,-3.0664,0.0,0.0,0.0,0.0,0.0,0.0,0.0,0.0,0.0,0.0,0.0,-2.7678,-2.9299,-3.119,-3.2982,-3.4008,-3.5276,-3.6504,-3.6638,-3.5008,-3.1822,-2.8165,-2.4364,0.0,0.0,0.0,0.0,0.0,0.0,0.0,0.0,0.0,0.0,0.0,0.0,0.0,0.0,0.0,0.0,0.0,0.0,0.0,0.0,0.0,0.0,0.0,0.0,0.0,0.0,0.0,0.0,0.0,0.0,0.0,0.0,0.0,0.0,0.0,0.0,0.0,0.0,-1.3226,-1.4372,-1.4353,-1.4985,-1.4968,0.0,0.0,0.0,0.0,0.0,0.0,-1.6518,-1.7747,-1.8654,-1.9085,-1.9542,-2.016,-2.0959,-2.132,-2.1715,-2.2009,-2.2898,-2.3897,-2.5054,-2.6456,-2.7073,-2.7004,-2.4811,-2.2651,-2.0673,-2.0055,-1.9769,-1.9652,-1.8611,-1.7572,-1.6876,-1.7648,-2.054,-2.4043,0.0,0.0,0.0,0.0,0.0,0.0,0.0,0.0,0.0,0.0,0.0,0.0,0.0,0.0,-3.003,-3.2717,-3.2091,-3.1651,0.0,0.0,0.0,0.0,0.0,0.0,0.0,0.0,0.0,-2.7457,-2.9023,-3.0937,-3.3217,-3.3666,-3.4921,-3.6662,-3.6837,-3.6914,-3.6617,-3.1617,-2.8445,-2.6202,0.0,0.0,0.0,0.0,0.0,0.0,0.0,0.0,0.0,0.0,0.0,0.0,0.0,0.0,0.0,0.0,0.0,0.0,0.0,0.0,0.0,0.0,0.0,0.0,0.0,0.0,0.0,0.0,0.0,0.0,0.0,0.0,0.0,0.0,0.0,0.0,0.0,0.0,0.0,-1.5716,-1.7085,0.0,0.0,0.0,0.0,-1.7147,-1.8108,-1.9165,-2.0249,-2.136,-2.2002,-2.2019,-2.1994,-2.1947,-2.1618,-2.1406,-2.1385,-2.1961,-2.152,-2.2704,-2.5178,-2.6449,-2.7073,-2.683,-2.3032,-2.0632,-1.9591,-2.0687,-2.1115,-2.1042,-2.0355,-2.0302,-2.0985,-2.3821,-2.6248,-2.7951,0.0,0.0,0.0,0.0,0.0,0.0,0.0,0.0,0.0,0.0,0.0,0.0,0.0,-2.86,-3.0817,-3.281,-3.342,-3.3038,-3.1497,0.0,0.0,0.0,0.0,0.0,0.0,0.0,-2.3657,-2.6491,-2.8451,-3.0393,-3.2204,-3.3816,-3.507,-3.6048,-3.7302,-3.7582,-3.6751,-3.3248,-3.0301,-2.7624,-2.2534,-1.9252,0.0,0.0,0.0,0.0,0.0,0.0,0.0,0.0,0.0,0.0,0.0,0.0,0.0,0.0,0.0,0.0,0.0,0.0,0.0,0.0,0.0,0.0,0.0,0.0,0.0,0.0,0.0,0.0,0.0,0.0,0.0,0.0,0.0,0.0,0.0,0.0,0.0,-1.6621,-1.7628,0.0,0.0,-1.845,-1.9071,-1.959,-2.0735,-2.1536,-2.1862,-2.2662,-2.3082,-2.3081,-2.2833,-2.2769,-2.2892,-2.2646,-2.2566,-2.2639,-2.2566,-2.3133,-2.4487,-2.5349,-2.5349,-2.4471,-2.2981,-2.1628,-2.0607,-2.0554,-2.0399,-2.0155,-2.1504,-2.204,-2.2618,-2.5164,-2.7496,-2.9258,0.0,0.0,0.0,0.0,0.0,0.0,0.0,0.0,0.0,0.0,0.0,-2.5555,-2.7056,-2.9351,-3.1391,-3.2967,-3.3933,-3.385,-3.2434,0.0,0.0,0.0,0.0,0.0,0.0,-2.085,-2.2835,-2.5652,-2.7799,-2.9847,-3.1493,-3.3684,-3.4981,-3.5843,-3.7378,-3.7671,-3.6618,-3.4364,-3.1588,-2.8384,-2.381,-2.0515,-1.805,0.0,0.0,0.0,0.0,0.0,0.0,0.0,0.0,0.0,0.0,0.0,0.0,0.0,0.0,0.0,0.0,0.0,0.0,0.0,0.0,0.0,0.0,0.0,0.0,0.0,0.0,0.0,0.0,0.0,0.0,0.0,0.0,0.0,0.0,0.0,-1.6685,-1.7227,-1.822,-1.9,-1.9137,-2.0227,-2.1199,-2.1905,-2.2885,-2.3293,-2.3275,-2.3855,-2.4115,-2.3976,-2.3728,-2.3604,-2.3728,-2.3479,-2.323,-2.3106,-2.3106,-2.3355,-2.3728,-2.4734,-2.461,-2.3728,-2.3133,-2.2262,-2.1413,-2.0836,-2.0233,-1.9938,-2.166,-2.2683,-2.3231,-2.5697,-2.7764,-2.9343,0.0,0.0,0.0,0.0,0.0,0.0,0.0,0.0,0.0,0.0,-2.516,-2.6443,-2.8497,-3.0099,-3.1705,-3.3404,-3.3535,-3.3852,-3.4568,-2.8949,0.0,0.0,0.0,0.0,-1.8263,-2.0373,-2.2565,-2.4834,-2.7092,-2.9281,-3.1576,-3.3127,-3.4737,-3.6234,-3.6922,-3.7105,-3.6624,-3.5081,-3.2411,-2.881,-2.3947,-2.051,-1.7952,0.0,0.0,0.0,0.0,0.0,0.0,0.0,0.0,0.0,0.0,0.0,0.0,0.0,0.0,0.0,0.0,0.0,0.0,0.0,0.0,0.0,0.0,0.0,0.0,0.0,0.0,0.0,0.0,0.0,0.0,0.0,0.0,0.0,-1.678,-1.6592,-1.681,-1.7455,-1.905,-2.0125,-2.0369,-2.1925,-2.3331,-2.4006,-2.4408,-2.4595,-2.461,-2.4857,-2.498,-2.461,-2.461,-2.4487,-2.4115,-2.3728,-2.3479,-2.3106,-2.3106,-2.3106,-2.3106,-2.4487,-2.5103,-2.4949,-2.3082,-2.2067,-2.1862,-2.147,-2.083,-2.0385,-2.0974,-2.1972,-2.3295,-2.5789,-2.7333,-2.8223,0.0,0.0,0.0,0.0,0.0,0.0,0.0,0.0,0.0,0.0,-2.5459,-2.7007,-2.9065,-3.0511,-3.1708,-3.2642,-3.3013,-3.2962,-3.2725,0.0,0.0,0.0,0.0,0.0,-1.9007,-1.9759,-2.1383,-2.3998,-2.6114,-2.8553,-3.1253,-3.3349,-3.4956,-3.6202,-3.7232,-3.7537,-3.6906,-3.4789,-3.2286,-2.9345,-2.5046,-2.1356,-1.8333,0.0,0.0,0.0,0.0,0.0,0.0,0.0,0.0,0.0,0.0,0.0,0.0,0.0,0.0,0.0,0.0,0.0,0.0,0.0,0.0,0.0,0.0,0.0,0.0,0.0,0.0,0.0,0.0,0.0,0.0,0.0,0.0,-1.884,-1.8238,-1.7855,-1.7853,-1.8312,-1.9148,-2.0118,-2.1135,-2.1754,-2.2566,-2.3963,-2.3703,-2.3718,-2.4224,-2.4734,-2.5103,-2.498,-2.498,-2.4857,-2.4857,-2.4131,-2.3758,-2.3634,-2.3245,-2.3106,-2.3106,-2.4487,-2.4857,-2.4348,-2.3686,-2.3155,-2.2797,-2.2359,-2.1683,-2.1089,-2.2116,-2.3043,-2.4118,-2.6347,-2.7657,-2.829,0.0,0.0,0.0,0.0,0.0,0.0,0.0,0.0,0.0,0.0,-2.6259,-2.7947,-2.9927,-3.0844,-3.151,-3.1803,-3.183,-3.1457,-3.0375,0.0,0.0,0.0,0.0,-1.886,-1.8881,-1.9252,-2.0719,-2.3104,-2.5057,-2.7538,-3.0451,-3.2746,-3.4504,-3.5925,-3.7047,-3.748,-3.7073,-3.4967,-3.2502,-2.985,-2.6075,-2.2462,-1.9241,-1.6718,-1.6217,-1.6902,-1.7782,-1.9527,-2.1696,-2.4337,0.0,0.0,0.0,0.0,0.0,0.0,0.0,0.0,0.0,0.0,0.0,0.0,0.0,0.0,0.0,0.0,0.0,0.0,0.0,0.0,0.0,0.0,0.0,0.0,-2.0767,-1.9986,-1.9347,-1.8596,-1.842,-1.8807,-1.9484,-2.0284,-2.1311,-2.199,-2.2719,-2.3641,-2.3825,-2.3931,-2.4009,-2.4738,-2.502,-2.49,-2.4923,-2.5003,-2.4881,-2.4301,-2.4007,-2.3882,-2.337,-2.3355,-2.3976,-2.4734,-2.4857,0.0,-2.384,-2.3459,-2.3291,-2.2722,-2.2273,0.0,0.0,0.0,0.0,0.0,-2.8174,-2.8329,0.0,0.0,0.0,0.0,0.0,0.0,0.0,0.0,0.0,0.0,0.0,-2.8918,-3.0783,-3.107,-3.107,-3.0831,-3.0307,-2.939,0.0,0.0,0.0,-2.1172,-1.9906,-1.8902,-1.8279,-1.8778,-2.0083,-2.2103,-2.3928,-2.6519,-2.9361,-3.1666,-3.3678,-3.5557,-3.6553,-3.7095,-3.7095,-3.5026,-3.2698,-3.0114,-2.7178,-2.3827,-2.0372,-1.8161,-1.7965,-1.9014,-1.92,-2.0905,-2.3493,-2.6013,0.0,0.0,0.0,0.0,0.0,0.0,0.0,0.0,0.0,0.0,0.0,0.0,0.0,0.0,0.0,0.0,0.0,0.0,0.0,0.0,0.0,0.0,0.0,0.0,-2.2386,-2.1071,-2.016,-1.9132,-1.8605,-1.9012,-1.9674,-2.0307,-2.1053,-2.2457,-2.3335,-2.3081,-2.4154,-2.4651,-2.4201,0.0,0.0,0.0,0.0,-2.4875,-2.4619,-2.4423,-2.4363,-2.4239,-2.3604,-2.3976,-2.5103,-2.5226,-2.5226,-2.5056,-2.3873,-2.3442,-2.352,-2.2849,-2.2859,-2.3231,-2.3151,-2.4616,-2.6791,-2.8038,-2.8502,0.0,0.0,0.0,0.0,0.0,0.0,0.0,0.0,0.0,0.0,-2.688,-2.7696,-2.8738,-3.0425,-3.077,-3.0542,-2.9781,-2.8992,-2.7966,0.0,0.0,-2.3279,-2.1963,-2.0027,-1.8542,-1.7631,-1.8372,-1.9576,-2.1131,-2.343,-2.6121,-2.8978,-3.0983,-3.2967,-3.519,-3.5883,-3.6697,-3.707,-3.4907,-3.2639,-3.0343,-2.8228,-2.51,-2.1529,-1.9683,-1.9345,-1.9886,-2.059,-2.2298,-2.4511,-2.6879,-2.9149,-3.0921,-3.0958,0.0,0.0,0.0,0.0,0.0,0.0,0.0,0.0,0.0,0.0,0.0,0.0,0.0,0.0,0.0,0.0,0.0,0.0,0.0,0.0,-2.3562,-2.2323,-2.1045,-1.9853,-1.9498,-1.9347,-1.9139,-1.9751,-2.0335,-2.1039,-2.1626,-2.2275,-2.305,-2.3541,-2.4158,-2.4804,-2.5489,0.0,-2.5677,-2.5225,-2.5093,-2.521,-2.4527,-2.4363,-2.4857,0.0,0.0,-2.5103,-2.5717,-2.5839,-2.5594,-2.5294,-2.4556,-2.3668,-2.3504,-2.3779,-2.4411,-2.4235,-2.5219,-2.659,-2.6664,-2.7676,-2.9026,0.0,0.0,0.0,0.0,0.0,0.0,0.0,0.0,0.0,0.0,-2.9251,-2.9954,-3.1112,-3.0275,-2.9058,-2.751,-2.5739,0.0,0.0,-2.274,-2.1682,-2.0393,-1.8828,-1.7691,-1.7043,-1.7529,-1.8766,-2.0786,-2.2821,-2.5257,-2.81,-3.029,-3.24,-3.425,-3.5572,-3.6456,-3.6804,-3.4966,-3.3128,-3.1425,-2.939,-2.7178,-2.491,-2.2443,-2.193,-2.2421,-2.2636,-2.4008,-2.6102,-2.807,-2.9889,-3.1394,-3.2212,-3.2727,-3.2754,0.0,0.0,0.0,0.0,0.0,0.0,0.0,0.0,0.0,0.0,0.0,0.0,0.0,0.0,-2.618,0.0,0.0,-2.559,-2.436,-2.2719,-2.1046,-1.9879,-1.9736,-1.9572,-1.9336,-2.0112,-2.078,-2.1115,-2.1889,-2.2496,-2.2849,-2.345,-2.4114,-2.476,-2.5078,-2.5208,-2.5439,-2.5076,-2.5044,-2.5461,-2.5115,-2.4988,-2.5001,-2.5008,-2.4956,-2.506,-2.5407,-2.5476,-2.5357,-2.5291,-2.476,-2.4088,-2.3893,-2.4119,-2.4539,-2.4602,-2.5233,-2.6173,-2.6328,-2.7593,-2.9237,0.0,0.0,0.0,0.0,0.0,0.0,0.0,0.0,0.0,0.0,0.0,-3.1386,-3.1668,-2.9842,-2.7617,0.0,0.0,0.0,0.0,-2.0699,-1.9827,-1.8466,-1.7313,-1.6637,-1.641,-1.6771,-1.8181,-2.0819,-2.243,-2.4554,-2.7258,-2.9563,-3.1384,-3.2918,-3.4733,-3.5679,-3.6114,-3.471,-3.3544,-3.2271,-3.0411,-2.9194,-2.8331,-2.601,-2.5374,-2.5546,-2.5137,-2.613,-2.7849,-2.9273,-3.0477,-3.1553,-3.2922,-3.3128,-3.2509,-3.121,-2.9834,0.0,0.0,0.0,0.0,0.0,0.0,0.0,0.0,0.0,-2.4956,-2.6796,-2.7935,-2.8871,-2.9659,-2.8496,-2.6875,-2.5031,-2.2897,-2.1099,-1.9919,-1.9762,-1.9756,-1.9866,-2.0658,-2.1227,-2.1156,-2.2201,-2.2803,-2.2543,-2.3383,-2.4122,-2.4466,-2.4524,-2.4709,-2.5044,-2.4913,-2.5053,-2.5242,-2.5545,-2.5477,-2.4976,-2.4828,-2.4901,-2.5177,-2.521,-2.5127,-2.5143,-2.5007,-2.4792,-2.4661,-2.4278,-2.4128,-2.4239,-2.459,-2.5255,-2.5916,-2.6482,-2.7764,-2.9343,0.0,0.0,0.0,0.0,0.0,0.0,0.0,0.0,0.0,0.0,0.0,0.0,0.0,0.0,0.0,0.0,0.0,0.0,-1.9851,-1.9591,-1.8882,-1.752,-1.6042,-1.5502,-1.5798,-1.6926,-1.8571,-2.0513,-2.2758,-2.5009,-2.7144,-2.8408,-2.9774,-3.1159,-3.2534,-3.3428,-3.409,-3.3572,-3.272,-3.1703,-3.1063,-3.0376,-2.97,-3.0536,-2.9909,-2.8405,-2.8028,-2.8562,-2.9449,-2.9909,-3.0984,-3.2019,-3.1663,-3.2176,-3.2448,-2.9984,0.0,-2.8836,-2.8203,-2.7641,-2.6918,-2.5691,-2.5093,-2.5152,0.0,0.0,-2.6858,-2.8986,-2.9995,-3.0392,-2.9874,-2.8787,-2.7089,-2.439,-2.2441,-2.0974,-2.0268,-1.992,-2.0012,-2.0474,-2.1413,-2.1814,-2.126,-2.1799,-2.2208,-2.2177,-2.3126,-2.3991,-2.4792,-2.5099,-2.5422,-2.5648,-2.5147,-2.4787,-2.4838,-2.5412,-2.5617,-2.5566,-2.5052,-2.5099,-2.5662,-2.5982,-2.605,-2.5898,-2.5192,-2.5133,-2.557,-2.4165,-2.3904,-2.4239,-2.459,-2.5476,-2.6482,-2.6591,-2.7979,-2.9889,0.0,0.0,0.0,0.0,0.0,0.0,0.0,0.0,0.0,0.0,0.0,0.0,0.0,0.0,0.0,0.0,0.0,0.0,-1.8737,-1.8464,-1.7645,-1.5983,-1.5363,-1.5193,-1.5618,-1.7088,-1.8949,-2.0975,-2.282,-2.4623,-2.6156,-2.7296,-2.8411,-2.9496,-3.1251,-3.2446,-3.3256,-3.378,-3.3444,-3.2561,-3.2438,-3.1862,-3.115,-3.2131,-3.221,-3.1507,-3.0011,-2.987,0.0,0.0,-3.0318,-3.092,-3.1229,-3.1275,-3.0778,-2.9534,-2.9499,0.0,-2.9283,-2.7901,0.0,0.0,-2.5265,-2.5024,-2.6088,-2.6542,-2.7494,-2.9682,-3.0796,-3.1231,-3.0585,-2.8941,-2.6857,0.0,-2.2266,-2.0931,-2.0509,-2.0602,-2.0823,-2.1231,-2.1613,-2.1494,-2.067,-2.1234,-2.1714,-2.205,-2.2812,-2.3764,-2.5116,-2.536,-2.5587,-2.6039,-2.5769,-2.5698,-2.5716,-2.5683,-2.5787,-2.6031,-2.5579,-2.5466,-2.577,-2.5883,-2.6136,-2.6381,-2.5483,-2.5475,-2.6004,-2.4502,-2.4016,-2.4016,-2.3809,-2.4923,-2.6591,-2.6591,-2.7657,-2.9046,0.0,0.0,0.0,0.0,0.0,0.0,0.0,0.0,0.0,0.0,0.0,0.0,0.0,0.0,0.0,0.0,0.0,0.0,0.0,-1.7992,-1.7016,-1.5507,-1.511,-1.528,-1.6068,-1.7373,-1.9266,-2.1697,-2.2911,-2.4177,-2.5287,-2.6087,-2.6792,-2.7455,-2.9699,-3.0999,-3.1817,-3.3231,-3.3585,-3.3233,-3.349,-3.32,-3.2822,-3.3598,-3.3872,-3.3715,-3.1599,-3.1051,0.0,0.0,-3.0055,-3.0241,-3.0759,-3.0378,-2.9829,-2.9559,-2.9921,-3.0369,-3.001,0.0,0.0,-2.6918,-2.6005,-2.5511,-2.628,-2.6937,-2.8066,-3.0275,-3.131,-3.1488,-3.085,-2.8806,-2.6434,-2.3954,-2.2091,-2.0802,-2.0851,-2.0914,-2.1188,-2.1437,-2.1383,-2.1018,-1.9924,-2.0464,-2.1143,-2.1695,-2.245,-2.3585,-2.5189,-2.5422,-2.5813,-2.6376,-2.6359,-2.6211,-2.6122,-2.5898,-2.5898,-2.6122,-2.5898,-2.5793,-2.5856,-2.5745,-2.5998,-2.6583,-2.5523,-2.5395,-2.5957,-2.4675,-2.4128,-2.3921,-2.3231,-2.4016,-2.5697,-2.6373,-2.7116,-2.7872,0.0,0.0,0.0,0.0,0.0,0.0,0.0,0.0,0.0,0.0,0.0,0.0,0.0,0.0,0.0,0.0,0.0,0.0,0.0,-1.8338,-1.7447,-1.6607,-1.5293,-1.5421,-1.7337,-1.802,-1.9631,-2.2357,-2.3176,-2.3937,-2.4792,-2.4623,-2.4785,-2.5276,-2.7031,-2.8395,-2.9617,-3.1431,-3.2506,-3.326,-3.3918,-3.4394,-3.4664,-3.5314,-3.5358,-3.4804,-3.2982,0.0,0.0,0.0,-3.0643,-3.0542,-2.9647,-2.9773,0.0,-3.0057,-3.0401,-3.0689,0.0,0.0,-2.9532,-2.857,-2.7911,-2.7447,-2.7676,-2.7879,-2.871,-3.0977,-3.1443,-3.1047,-3.0307,-2.8219,-2.5863,-2.3424,-2.1459,-2.0472,-2.1117,-2.0902,-2.0735,-2.1197,-2.0831,-2.0182,0.0,-1.9779,-2.0471,-2.0689,-2.1869,-2.321,-2.4795,-2.5509,-2.6169,-2.6713,-2.6471,-2.6069,-2.5697,-2.5697,-2.5697,-2.5697,-2.5697,-2.5909,-2.6282,-2.5926,-2.6039,-2.6264,-2.5207,-2.4923,-2.5128,-2.4462,-2.4223,-2.4128,-2.3344,-2.3022,-2.3344,-2.5697,-2.6591,-2.67,0.0,0.0,0.0,0.0,0.0,0.0,0.0,0.0,0.0,0.0,0.0,0.0,0.0,0.0,0.0,0.0,0.0,0.0,0.0,-1.9146,-1.8209,-1.6978,-1.6794,-1.7287,-1.8534,-1.9642,-2.12,-2.3451,-2.3487,-2.3796,-2.4367,-2.3764,-2.3823,-2.4465,-2.6132,-2.7679,-2.9531,-3.1833,-3.316,-3.355,-3.5043,-3.5328,-3.4899,-3.5831,-3.5511,-3.4566,0.0,0.0,0.0,0.0,-2.9707,-2.9511,-2.9278,-2.8962,0.0,-3.1008,-3.119,-3.1204,-3.3437,0.0,-3.0518,-3.0264,-2.868,-2.7191,-2.7169,-2.7453,-2.8099,-2.9598,-3.0201,-3.013,-2.9348,-2.7249,-2.5226,-2.3431,-2.1976,-2.1264,-2.1686,-2.185,-2.1841,-2.1739,-2.0786,0.0,0.0,0.0,0.0,-2.0332,-2.1612,-2.3183,-2.5155,-2.614,-2.7062,-2.7755,-2.7482,-2.7137,-2.6755,-2.6262,-2.6136,-2.6245,-2.6026,-2.6098,-2.6113,-2.5892,-2.5904,-2.6246,-2.5395,-2.5318,-2.5726,-2.4709,-2.4351,-2.4479,-2.3472,-2.3472,-2.4256,-2.5145,-2.6014,-2.6906,0.0,0.0,0.0,0.0,0.0,0.0,0.0,0.0,0.0,0.0,0.0,0.0,0.0,0.0,0.0,0.0,0.0,0.0,0.0,0.0,-1.9353,-1.8025,-1.8069,-1.8464,-1.931,-2.0616,-2.1912,-2.3475,-2.3528,-2.3553,-2.3599,-2.2946,-2.2935,-2.3695,-2.5219,-2.6889,-2.8865,-3.1668,-3.3075,-3.3709,-3.5441,-3.599,-3.5603,-3.6101,-3.5826,0.0,0.0,0.0,0.0,-3.0177,-2.9721,-2.9965,-2.9811,-3.0052,-3.0668,-3.2119,-3.2599,-3.3162,-3.5376,-3.4093,-3.2208,-3.2034,-3.0026,-2.8218,-2.811,-2.7927,-2.8043,-2.8963,-2.9297,-2.9131,-2.8201,-2.6332,-2.4474,-2.3095,-2.2055,-2.157,-2.2017,-2.227,-2.2387,-2.1806,-2.0834,0.0,0.0,0.0,0.0,-1.9566,-2.1033,-2.2772,-2.4862,-2.6317,-2.7335,-2.8155,-2.8228,-2.8011,-2.751,-2.7234,-2.7032,-2.6903,-2.6409,-2.6118,-2.6118,-2.5789,-2.5821,-2.594,-2.5453,-2.543,-2.5613,-2.4821,-2.459,-2.4701,-2.3921,-2.3809,-2.4144,-2.4144,-2.5078,-2.6261,0.0,0.0,0.0,0.0,0.0,0.0,0.0,0.0,0.0,0.0,0.0,0.0,0.0,0.0,0.0,0.0,0.0,0.0,0.0,0.0,0.0,-1.9703,-1.8953,-1.902,-1.9833,-2.0891,-2.1909,-2.2791,-2.3117,-2.3048,-2.2692,-2.2215,-2.2284,-2.2745,-2.4272,-2.6012,-2.7927,-3.0763,-3.2525,-3.3688,-3.5326,-3.6308,-3.6665,-3.6185,0.0,0.0,0.0,0.0,0.0,0.0,0.0,0.0,0.0,-3.2643,-3.4445,-3.3329,-3.4547,-3.6203,-3.5895,-3.5098,-3.419,-3.3965,-3.2219,-3.0404,-3.0063,-2.8996,-2.8428,-2.9189,-2.8745,-2.7879,0.0,0.0,-2.3874,-2.2437,-2.173,-2.1459,-2.19,-2.2365,-2.2348,0.0,0.0,0.0,0.0,0.0,0.0,-1.8335,0.0,-2.2024,-2.3991,-2.6014,-2.7252,-2.7939,-2.8505,-2.8667,-2.8257,-2.8559,-2.8333,-2.7586,-2.6555,-2.6154,-2.6118,-2.5789,-2.5586,-2.5366,-2.5366,-2.5145,-2.4812,-2.4812,-2.4812,-2.4812,-2.4701,-2.3921,-2.2909,-2.2859,-2.3724,-2.4546,0.0,0.0,0.0,0.0,0.0,0.0,0.0,0.0,0.0,0.0,0.0,0.0,0.0,0.0,0.0,0.0,0.0,0.0,0.0,0.0,0.0,0.0,0.0,0.0,0.0,0.0,0.0,0.0,0.0,-2.2997,-2.3118,-2.2796,-2.3119,-2.3962,-2.4944,-2.67,-2.91,-3.1095,-3.2927,-3.4527,0.0,-3.6501,-3.677,0.0,0.0,0.0,0.0,0.0,0.0,0.0,0.0,0.0,0.0,-3.3401,-3.4415,-3.4653,-3.5672,-3.6822,-3.7757,-3.7268,-3.6335,-3.568,-3.373,-3.1507,-3.0584,-2.9579,-2.881,-2.8577,-2.7971,-2.7276,0.0,0.0,0.0,-2.2469,-2.2154,0.0,-2.2559,-2.2633,0.0,-2.1538,0.0,-1.8824,-1.7291,-1.6763,0.0,0.0,-2.0132,-2.2379,-2.438,-2.6419,-2.7557,-2.7997,-2.881,-2.8978,-2.8357,-2.8596,-2.8333,-2.7586,-2.6939,-2.6406,-2.6118,-2.5569,-2.5348,-2.5366,-2.5366,-2.5145,-2.4812,-2.4812,-2.4812,-2.4701,-2.3809,-2.2667,-2.1665,-2.1548,-2.1216,-2.041,0.0,0.0,0.0,0.0,0.0,0.0,0.0,0.0,0.0,0.0,0.0,0.0,0.0,0.0,0.0,0.0,0.0,0.0,0.0,0.0,0.0,0.0,0.0,0.0,0.0,0.0,0.0,0.0,0.0,0.0,0.0,-2.2538,-2.3149,-2.4447,-2.5177,-2.6953,-2.9325,-3.1269,0.0,0.0,0.0,0.0,0.0,0.0,0.0,0.0,0.0,0.0,0.0,0.0,0.0,-3.4355,-3.4266,-3.5039,-3.5757,-3.5929,0.0,-3.7758,-3.8479,-3.8226,-3.7692,-3.6859,-3.4939,-3.2855,-3.172,-3.0143,-2.8797,-2.7879,-2.7131,0.0,0.0,0.0,0.0,0.0,0.0,0.0,-2.279,-2.2927,-2.2686,0.0,-2.0524,0.0,-1.7213,-1.688,-1.7089,0.0,-1.9976,-2.1933,-2.3823,-2.5806,-2.733,-2.8043,-2.8929,-2.9456,-2.9483,-2.9394,-2.9067,-2.8201,-2.7679,-2.705,-2.6336,-2.599,-2.5679,-2.5586,0.0,-2.5089,-2.3819,-2.3819,-2.3888,-2.3921,-2.3231,-2.2236,-2.099,-1.9916,-1.8536,-1.7001,0.0,0.0,0.0,0.0,0.0,0.0,0.0,0.0,0.0,0.0,0.0,0.0,0.0,0.0,0.0,0.0,0.0,0.0,0.0,0.0,0.0,0.0,0.0,0.0,0.0,0.0,0.0,0.0,0.0,0.0,0.0,0.0,0.0,0.0,0.0,0.0,0.0,0.0,0.0,0.0,0.0,0.0,0.0,0.0,0.0,0.0,0.0,0.0,0.0,0.0,-3.6038,-3.567,-3.5779,-3.6608,-3.7473,-3.6706,-3.7494,-3.8582,-3.8286,-3.8491,-3.8451,-3.7644,-3.6164,-3.4415,-3.2892,-3.0735,-2.8751,-2.7397,0.0,-2.5334,-2.4094,0.0,-2.2722,-2.1854,0.0,-2.2414,-2.278,-2.3146,-2.3083,-2.21,-2.0937,-1.9367,-1.7409,-1.7314,-1.7723,-1.8454,-1.9512,-2.1121,-2.326,-2.5114,-2.6895,-2.8342,-2.9057,-2.9903,-3.0879,-3.0564,-3.0,-2.9122,-2.8458,-2.7582,-2.6645,-2.6663,-2.6336,-2.5789,0.0,0.0,-2.2826,-2.2536,-2.26,-2.3022,-2.2667,-2.186,-2.0585,-1.8117,-1.6183,-1.4408,0.0,0.0,0.0,0.0,0.0,0.0,0.0,0.0,0.0,0.0,0.0,0.0,0.0,0.0,0.0,0.0,0.0,0.0,0.0,0.0,0.0,0.0,0.0,0.0,0.0,0.0,0.0,0.0,0.0,0.0,0.0,0.0,0.0,0.0,0.0,0.0,0.0,0.0,0.0,0.0,0.0,0.0,0.0,0.0,0.0,0.0,0.0,0.0,0.0,0.0,-3.6849,-3.7108,-3.6835,-3.6767,-3.672,-3.6352,-3.7006,-3.7787,-3.7908,-3.8561,-3.8837,-3.8028,-3.6834,-3.5369,-3.3378,-3.1439,0.0,0.0,0.0,-2.5077,-2.4472,-2.3427,0.0,-2.2115,0.0,0.0,0.0,0.0,-2.2581,0.0,0.0,0.0,0.0,0.0,0.0,0.0,0.0,0.0,-2.3792,-2.5593,-2.7518,-2.958,-2.9774,-3.0274,-3.1208,-3.1003,-3.0452,-2.9458,-2.879,-2.791,-2.6971,-2.6754,-2.6554,-2.6482,0.0,0.0,-2.4224,-2.2133,-2.1964,-2.278,-2.0845,-1.9826,-1.9193,-1.6793,-1.471,-1.3095,0.0,0.0,0.0,0.0,0.0,0.0,0.0,0.0,0.0,0.0,0.0,0.0,0.0,0.0,0.0,0.0,0.0,0.0,0.0,0.0,0.0,0.0,0.0,0.0,0.0,0.0,0.0,0.0,0.0,0.0,0.0,0.0,0.0,0.0,0.0,0.0,0.0,0.0,0.0,0.0,0.0,0.0,0.0,0.0,0.0,0.0,0.0,0.0,0.0,0.0,-3.7349,-3.7164,-3.6619,-3.6159,-3.5789,-3.5998,-3.6554,-3.7144,-3.7609,-3.823,-3.8426,-3.8067,-3.6796,-3.5182,-3.3633,0.0,0.0,0.0,-2.6434,-2.5057,-2.4322,0.0,0.0,0.0,0.0,0.0,0.0,0.0,0.0,0.0,0.0,0.0,0.0,0.0,0.0,0.0,0.0,0.0,-2.3214,-2.575,-2.7869,-2.9389,-3.0106,-3.0839,-3.1556,-3.1459,-3.0902,-3.0016,-2.9451,-2.8474,-2.7206,-2.7098,-2.6881,-2.6536,0.0,0.0,-2.2626,-2.1402,-2.1324,-2.1774,-1.9345,-1.7912,-1.7077,-1.5283,-1.3197,-1.1262,0.0,0.0,0.0,0.0,0.0,0.0,0.0,0.0,0.0,0.0,0.0,0.0,0.0,0.0,0.0,0.0,0.0,0.0,0.0,0.0,0.0,0.0,0.0,0.0,0.0,0.0,0.0,0.0,0.0,0.0,0.0,0.0,0.0,0.0,0.0,0.0,0.0,0.0,0.0,0.0,0.0,0.0,0.0,0.0,0.0,0.0,0.0,0.0,0.0,0.0,-3.7723,-3.7045,-3.6203,-3.5402,-3.4816,-3.5519,-3.5929,-3.6479,-3.7332,-3.7747,-3.7849,-3.7671,-3.6455,-3.4853,-3.3475,-3.1406,0.0,0.0,-2.6367,-2.5039,-2.4179,0.0,0.0,0.0,0.0,0.0,0.0,0.0,0.0,0.0,0.0,0.0,0.0,0.0,0.0,0.0,0.0,0.0,0.0,-2.5837,-2.7957,-2.9112,-3.0344,-3.129,-3.1903,-3.1697,-3.1157,-3.046,-2.9916,-2.8829,-2.7422,-2.7422,-2.7116,-2.6518,0.0,0.0,0.0,-2.0721,-2.05,-2.0169,-1.7948,-1.6301,-1.5007,-1.3803,-1.176,-0.97,0.0,0.0,0.0,0.0,0.0,0.0,0.0,0.0,0.0,0.0,0.0,0.0,0.0,0.0,0.0,0.0,0.0,0.0,0.0,0.0,0.0,0.0,0.0,0.0,0.0,0.0,0.0,0.0,0.0,0.0,0.0,0.0,0.0,0.0,0.0,0.0,0.0,0.0,0.0,0.0,0.0,0.0,0.0,0.0,0.0,0.0,0.0,0.0,0.0,0.0,0.0,-3.7329,-3.5936,-3.4835,-3.4026,-3.4442,0.0,0.0,-3.644,-3.6936,-3.7319,-3.6855,-3.6327,-3.5093,-3.3001,0.0,0.0,-2.8129,-2.6239,-2.4804,-2.447,-2.3418,-2.2734,0.0,0.0,0.0,0.0,0.0,0.0,0.0,0.0,0.0,0.0,0.0,0.0,0.0,0.0,0.0,0.0,-2.61,-2.7797,-2.9313,-3.0274,-3.1228,-3.2248,-3.1746,-3.1072,-3.046,-2.9595,-2.8641,-2.7638,-2.753,-2.7116,-2.6573,0.0,0.0,0.0,-1.9863,-1.8905,-1.7713,-1.6301,-1.4997,-1.3684,-1.2492,-1.1042,-0.9457,0.0,0.0,0.0,0.0,0.0,0.0,0.0,0.0,0.0,0.0,0.0,0.0,0.0,0.0,0.0,0.0,0.0,0.0,0.0,0.0,0.0,0.0,0.0,0.0,0.0,0.0,0.0,0.0,0.0,0.0,0.0,0.0,0.0,0.0,0.0,0.0,0.0,0.0,0.0,0.0,0.0,0.0,0.0,0.0,0.0,0.0,0.0,0.0,0.0,0.0,0.0,0.0,-3.6251,-3.491,0.0,0.0,-3.4427,-3.4699,-3.5205,-3.5607,-3.5774,-3.5092,-3.4356,-3.327,-3.1346,0.0,-2.9199,-2.7796,-2.6432,-2.5225,-2.4619,-2.3446,-2.2695,0.0,0.0,0.0,0.0,0.0,0.0,0.0,0.0,0.0,0.0,0.0,0.0,0.0,0.0,0.0,0.0,-2.583,-2.7539,-2.9094,-3.0236,-3.1285,-3.2227,-3.1705,-3.1141,-3.0791,-2.9447,-2.8418,-2.7582,-2.6883,-2.6227,-2.5459,0.0,0.0,0.0,-1.7053,-1.5224,-1.4033,-1.3555,-1.2475,-1.1148,-0.9943,-0.8848,-0.7872,0.0,0.0,0.0,0.0,0.0,0.0,0.0,0.0,0.0,0.0,0.0,0.0,0.0,0.0,0.0,0.0,0.0,0.0,0.0,0.0,0.0,0.0,0.0,0.0,0.0,0.0,0.0,0.0,0.0,0.0,0.0,0.0,0.0,0.0,0.0,0.0,0.0,0.0,0.0,0.0,0.0,0.0,0.0,0.0,0.0,0.0,0.0,0.0,0.0,0.0,0.0,0.0,0.0,0.0,0.0,0.0,-3.3759,-3.3659,-3.4001,-3.4057,-3.3747,-3.3162,-3.2294,-3.1264,0.0,0.0,-2.8507,-2.7301,-2.6212,-2.5261,-2.4534,-2.349,-2.2847,0.0,0.0,-2.4663,0.0,0.0,0.0,0.0,0.0,0.0,0.0,0.0,0.0,0.0,0.0,0.0,0.0,-2.5485,-2.7123,-2.891,-2.9833,-3.0794,-3.1726,-3.1216,-3.0717,-3.0368,-2.8937,-2.7879,-2.7105,-2.6277,-2.5318,0.0,0.0,0.0,0.0,-1.4942,-1.2708,-1.1405,-1.0906,-0.9863,-0.8588,-0.7728,-0.6984,-0.6243,0.0,0.0,0.0,0.0,0.0,0.0,0.0,0.0,0.0,0.0,0.0,0.0,0.0,0.0,0.0,0.0,0.0,0.0,0.0,0.0,0.0,0.0,0.0,0.0,0.0,0.0,0.0,-2.3325,-2.4175,0.0,0.0,0.0,0.0,0.0,0.0,0.0,0.0,0.0,0.0,0.0,0.0,0.0,0.0,0.0,0.0,0.0,0.0,0.0,0.0,0.0,0.0,0.0,0.0,0.0,0.0,0.0,-3.3001,-3.2275,-3.2723,-3.2096,-3.1351,-3.121,-3.0719,-2.9996,0.0,0.0,-2.7605,-2.6802,-2.5448,-2.4384,-2.4237,-2.3798,-2.3478,-2.3454,-2.5047,0.0,0.0,0.0,0.0,0.0,0.0,0.0,0.0,0.0,0.0,0.0,0.0,0.0,0.0,0.0,-2.6777,-2.87,-2.9013,-2.959,-3.048,-3.0037,-2.9599,-2.9055,-2.7937,-2.6971,-2.6154,-2.5743,0.0,0.0,0.0,0.0,0.0,-1.4029,-1.2316,-1.0664,-0.8708,-0.7127,-0.6038,-0.6046,-0.5665,-0.5144,0.0,0.0,0.0,0.0,0.0,0.0,0.0,0.0,0.0,0.0,0.0,0.0,0.0,0.0,0.0,0.0,0.0,0.0,0.0,0.0,0.0,0.0,0.0,0.0,0.0,0.0,-2.5147,-2.5884,-2.6088,-2.6256,-2.6348,0.0,0.0,0.0,0.0,0.0,0.0,0.0,0.0,0.0,0.0,0.0,0.0,0.0,0.0,0.0,0.0,0.0,0.0,0.0,0.0,0.0,0.0,0.0,0.0,-3.292,0.0,0.0,-2.9567,-2.8416,-2.7382,-2.65,-2.6598,-2.6588,-2.5702,-2.5962,-2.6235,-2.5701,-2.4868,-2.4198,-2.4214,-2.372,-2.366,-2.4986,-2.5681,0.0,0.0,0.0,0.0,0.0,0.0,0.0,0.0,0.0,0.0,0.0,0.0,0.0,0.0,0.0,-2.5845,-2.8044,-2.9199,-2.9813,-3.0147,-2.9928,-2.947,-2.8687,-2.7157,-2.6116,-2.5267,-2.404,0.0,0.0,0.0,0.0,0.0,-1.3662,-1.1576,-0.9836,-0.9004,-0.7891,-0.6682,-0.6306,-0.5665,-0.5144,0.0,0.0,0.0,0.0,0.0,0.0,0.0,0.0,0.0,0.0,0.0,0.0,0.0,0.0,0.0,0.0,0.0,0.0,0.0,0.0,0.0,0.0,0.0,0.0,0.0,-2.6505,-2.7265,-2.7978,-2.8234,-2.8229,-2.7944,-2.8267,-2.8778,0.0,0.0,0.0,0.0,0.0,0.0,0.0,0.0,0.0,-3.0951,0.0,0.0,0.0,0.0,0.0,0.0,0.0,0.0,0.0,0.0,0.0,0.0,0.0,-2.9661,-2.761,0.0,-2.5737,-2.4296,-2.3591,-2.3932,0.0,0.0,-2.4405,-2.4977,-2.4261,-2.3658,-2.3289,-2.3016,-2.2932,-2.3327,-2.4588,-2.5643,0.0,0.0,0.0,0.0,0.0,0.0,0.0,0.0,0.0,0.0,0.0,0.0,0.0,0.0,0.0,-2.455,-2.637,-2.8138,-2.8991,-2.8991,-2.8937,-2.8346,-2.7233,-2.5878,-2.4726,-2.3696,0.0,0.0,0.0,0.0,0.0,0.0,-1.3198,-1.1091,-0.908,-0.8194,-0.6993,-0.5706,-0.5192,-0.4562,-0.4052,0.0,0.0,0.0,0.0,0.0,0.0,0.0,0.0,0.0,0.0,0.0,0.0,0.0,0.0,0.0,0.0,0.0,0.0,0.0,0.0,0.0,0.0,0.0,0.0,0.0,-2.8897,-2.969,-2.9546,-3.0481,-3.0464,-2.9578,-2.9688,-3.0072,-3.0637,-3.1174,0.0,0.0,0.0,0.0,0.0,0.0,0.0,0.0,0.0,0.0,0.0,0.0,0.0,0.0,0.0,0.0,0.0,0.0,0.0,0.0,0.0,0.0,0.0,0.0,-2.3653,0.0,0.0,0.0,0.0,-2.2814,-2.3371,0.0,-2.2443,-2.2063,-2.1748,-2.117,-2.1812,-2.2611,-2.3068,-2.5232,0.0,0.0,0.0,0.0,0.0,0.0,0.0,0.0,0.0,0.0,0.0,0.0,0.0,0.0,0.0,0.0,-2.393,-2.6078,-2.7168,-2.7276,-2.7168,-2.6518,-2.511,-2.4128,-2.3051,-2.1744,0.0,0.0,0.0,0.0,0.0,0.0,-1.2665,-1.0705,-0.844,-0.6617,-0.4876,-0.3562,-0.3169,-0.2663,-0.2284,0.0,0.0,0.0,0.0,0.0,0.0,0.0,0.0,0.0,0.0,0.0,0.0,0.0,0.0,0.0,0.0,0.0,0.0,0.0,0.0,0.0,0.0,0.0,0.0,0.0,-3.0238,-3.0795,-3.1344,-3.1995,-3.2216,-3.1979,-3.2705,-3.2921,-3.2735,-3.2855,0.0,0.0,0.0,0.0,0.0,0.0,0.0,0.0,0.0,0.0,0.0,-3.3122,-3.2803,0.0,0.0,0.0,0.0,0.0,0.0,0.0,0.0,-2.6603,-2.3587,-2.1866,0.0,-1.8568,-1.8434,-1.8905,-1.9672,0.0,-2.1278,-2.1748,-2.1517,0.0,-2.0488,-2.138,-2.1192,-2.1851,-2.4805,0.0,0.0,0.0,0.0,0.0,0.0,0.0,0.0,0.0,0.0,0.0,0.0,0.0,0.0,0.0,0.0,0.0,-2.3084,-2.4416,-2.5433,-2.6185,-2.5398,-2.4671,-2.4223,-2.2528,-2.119,-2.0115,0.0,0.0,0.0,0.0,0.0,-1.3284,-1.2203,-1.047,-0.8451,-0.6827,-0.4948,-0.2944,-0.2143,-0.2014,-0.2289,0.0,0.0,0.0,0.0,0.0,0.0,0.0,0.0,0.0,0.0,0.0,0.0,0.0,0.0,0.0,0.0,0.0,0.0,0.0,0.0,0.0,0.0,0.0,0.0,-3.1731,-3.2277,-3.2937,-3.3547,-3.403,-3.4016,-3.3643,-3.401,-3.3857,-3.3537,-3.3376,0.0,0.0,0.0,0.0,0.0,0.0,0.0,0.0,0.0,0.0,0.0,-3.2598,-3.1975,0.0,-3.0767,-3.0803,-3.0993,0.0,0.0,0.0,0.0,-2.5396,-2.2539,-2.0381,-1.9273,-1.8567,-1.804,-1.8982,-2.015,-2.0683,0.0,0.0,0.0,0.0,0.0,0.0,0.0,0.0,0.0,0.0,0.0,0.0,0.0,0.0,0.0,0.0,0.0,0.0,0.0,0.0,0.0,0.0,0.0,0.0,0.0,0.0,0.0,-2.1969,-2.3187,-2.4998,-2.409,-2.3166,-2.2414,-2.0709,-1.9389,-1.8337,0.0,0.0,0.0,0.0,0.0,-1.2231,-1.1646,-1.0191,-0.8063,-0.6211,-0.4303,-0.2422,-0.1481,-0.1077,-0.1346,0.0,0.0,0.0,0.0,0.0,0.0,0.0,0.0,0.0,0.0,0.0,0.0,0.0,0.0,0.0,0.0,0.0,0.0,0.0,0.0,0.0,0.0,0.0,-3.2858,-3.3516,-3.455,-3.5201,-3.5562,-3.6109,-3.5985,-3.512,-3.4736,-3.4274,-3.3704,-3.3405,-3.3305,0.0,0.0,0.0,0.0,-3.1567,0.0,0.0,0.0,0.0,0.0,0.0,0.0,0.0,-2.9745,-2.9638,-2.9603,-2.8882,0.0,0.0,0.0,0.0,0.0,-2.0151,-2.0024,-2.0079,-1.8795,-2.0079,-2.1621,-2.1624,0.0,0.0,0.0,0.0,0.0,0.0,0.0,0.0,0.0,0.0,0.0,0.0,0.0,0.0,0.0,0.0,0.0,0.0,0.0,0.0,0.0,0.0,0.0,0.0,0.0,0.0,0.0,-1.957,-2.0891,-2.3071,-2.2558,-2.1576,-2.0233,-1.8954,-1.7789,-1.6635,-1.5455,0.0,0.0,0.0,0.0,-1.1061,-1.1267,-0.9648,-0.7078,-0.4882,-0.3228,-0.1885,-0.0943,-0.0404,-0.0135,0.0,0.0,0.0,0.0,0.0,0.0,0.0,0.0,0.0,0.0,0.0,0.0,0.0,0.0,0.0,0.0,0.0,0.0,0.0,0.0,0.0,0.0,0.0,-3.5251,-3.6007,-3.6196,-3.6347,-3.6341,-3.7312,-3.7515,-3.7216,-3.7427,-3.6498,-3.4751,-3.3887,-3.3295,-3.2949,-3.2755,-3.2503,-3.2288,-3.2754,0.0,0.0,0.0,0.0,0.0,0.0,0.0,0.0,-2.7369,-2.7695,-2.81,-2.6137,0.0,0.0,0.0,0.0,0.0,-2.1063,-2.1431,-2.1067,-1.7983,-1.8898,-2.0566,-2.0751,-2.1022,0.0,0.0,0.0,0.0,0.0,0.0,0.0,0.0,0.0,0.0,0.0,0.0,0.0,0.0,0.0,0.0,0.0,0.0,0.0,0.0,0.0,0.0,0.0,0.0,0.0,0.0,0.0,-1.9027,-1.9666,-1.9521,-1.9327,-1.8915,-1.7341,-1.6117,-1.5228,-1.3769,-1.2594,0.0,0.0,-1.1114,-1.0699,-1.1266,-0.8863,-0.4738,-0.3102,-0.2019,-0.1212,-0.0404,0.0,0.0,0.0,0.0,0.0,0.0,0.0,0.0,0.0,0.0,0.0,0.0,0.0,0.0,0.0,0.0,0.0,0.0,0.0,0.0,0.0,0.0,0.0,0.0,-3.6825,-3.7044,-3.7016,-3.7236,-3.7569,-3.7768,-3.8532,-3.8718,-3.8342,-3.7326,-3.6195,-3.5129,-3.3835,-3.3228,-3.3187,-3.3341,-3.3107,-3.2748,0.0,0.0,0.0,0.0,0.0,0.0,0.0,0.0,0.0,0.0,-2.7005,-2.7182,-2.5652,0.0,0.0,0.0,0.0,0.0,-2.0308,-2.0695,-2.0839,-1.8705,-2.0832,-2.351,-2.3494,-2.3389,0.0,0.0,0.0,0.0,0.0,0.0,0.0,0.0,0.0,0.0,0.0,0.0,0.0,0.0,0.0,0.0,0.0,0.0,0.0,0.0,0.0,0.0,0.0,0.0,0.0,0.0,0.0,0.0,-1.7955,-1.7737,-1.7467,-1.7132,-1.5803,-1.4518,-1.3311,-1.2033,-1.1049,-1.0266,0.0,-1.0019,-0.9712,-0.8318,-0.6324,-0.4174,-0.2692,-0.2019,-0.1616,-0.0404,0.0269,0.0539,0.0,0.0,0.0,0.0,0.0,0.0,0.0,0.0,0.0,0.0,0.0,0.0,0.0,0.0,0.0,0.0,0.0,0.0,0.0,0.0,-3.5277,-3.6792,-3.7643,-3.8196,-3.8198,-3.8422,-3.8742,-3.9216,-3.9488,-3.9352,-3.8859,-3.7036,-3.5868,-3.521,-3.3906,-3.3266,-3.3344,-3.3759,-3.3658,-3.3265,0.0,0.0,0.0,0.0,0.0,0.0,0.0,0.0,0.0,0.0,0.0,0.0,0.0,0.0,0.0,-2.4376,-2.2708,-2.125,-2.0041,-2.0232,-2.0722,-2.0301,0.0,-2.5555,-2.5951,-2.5762,0.0,0.0,0.0,0.0,0.0,0.0,0.0,0.0,0.0,0.0,0.0,0.0,0.0,0.0,0.0,0.0,0.0,0.0,0.0,0.0,0.0,0.0,0.0,0.0,0.0,0.0,0.0,0.0,-1.6506,-1.6238,-1.6012,-1.5814,-1.4318,-1.313,-1.2017,-1.0744,-0.9679,-0.9052,-0.917,-0.9056,-0.8544,-0.5502,-0.4308,-0.4174,-0.3098,-0.2425,-0.2019,-0.0539,0.04,0.0926,0.0,0.0,0.0,0.0,0.0,0.0,0.0,0.0,0.0,0.0,0.0,0.0,0.0,0.0,0.0,0.0,0.0,0.0,0.0,0.0,-3.4844,-3.5576,-3.6549,-3.8239,-4.0661,-4.0062,-3.9837,-4.015,-3.999,-3.944,-3.8599,-3.7861,-3.6675,-3.5115,-3.4245,-3.3421,-3.2798,-3.3583,-3.3832,-3.3692,-3.4513,0.0,0.0,0.0,0.0,0.0,0.0,0.0,0.0,0.0,0.0,0.0,0.0,0.0,-2.5191,-2.355,-2.1846,-2.0732,-2.1671,-2.1334,-2.1115,-2.2879,-2.3206,0.0,-2.5816,-2.6174,0.0,-2.7626,0.0,0.0,0.0,0.0,0.0,0.0,0.0,0.0,0.0,0.0,0.0,0.0,0.0,0.0,0.0,0.0,0.0,0.0,0.0,0.0,0.0,0.0,0.0,0.0,0.0,0.0,-1.4539,-1.5014,-1.5365,-1.545,-1.3314,-1.2353,-1.2363,-1.0373,-0.8734,-0.7665,-0.836,-0.806,-0.6962,-0.5093,-0.4308,-0.4308,-0.4174,-0.3367,-0.2019,-0.0539,0.0,0.0251,0.0,0.0,0.0,0.0,0.0,0.0,0.0,0.0,0.0,0.0,0.0,0.0,0.0,0.0,0.0,0.0,0.0,0.0,0.0,0.0,-3.3567,-3.5919,-3.6199,-3.74,-3.9839,-3.9393,-3.9257,-3.9679,-3.9473,-3.9066,-3.8366,-3.7842,-3.6689,-3.5274,-3.4515,-3.3857,-3.3326,-3.4081,-3.4144,-3.3819,-3.4502,-3.4222,0.0,0.0,0.0,0.0,0.0,0.0,0.0,0.0,-2.6249,-2.6509,0.0,0.0,-2.584,-2.4414,-2.2456,-2.0722,-2.0398,-2.0907,-2.1515,-2.1809,-2.3698,0.0,0.0,-2.8033,-2.8633,-2.933,-2.8914,0.0,0.0,0.0,0.0,0.0,0.0,0.0,0.0,0.0,0.0,0.0,0.0,0.0,0.0,0.0,0.0,0.0,0.0,0.0,0.0,0.0,0.0,0.0,0.0,0.0,0.0,-1.3725,-1.3655,-1.3232,-1.2217,-1.1158,-1.0109,-0.8621,-0.7568,-0.6853,-0.6183,-0.5169,-0.4018,-0.4208,-0.4744,-0.5376,-0.5572,-0.4741,-0.3079,-0.1861,-0.0779,0.0,0.0,0.0,0.0,0.0,0.0,0.0,0.0,0.0,0.0,0.0,0.0,0.0,0.0,0.0,0.0,0.0,0.0,0.0,0.0,0.0,-3.2274,-3.4916,-3.5116,-3.6123,-3.7934,-3.7455,-3.7772,-3.8991,-3.8608,-3.8189,-3.7884,-3.7406,-3.6616,-3.5763,-3.4842,-3.4382,-3.4238,-3.4281,-3.41,-3.3885,-3.4123,-3.3781,0.0,0.0,0.0,0.0,0.0,0.0,0.0,0.0,0.0,0.0,0.0,0.0,0.0,0.0,-2.2567,-2.1019,-1.9792,-2.0456,-2.161,-2.1768,0.0,0.0,-2.9075,-2.9963,-3.0354,-3.0766,-2.9594,0.0,0.0,0.0,0.0,0.0,0.0,0.0,0.0,0.0,0.0,0.0,0.0,0.0,0.0,0.0,0.0,0.0,0.0,0.0,0.0,0.0,0.0,0.0,0.0,0.0,0.0,-1.1921,-1.1837,-1.116,-1.0838,-1.004,-0.8664,-0.7403,-0.6181,-0.4978,-0.4063,-0.3015,-0.2229,-0.4063,-0.5558,-0.6742,-0.7017,-0.6169,-0.4591,-0.3318,-0.1949,-0.0741,0.0,0.0,0.0,0.0,0.0,0.0,0.0,0.0,0.0,0.0,0.0,0.0,0.0,0.0,0.0,0.0,0.0,0.0,0.0,0.0,-3.1021,-3.2027,-3.3223,-3.4344,-3.5333,-3.4551,-3.5381,-3.7994,-3.7352,-3.7077,-3.6985,-3.6741,-3.6625,-3.6548,-3.5435,-3.5079,-3.5289,-3.4017,-3.3642,-3.3832,-3.3462,-3.2722,-3.1759,0.0,0.0,0.0,0.0,0.0,0.0,0.0,-2.5959,0.0,0.0,0.0,0.0,0.0,-2.1815,-2.1613,-2.027,-2.0313,-2.1281,0.0,0.0,0.0,-3.0961,-3.1407,-3.1305,-3.1984,0.0,0.0,0.0,0.0,0.0,0.0,0.0,0.0,0.0,0.0,0.0,0.0,0.0,0.0,0.0,0.0,0.0,0.0,0.0,0.0,0.0,0.0,0.0,0.0,0.0,0.0,0.0,-0.9786,-0.9727,-0.9361,-0.9104,-0.8897,-0.8732,-0.7192,-0.4822,-0.1977,-0.1977,-0.1977,-0.2224,-0.481,-0.7014,-0.859,-0.8584,-0.7779,-0.6313,-0.4839,-0.3375,-0.1853,0.0,0.0,0.0,0.0,0.0,0.0,0.0,0.0,0.0,0.0,0.0,0.0,0.0,0.0,0.0,0.0,0.0,0.0,0.0,0.0,0.0,0.0,-3.1748,-3.2955,-3.483,0.0,-3.4393,-3.5214,-3.5253,-3.5338,-3.5632,-3.6612,-3.6297,-3.4967,-3.5564,-3.5098,-3.3881,-3.345,-3.301,-3.2671,-3.2987,-3.233,-3.1159,0.0,0.0,0.0,0.0,0.0,0.0,0.0,0.0,0.0,0.0,0.0,0.0,-2.202,-2.095,-2.003,-1.919,-2.0864,0.0,-2.3475,0.0,0.0,0.0,-3.1848,0.0,0.0,0.0,0.0,0.0,0.0,0.0,0.0,0.0,0.0,0.0,0.0,0.0,0.0,0.0,0.0,0.0,0.0,0.0,0.0,0.0,0.0,0.0,0.0,0.0,0.0,0.0,0.0,0.0,0.0,-0.809,-0.7821,-0.8833,-0.8722,-0.7388,-0.6527,-0.5018,-0.3334,-0.3334,-0.3334,-0.3579,-0.6158,-0.7775,-0.8552,-0.8214,-0.733,-0.595,-0.456,-0.3135,-0.1977,0.0,0.0,0.0,0.0,0.0,0.0,0.0,0.0,0.0,0.0,0.0,0.0,0.0,0.0,0.0,0.0,0.0,0.0,0.0,0.0,0.0,0.0,0.0,0.0,0.0,-3.3014,-3.2877,0.0,0.0,-3.4175,-3.4629,-3.6095,-3.6323,-3.5509,-3.6456,-3.5729,-3.3799,-3.3459,-3.2489,-3.1333,-3.1757,-3.1215,-3.0085,0.0,0.0,0.0,0.0,0.0,0.0,0.0,0.0,0.0,0.0,0.0,0.0,-2.1571,-2.0687,-2.0191,-1.9862,0.0,0.0,0.0,0.0,0.0,0.0,0.0,0.0,0.0,0.0,0.0,0.0,0.0,0.0,0.0,0.0,0.0,0.0,0.0,0.0,0.0,0.0,0.0,0.0,0.0,0.0,0.0,0.0,0.0,0.0,0.0,0.0,0.0,0.0,0.0,0.0,0.0,0.0,-0.6463,-0.7856,-0.7955,-0.7,-0.6059,-0.523,-0.4525,-0.4639,-0.5056,-0.5667,-0.7261,-0.804,-0.8274,-0.7366,-0.6648,-0.5794,-0.4441,-0.3039,-0.1904,0.0,0.0,0.0,0.0,0.0,0.0,0.0,0.0,0.0,0.0,-2.5205,0.0,0.0,0.0,0.0,0.0,0.0,0.0,0.0,0.0,0.0,0.0,0.0,0.0,0.0,0.0,0.0,0.0,0.0,0.0,-3.386,-3.5293,-3.6337,-3.7131,-3.7469,-3.6363,-3.4211,-3.3331,-3.1691,-2.96,-2.9728,-2.9226,-2.8276,-2.7348,0.0,0.0,0.0,0.0,0.0,0.0,0.0,0.0,-2.5088,0.0,-2.2689,-2.0897,-2.0773,-2.1209,-2.1253,0.0,0.0,0.0,0.0,0.0,0.0,0.0,0.0,0.0,0.0,0.0,0.0,0.0,0.0,0.0,0.0,0.0,0.0,0.0,0.0,0.0,0.0,0.0,0.0,0.0,0.0,0.0,0.0,0.0,0.0,0.0,0.0,0.0,0.0,0.0,0.0,0.0,0.0,0.0,-0.6085,-0.6851,-0.7122,-0.6149,-0.5605,-0.5402,-0.5761,-0.6653,-0.775,-0.7872,-0.7872,-0.7622,-0.6368,-0.5746,-0.5502,-0.4282,-0.2951,-0.1795,0.0,0.0,0.0,0.0,0.0,0.0,0.0,0.0,0.0,0.0,0.0,0.0,0.0,0.0,0.0,0.0,0.0,0.0,0.0,0.0,0.0,0.0,0.0,0.0,0.0,0.0,0.0,0.0,0.0,0.0,0.0,0.0,-3.5262,-3.4687,-3.5574,-3.4202,-3.1063,-3.0122,-2.8333,-2.6242,-2.6511,-2.5841,-2.4575,-2.3464,-2.2799,0.0,0.0,0.0,0.0,0.0,0.0,0.0,-2.5486,-2.4478,-2.2938,-2.0322,-1.9687,-1.9686,0.0,-2.1448,0.0,0.0,0.0,0.0,0.0,0.0,0.0,0.0,0.0,0.0,0.0,0.0,0.0,0.0,0.0,0.0,0.0,0.0,0.0,0.0,0.0,0.0,0.0,0.0,0.0,0.0,0.0,0.0,0.0,0.0,0.0,0.0,0.0,0.0,0.0366,-0.0288,-0.1283,0.0,-0.4358,-0.5832,-0.6883,-0.7731,-0.716,-0.5402,-0.5761,-0.6039,-0.6407,-0.7505,-0.7261,-0.6254,-0.5722,-0.4925,-0.4008,-0.3779,-0.2839,-0.1795,0.0,0.0,0.0,0.0,0.0,0.0,0.0,0.0,0.0,0.0,0.0,0.0,0.0,0.0,0.0,0.0,0.0,0.0,0.0,0.0,0.0,0.0,0.0,0.0,0.0,0.0,0.0,0.0,0.0,0.0,0.0,0.0,0.0,-3.5114,0.0,-3.3383,-3.0157,-2.8422,-2.6207,-2.3854,-2.3594,-2.29,-2.1966,-2.0815,-2.0118,-1.9748,-1.9276,0.0,0.0,0.0,0.0,0.0,0.0,0.0,-2.2615,-2.0382,-1.9173,-1.8631,0.0,0.0,0.0,0.0,0.0,0.0,0.0,0.0,0.0,0.0,0.0,0.0,0.0,0.0,0.0,0.0,0.0,0.0,0.0,0.0,0.0,0.0,0.0,0.0,0.0,0.0,0.0,0.0,0.0,0.0,0.0,0.0,0.0,0.0,0.0,0.0,0.2897,0.2087,0.1019,-0.0374,-0.2294,-0.4256,-0.6329,-0.8081,-0.8269,-0.7065,-0.604,-0.5307,-0.4833,-0.5534,-0.5064,-0.3995,-0.4432,-0.3813,-0.269,-0.269,-0.2354,-0.1795,0.0,0.0,0.0,0.0,0.0,0.0,0.0,0.0,0.0,0.0,0.0,0.0,0.0,0.0,0.0,0.0,0.0,0.0,0.0,0.0,0.0,0.0,0.0,0.0,0.0,0.0,0.0,0.0,0.0,0.0,0.0,0.0,0.0,-3.5996,0.0,-3.2906,-2.975,-2.7249,-2.4427,-2.1558,-2.0591,-1.9833,-1.917,-1.8023,-1.7384,-1.7077,-1.7193,-1.8154,-1.9605,-2.1882,0.0,0.0,0.0,0.0,-2.1963,-2.0329,-1.8738,-1.7661,0.0,0.0,0.0,0.0,0.0,0.0,0.0,0.0,0.0,0.0,0.0,0.0,0.0,0.0,0.0,0.0,0.0,0.0,0.0,0.0,0.0,0.0,0.0,0.0,0.0,0.0,0.0,0.0,0.0,0.0,0.0,0.0,0.0,0.0,0.0,0.5687,0.5341,0.4573,0.3432,0.1852,-0.0453,-0.2917,-0.5443,-0.734,-0.8182,-0.8159,-0.627,-0.4707,-0.3586,-0.3362,-0.2578,-0.157,-0.2578,-0.2354,-0.1572,-0.1705,-0.1827,-0.1827,0.0,0.0,0.0,0.0,0.0,0.0,0.0,0.0,0.0,0.0,0.0,0.0,0.0,0.0,0.0,0.0,0.0,0.0,-1.9654,0.0,0.0,-2.2874,-2.5438,0.0,0.0,0.0,0.0,0.0,0.0,0.0,0.0,0.0,0.0,-3.4768,0.0,-3.1723,-2.8026,-2.5283,-2.2034,-1.8514,-1.6774,-1.5437,-1.4304,-1.3244,-1.3219,-1.3762,-1.3882,-1.5542,-1.8047,-2.0251,-2.2111,0.0,0.0,0.0,-2.0959,-1.9213,-1.7596,-1.6308,0.0,0.0,0.0,0.0,0.0,0.0,0.0,0.0,0.0,0.0,0.0,0.0,0.0,0.0,0.0,0.0,0.0,0.0,0.0,0.0,0.0,0.0,0.0,0.0,0.0,0.0,0.0,0.0,0.0,0.0,0.0,0.0,0.5786,0.6129,0.7082,0.0,0.7622,0.7072,0.5946,0.4281,0.0,-0.2981,-0.4472,-0.5036,-0.5501,-0.5828,-0.5493,-0.4707,-0.3474,-0.2466,-0.1346,-0.0224,-0.0449,-0.0336,-0.0339,-0.1554,-0.1952,-0.1952,0.0,0.0,0.0,0.0,0.0,0.0,0.0,0.0,0.0,0.0,0.0,0.0,0.0,0.0,0.0,-1.9775,-1.8977,-1.8439,-1.8044,-1.9538,-2.0653,-2.112,-2.3333,-2.4582,0.0,0.0,0.0,0.0,0.0,0.0,0.0,-2.974,-3.2535,0.0,0.0,0.0,0.0,0.0,-2.0871,-1.8088,-1.5252,-1.4871,-1.5684,-1.2769,-1.3367,-1.55,-1.3455,-1.3871,-1.583,-1.8188,-1.9819,-2.1075,-2.2571,0.0,0.0,0.0,-1.533,0.0,0.0,0.0,0.0,0.0,0.0,0.0,0.0,0.0,0.0,0.0,0.0,0.0,0.0,0.0,0.0,0.0,0.0,0.0,0.0,0.0,0.0,0.0,0.0,0.0,0.0,0.0,0.0,0.0,0.0,0.0,0.0,0.7249,0.7933,0.7894,0.913,0.0,0.9536,0.8804,0.7135,0.4564,0.1316,-0.1112,-0.2695,-0.3506,-0.4311,-0.5075,-0.4443,-0.4003,-0.3477,-0.2242,-0.1121,0.0,0.0,0.0474,0.0832,-0.1223,-0.1977,-0.21,0.0,0.0,0.0,0.0,0.0,0.0,0.0,0.0,0.0,0.0,0.0,0.0,0.0,0.0,0.0,0.0,-1.8549,-1.7439,-1.6332,-1.7345,-1.8372,-1.9052,-2.1187,-2.2474,-2.2615,0.0,0.0,0.0,0.0,0.0,-2.73,-2.8139,-3.2061,0.0,-3.5682,-3.3376,0.0,0.0,0.0,-1.8774,-1.5643,-1.5706,-1.7352,-1.4844,-1.5987,-1.8487,-1.4873,-1.4361,-1.5555,-1.6982,-1.8001,-1.8995,-2.0724,-1.9918,0.0,0.0,0.0,0.0,0.0,0.0,0.0,0.0,0.0,0.0,0.0,0.0,0.0,0.0,0.0,0.0,0.0,0.0,0.0,0.0,0.0,0.0,0.0,0.0,0.0,0.0,0.0,0.0,0.0,0.0,0.0,0.0,0.0,0.0,0.7058,0.8549,0.9367,0.9328,1.0627,1.1196,1.0992,0.995,0.7834,0.4779,0.2873,0.0906,-0.108,-0.2243,-0.3531,-0.4734,-0.3632,-0.3332,-0.3392,-0.2561,-0.1587,-0.0462,-0.0485,0.037,0.1111,-0.1482,-0.2471,-0.2718,0.0,0.0,0.0,0.0,0.0,0.0,0.0,0.0,0.0,0.0,0.0,0.0,-2.3046,-2.285,-2.1904,-2.0231,-1.8977,-1.7142,-1.4414,-1.4997,-1.5622,-1.6211,-1.9228,0.0,-2.0857,0.0,0.0,0.0,0.0,0.0,-2.739,-2.7795,-3.1212,-3.7181,-3.6441,-3.3058,-2.7654,0.0,0.0,0.0,0.0,0.0,0.0,0.0,0.0,0.0,0.0,-1.8254,-1.9087,-1.7531,-1.7404,-1.8136,-1.9707,-1.8796,-1.6754,0.0,0.0,0.0,0.0,0.0,0.0,0.0,0.0,0.0,0.0,0.0,0.0,0.0,0.0,0.0,0.0,0.0,0.0,0.0,0.0,0.0,0.0,0.0,0.0,0.0,0.0,0.0,0.0,0.0,0.0,0.0,0.0,0.0,0.719,0.8166,0.9136,1.0026,1.0986,1.1675,1.2108,1.0032,0.7969,0.5825,0.4332,0.2388,-0.009,-0.1172,-0.2826,-0.4734,-0.3632,-0.3237,-0.3267,-0.3384,-0.2909,-0.1844,-0.1851,-0.1111,-0.0247,-0.2839,-0.3828,-0.3951,0.0,0.0,0.0,0.0,0.0,0.0,0.0,0.0,0.0,0.0,0.0,0.0,0.0,-2.2351,-2.1776,-1.9628,-1.751,-1.5683,-1.428,-1.4461,-1.5158,-1.6266,-1.8762,-2.0664,-2.1823,0.0,0.0,0.0,0.0,-2.0234,-2.3229,-2.4227,-2.598,-2.8529,-3.2622,-3.3073,-3.0411,-2.6413,0.0,0.0,0.0,0.0,0.0,0.0,0.0,0.0,0.0,0.0,0.0,0.0,0.0,-1.9505,-2.0509,-1.9107,-1.6264,-1.1982,-0.9581,0.0,0.0,0.0,0.0,0.0,0.0,0.0,0.0,0.0,0.0,0.0,0.0,0.0,0.0,0.0,0.0,0.0,0.0,0.0,0.0,0.0,0.0,0.0,0.0,0.0,0.0,0.0,0.0,0.0,0.0,0.0,0.7913,0.8976,0.9866,1.0468,1.1719,1.2285,1.2014,1.0442,0.8705,0.6769,0.505,0.2714,0.0,-0.1074,-0.2725,-0.4834,-0.5135,-0.5636,-0.6173,-0.5226,-0.4548,-0.4199,-0.4373,-0.3789,-0.3118,-0.5496,-0.6526,-0.6526,0.0,0.0,0.0,0.0,0.0,0.0,0.0,0.0,0.0,-1.9152,0.0,0.0,0.0,0.0,-2.2119,-1.9486,-1.6907,-1.4982,-1.3924,-1.3937,-1.4557,-1.5725,-1.811,-2.0245,-2.195,0.0,0.0,0.0,0.0,0.0,0.0,-2.1637,-2.2511,-2.342,-2.7617,-2.9688,0.0,0.0,0.0,-2.2426,0.0,0.0,-2.6258,0.0,0.0,0.0,0.0,0.0,0.0,0.0,0.0,0.0,-2.2382,-1.9318,-1.5114,-1.0432,-0.887,0.0,-0.5714,0.0,0.0,0.0,0.0,0.0,0.0,0.0,0.0,0.0,0.0,0.0,0.0,0.0,0.0,0.0,0.0,0.0,0.0,0.0,0.0,0.0,0.0,0.0,0.0,0.0,0.0,0.0,0.0,0.0,0.882,0.9614,1.0498,1.1461,1.2521,1.2755,1.2094,1.0698,0.9164,0.7451,0.5484,0.3272,0.0621,-0.0851,-0.2953,-0.5436,-0.6836,-0.7832,-0.8485,-0.7606,-0.7359,-0.7426,-0.6784,-0.6185,-0.5721,-0.7738,-0.8848,-0.9182,0.0,0.0,0.0,0.0,0.0,0.0,0.0,0.0,-1.9611,-2.0724,0.0,0.0,0.0,0.0,0.0,-1.9783,-1.7533,-1.5394,-1.3292,-1.3377,-1.3765,-1.4334,-1.7217,-1.9519,-2.102,0.0,0.0,0.0,0.0,0.0,0.0,0.0,-2.1277,-2.266,-2.1706,-2.2781,-2.5392,0.0,-2.5065,-2.4028,0.0,-2.5783,-2.7588,0.0,0.0,0.0,-3.5114,-3.4676,0.0,-3.1162,0.0,0.0,0.0,0.0,-1.3449,-1.0554,-0.925,0.0,0.0,0.0,0.0,0.0,0.0,0.0,0.0,0.0,0.0,0.0,0.0,0.0,0.0,0.0,0.0,0.0,0.0,0.0,0.0,0.0,0.0,0.0,0.0,0.0,0.0,0.0,0.0,0.0,0.0,0.9453,0.9803,0.9963,1.1013,1.3084,1.3375,1.3154,1.2429,1.0845,0.929,0.777,0.5938,0.3964,0.2059,-0.0265,-0.3179,-0.6515,-0.8619,-0.9632,-0.9681,-1.0396,-1.1224,-1.1503,-0.8945,-0.7978,-0.8116,-0.9457,-1.0793,-1.179,0.0,0.0,0.0,0.0,0.0,0.0,0.0,0.0,-2.2211,0.0,0.0,0.0,-2.3876,-2.3041,-2.1799,-2.0093,-1.8454,-1.6638,-1.4593,-1.438,-1.474,-1.569,-1.8027,-2.0317,-2.2395,0.0,0.0,0.0,0.0,0.0,0.0,0.0,0.0,0.0,-1.871,-1.8882,-1.9333,-1.9935,0.0,0.0,-2.1557,-2.4505,0.0,0.0,0.0,0.0,0.0,-3.9223,-3.7897,0.0,-3.4634,-3.0788,0.0,0.0,0.0,0.0,0.0,0.0,-0.8339,0.0,0.0,0.0,0.0,0.0,0.0,0.0,0.0,0.0,0.0,0.0,0.0,0.0,0.0,0.0,0.0,0.0,0.0,0.0,0.0,0.0,0.0,0.0,0.0,0.0,0.0,0.0,0.0,1.008,0.9879,1.0632,1.1844,1.3561,1.3437,1.3177,1.2742,1.1279,0.9694,0.7973,0.6361,0.4351,0.1999,0.0702,-0.2085,-0.604,-0.8527,-1.0019,-1.087,-1.1566,-1.2027,-1.2114,-1.0529,-1.0259,-1.0921,-1.2122,-1.2844,-1.3452,0.0,0.0,0.0,0.0,0.0,0.0,0.0,-2.5154,-2.5199,0.0,0.0,0.0,-2.5577,-2.4681,-2.336,-2.135,-1.983,-1.8002,-1.5533,-1.4982,-1.4981,-1.5519,-1.7389,-1.9469,-2.1724,0.0,0.0,0.0,0.0,0.0,0.0,0.0,0.0,0.0,0.0,0.0,0.0,0.0,0.0,0.0,-2.1377,0.0,0.0,-3.2932,-3.6433,0.0,0.0,0.0,-4.1217,-4.1056,-3.744,0.0,0.0,0.0,0.0,0.0,0.0,0.0,-1.2898,0.0,0.0,0.0,0.0,0.0,0.0,-1.0703,0.0,0.0,0.0,0.0,0.0,0.0,0.0,0.0,0.0,0.0,0.0,0.0,0.0,0.0,0.0,0.0,0.0,0.0,0.0,0.0,1.101,1.1019,1.1286,1.2535,1.3623,1.4341,1.4081,1.3629,1.2898,1.1374,0.973,0.8167,0.6331,0.4453,0.2354,0.1207,-0.1232,-0.4678,-0.8158,-1.0216,-1.1236,-1.1718,-1.2124,-1.2327,-1.1673,-1.1621,-1.2284,-1.3917,-1.5427,-1.7005,0.0,0.0,0.0,0.0,0.0,0.0,0.0,0.0,-2.8358,0.0,-2.994,-2.9294,-2.8726,-2.7973,-2.6365,-2.3586,-2.1682,-1.9448,-1.6588,-1.5746,-1.5103,-1.4765,-1.6174,-1.7908,-1.9927,0.0,0.0,0.0,0.0,0.0,0.0,0.0,0.0,0.0,0.0,0.0,0.0,0.0,0.0,-1.7082,-2.2182,-2.5915,0.0,0.0,-3.8556,0.0,-4.3152,-4.3914,-4.3758,-4.2953,-3.8697,0.0,0.0,0.0,0.0,0.0,-2.0666,0.0,0.0,-1.7849,-1.8138,0.0,0.0,0.0,-1.5077,-1.4175,-1.3408,0.0,0.0,0.0,0.0,0.0,0.0,0.0,0.0,0.0,0.0,0.0,0.0,0.0,0.0,0.0,0.0,0.0,0.0,1.1543,1.1637,1.2141,1.3412,1.4864,1.5527,1.5265,1.4941,1.4222,1.3023,1.1175,0.9611,0.8246,0.6159,0.4421,0.2953,0.1365,-0.0606,-0.3171,-0.7395,-0.9863,-1.0934,-1.1231,-1.1718,-1.2313,-1.2398,-1.2436,-1.264,-1.4667,-1.7674,-2.0925,-2.883,0.0,0.0,0.0,0.0,0.0,0.0,0.0,-3.1495,-3.3035,-3.2407,-3.1774,-3.1829,-2.9267,-2.7435,-2.714,-2.3922,-2.1284,-1.9824,-1.8057,-1.672,-1.6109,-1.7139,-1.8124,-1.8955,-2.0929,0.0,0.0,0.0,0.0,0.0,0.0,0.0,0.0,0.0,0.0,0.0,0.0,0.0,-1.5346,-1.8177,0.0,-3.103,-3.4737,-3.8233,-4.1475,-4.364,-4.4141,-4.353,0.0,-3.9364,-3.6715,0.0,0.0,0.0,0.0,0.0,0.0,0.0,0.0,0.0,0.0,0.0,0.0,-1.8816,-1.8008,-1.7367,0.0,0.0,0.0,0.0,0.0,0.0,0.0,0.0,0.0,0.0,0.0,0.0,0.0,0.0,0.0,0.0,0.0,0.9481,1.0318,1.1915,1.3338,1.4528,1.5009,1.5595,1.6277,1.5369,1.4453,1.3661,1.1802,1.0001,0.8082,0.6434,0.4674,0.2759,0.213,0.0091,-0.321,-0.5914,-0.7891,-0.9514,-1.1335,-1.1898,-1.1501,-1.2181,-1.2436,-1.2574,-1.3957,-1.6592,-1.9791,-2.9077,0.0,0.0,0.0,0.0,0.0,0.0,0.0,0.0,-3.5366,-3.4409,-3.3293,-3.2519,-3.0672,-2.9101,-2.7782,-2.5609,-2.3652,-2.2039,-2.0007,-1.8464,-1.7768,-1.7329,-1.741,-1.8142,-1.9558,0.0,0.0,0.0,0.0,0.0,0.0,0.0,0.0,0.0,0.0,0.0,0.0,-1.3131,-1.5743,-2.0061,0.0,-3.1011,-3.5846,-3.9297,-4.1776,-4.338,-4.3476,-4.2509,-4.0601,-3.8855,0.0,0.0,-3.3577,-3.3334,0.0,-3.0498,-3.1222,0.0,0.0,0.0,-2.7564,0.0,0.0,0.0,-2.2512,-2.1131,0.0,0.0,0.0,0.0,0.0,0.0,0.0,0.0,0.0,0.0,0.0,0.0,0.0,0.0,0.0,0.0,0.0,0.8899,1.1545,1.376,1.5345,1.6033,1.6662,1.7231,1.7701,1.6592,1.5565,1.4602,1.2361,1.0347,0.8565,0.6557,0.4775,0.3227,0.2056,0.0381,-0.1818,-0.5248,-0.7576,-0.9161,-1.211,-1.4395,-1.5998,-1.5854,-1.5732,-1.5619,-1.5785,-1.7486,-1.9845,-2.8872,0.0,0.0,0.0,0.0,0.0,0.0,0.0,0.0,-3.6327,-3.5565,-3.4391,-3.3146,-3.2787,-3.1938,-2.9973,-2.8619,-2.7224,-2.5634,-2.2963,-2.1158,-2.0563,-1.8298,-1.7506,-1.8435,-1.8755,-1.9101,0.0,0.0,0.0,0.0,0.0,0.0,0.0,0.0,0.0,0.0,0.0,0.0,-1.8508,0.0,-2.7239,-2.9298,-3.6079,-3.9446,-4.0734,-4.2505,-4.2458,-4.1264,-3.9603,0.0,-3.6693,-3.4542,-3.4841,0.0,0.0,0.0,0.0,0.0,0.0,0.0,0.0,0.0,-3.0482,0.0,0.0,0.0,-2.4111,0.0,0.0,0.0,0.0,0.0,0.0,0.0,0.0,0.0,0.0,0.0,0.0,0.0,0.0,0.0,0.0,0.8599,1.3317,1.5631,1.7049,1.7484,1.8461,1.8978,1.8999,1.7906,1.673,1.5474,1.2962,1.0819,0.9192,0.6814,0.4952,0.3582,0.1568,0.0398,-0.0392,-0.5235,-0.8088,-0.9673,-1.3125,-1.6933,-2.0557,-1.9896,-1.9529,-1.9257,-1.8615,-1.9209,-2.0639,-2.7242,-2.7515,0.0,0.0,0.0,0.0,0.0,0.0,0.0,0.0,-3.5002,0.0,0.0,0.0,0.0,-3.9298,0.0,0.0,-3.3887,0.0,-2.6227,-2.6044,-2.2258,-2.0628,-2.1567,-2.0557,-1.9838,0.0,0.0,0.0,0.0,0.0,0.0,0.0,-1.2775,0.0,0.0,0.0,-1.9205,0.0,-2.7736,-2.6777,0.0,-3.2582,-3.5733,-3.6543,-4.0353,-4.1278,-4.0347,0.0,-3.8013,-3.7461,0.0,-3.5963,0.0,0.0,0.0,0.0,0.0,0.0,0.0,0.0,-3.4532,0.0,0.0,0.0,-2.8094,-2.4127,0.0,0.0,0.0,0.0,0.0,0.0,0.0,0.0,0.0,0.0,0.0,0.0,0.0,0.0,0.0,0.0,0.0,1.3936,1.5974,1.7345,1.8224,1.9179,1.9602,1.9371,1.8574,1.7342,1.5578,1.3988,1.1829,0.921,0.7281,0.5184,0.2984,0.0803,-0.0102,-0.0423,-0.5602,-0.9239,-1.1654,-1.438,-1.7065,-1.9621,-2.0453,-2.1017,-2.1328,-2.1145,-2.1624,-2.2432,-2.619,-2.662,0.0,0.0,0.0,0.0,0.0,0.0,0.0,0.0,0.0,0.0,0.0,0.0,0.0,0.0,0.0,-3.769,0.0,0.0,-3.0416,-2.9679,0.0,0.0,-2.3731,-2.1845,-2.0648,-2.0073,-1.9157,0.0,0.0,0.0,0.0,0.0,-1.485,0.0,-2.0758,0.0,0.0,0.0,0.0,0.0,0.0,-3.4655,-3.8772,-3.9039,-4.0751,-4.0953,-4.0147,0.0,-3.7775,0.0,0.0,0.0,0.0,0.0,0.0,0.0,0.0,0.0,0.0,0.0,0.0,0.0,0.0,0.0,-2.8862,0.0,0.0,0.0,0.0,0.0,0.0,0.0,0.0,0.0,0.0,0.0,0.0,0.0,0.0,0.0,0.0,0.0,0.0,0.0,0.0,1.9445,1.9731,2.0223,2.064,2.0823,1.9434,1.8225,1.7407,1.5117,1.2645,1.0019,0.7848,0.5284,0.2578,0.112,-0.0104,-0.1281,-0.3408,-0.8054,-1.4201,-1.7521,-1.9827,-2.1601,-2.2699,-2.2888,-2.2383,-2.0777,-2.0998,-2.2442,-2.519,-2.5468,0.0,0.0,0.0,0.0,0.0,0.0,0.0,0.0,0.0,0.0,-3.7732,-3.9216,0.0,0.0,-4.3777,-4.2591,0.0,0.0,-3.5001,0.0,0.0,0.0,0.0,0.0,-2.2344,-2.1312,0.0,0.0,0.0,0.0,0.0,0.0,0.0,-1.9646,-2.4476,0.0,0.0,-2.4913,-2.5716,-2.6498,-2.808,-3.6202,-3.9974,-4.1055,-4.0982,-4.0698,-4.0202,-3.9073,-3.7793,0.0,-3.8228,0.0,0.0,0.0,0.0,0.0,-3.4068,0.0,0.0,0.0,0.0,0.0,0.0,0.0,0.0,0.0,0.0,0.0,0.0,0.0,0.0,0.0,0.0,0.0,0.0,0.0,0.0,0.0,0.0,0.0,0.0,0.0,0.0,0.0,1.4601,0.0,2.0421,2.0917,2.1449,2.2004,2.0625,1.96,1.9095,1.6421,1.3815,1.1105,0.8169,0.5093,0.2002,0.0416,-0.1284,-0.2955,-0.3589,-0.8678,-1.6763,-2.025,-2.2442,-2.3693,-2.5315,-2.5468,-2.4314,-2.1447,-2.1562,-2.3595,-2.4184,-2.3982,0.0,0.0,0.0,0.0,0.0,0.0,0.0,0.0,0.0,0.0,0.0,0.0,0.0,0.0,0.0,-4.8925,-4.8808,0.0,-4.0513,0.0,0.0,-3.2664,0.0,0.0,0.0,0.0,0.0,0.0,0.0,0.0,0.0,0.0,0.0,-2.1685,-2.505,-2.4341,-2.7635,-3.3277,-3.3054,-3.5496,-3.8841,0.0,-3.6606,-4.0367,-4.0174,0.0,0.0,-3.906,-3.8472,0.0,0.0,0.0,0.0,0.0,0.0,0.0,0.0,0.0,0.0,-3.1921,0.0,0.0,0.0,0.0,-3.1921,0.0,0.0,0.0,0.0,0.0,-2.4123,-2.461,0.0,0.0,0.0,0.0,0.0,0.0,0.0,0.0,0.0,0.0,0.0,0.0,1.5465,0.0,1.9708,2.0977,2.1915,2.2362,2.2307,2.159,2.0151,1.7966,1.5389,1.2175,0.8322,0.4508,0.0951,-0.2258,-0.4463,-0.5852,-0.8171,-1.2973,-1.9152,-2.1964,-2.3837,-2.5285,-2.7811,-2.8596,-2.7796,-2.4398,-2.4749,-2.7043,0.0,0.0,0.0,0.0,0.0,0.0,0.0,-2.8456,0.0,0.0,0.0,0.0,0.0,0.0,-4.8627,0.0,0.0,-5.0573,-4.8966,-4.5979,0.0,0.0,0.0,-3.7836,0.0,0.0,0.0,0.0,0.0,0.0,0.0,0.0,0.0,0.0,0.0,-2.2936,0.0,0.0,0.0,0.0,0.0,-3.5404,-3.8405,0.0,0.0,-3.9513,-3.9466,-3.9953,0.0,-4.0432,-3.9583,-3.8735,-4.0099,-3.894,-3.7244,-3.797,-3.7837,0.0,0.0,0.0,-3.6997,-3.3264,0.0,0.0,0.0,0.0,0.0,0.0,0.0,0.0,0.0,0.0,-2.5124,-2.4991,-2.3329,-2.0807,0.0,0.0,0.0,0.0,0.0,0.0,0.0,0.0,0.0,0.2907,0.8845,1.455,0.0,1.9185,1.9915,2.2247,2.1727,2.1086,2.0463,1.7916,1.4937,1.1616,0.783,0.4464,0.1435,-0.1688,-0.3613,-0.4676,-1.0864,-1.5592,-1.9328,-2.1978,-2.3852,-2.5322,-2.8152,-2.958,-2.9692,-2.7409,-2.754,-2.8806,-2.5621,0.0,0.0,0.0,0.0,0.0,0.0,0.0,0.0,0.0,-3.6519,0.0,-4.4774,0.0,-4.9141,0.0,-5.2434,-5.1652,-4.9609,-4.8116,0.0,-4.6863,-4.4104,0.0,0.0,0.0,0.0,0.0,0.0,-2.6897,0.0,0.0,0.0,0.0,0.0,0.0,0.0,0.0,-2.9059,0.0,0.0,-3.6086,0.0,0.0,-3.8698,0.0,0.0,-4.0076,-4.0953,-4.1308,-4.0612,-3.9935,-4.1674,-4.0242,-3.817,-3.9176,-3.8653,-3.7459,-3.6231,-3.6822,0.0,0.0,-3.3237,0.0,-3.0187,0.0,0.0,0.0,0.0,0.0,0.0,0.0,-2.6082,-2.5549,-2.3861,-2.1066,0.0,-1.4013,0.0,0.0,0.0,0.0,0.0,0.0,-0.2259,0.0073,0.4271,0.9205,0.0,0.0,1.6528,1.9843,1.9695,1.9434,1.9219,1.6595,1.3669,1.0652,0.652,0.3347,0.093,-0.2449,-0.4378,-0.5278,-1.1536,-1.6363,-1.9966,-2.223,-2.3852,-2.537,-2.87,-3.0406,-3.0858,-3.1031,-3.1163,-3.1225,0.0,0.0,0.0,0.0,-2.6003,0.0,0.0,0.0,-3.3348,0.0,-3.4356,-3.8002,-4.2528,-4.4784,-4.7846,-5.2043,-5.2575,0.0,-5.1,-4.9581,0.0,0.0,-4.6686,-4.5464,-4.5272,0.0,0.0,0.0,0.0,0.0,0.0,0.0,0.0,0.0,-2.4633,0.0,-2.6113,-2.8717,-3.1318,-3.4057,-3.6716,-3.7749,-3.7662,-3.7868,0.0,-3.9596,-4.0114,-4.0907,-4.1619,-4.148,-4.1564,-4.1619,-4.1423,-4.117,-4.0887,-4.0209,-3.962,-3.8809,-3.7358,-3.646,-3.5538,-3.3567,0.0,0.0,0.0,0.0,-3.1998,0.0,0.0,0.0,0.0,0.0,0.0,-2.6462,-2.4771,-2.164,-1.6417,0.0,0.0,0.0,0.0,0.0,0.0,-0.3349,-0.3147,-0.0254,0.1284,0.0,0.0,0.0,0.0,1.5209,1.6166,1.6567,1.6462,1.403,1.163,0.9186,0.4365,0.1257,-0.0431,-0.4529,-0.6831,-0.7774,-1.0799,-1.5535,-2.1235,-2.2606,-2.3852,-2.5477,-2.976,-3.1323,-3.1556,-3.5135,-3.5538,-3.4095,-2.6425,-2.6959,-2.7679,0.0,-2.6671,-2.681,0.0,0.0,0.0,0.0,-4.0271,-4.3899,-4.7704,-5.0216,-5.1877,-5.2378,-5.185,0.0,0.0,0.0,0.0,-5.0652,-4.8621,-4.7203,-4.6745,-4.2629,0.0,-3.6872,0.0,0.0,-3.0014,0.0,0.0,0.0,0.0,0.0,-2.5431,-2.7301,-3.0942,-3.5454,-3.5866,-3.675,0.0,0.0,-3.8671,-3.948,-3.962,-4.0322,-4.117,-4.1085,-4.1283,-4.1394,-4.0658,-4.0716,-4.0802,-3.9957,-3.9424,-3.8974,-3.8167,-3.7476,-3.6493,-3.5087,-3.4032,-3.3071,0.0,0.0,0.0,0.0,0.0,0.0,0.0,0.0,0.0,-2.6676,-2.4744,-2.259,0.0,0.0,0.0,0.0,0.0,0.0,0.0,0.0,-0.745,-1.0232,-1.0634,0.0,0.0,0.0,0.0,0.9845,1.0729,1.1276,1.1602,0.9653,0.7517,0.5239,0.1632,-0.0437,-0.1069,-0.5414,-0.9578,-1.3625,-1.6092,-1.868,-2.1235,-2.2606,-2.3852,-2.5627,-3.0477,-3.3215,-3.4692,-3.6773,-3.686,-3.567,-2.7366,0.0,0.0,-3.0178,0.0,0.0,-3.3539,0.0,0.0,-4.0103,-4.3883,0.0,-5.0463,-5.1288,-5.1618,-5.1371,-5.1043,0.0,0.0,0.0,0.0,-5.0242,-4.9085,-4.8397,-4.8061,-4.4538,0.0,-3.8655,0.0,0.0,-2.8955,0.0,0.0,0.0,0.0,-2.2964,0.0,-2.7737,-3.134,-3.4754,-3.5638,0.0,0.0,-3.7841,-3.8228,-3.8505,-3.8699,-3.976,-4.1001,-4.0773,-4.0689,-4.0576,-3.9873,-3.9536,-3.9367,-3.878,-3.8331,-3.7903,-3.7758,-3.7069,-3.6199,-3.5451,-3.4603,-3.3595,-3.2461,-3.2519,-3.2756,0.0,0.0,0.0,0.0,0.0,0.0,0.0,0.0,0.0,0.0,0.0,0.0,0.0,0.0,0.0,0.0,0.0,0.0,0.0,0.0,0.0,0.0,0.0,0.0,0.175,0.2941,0.3968,0.4797,0.3705,0.2498,0.1209,-0.1026,-0.2285,-0.289,-0.5455,-1.0465,-1.7234,-1.9185,-2.0729,-2.1978,-2.2731,-2.4224,-2.6554,-3.2052,-3.5001,-3.6337,-3.7667,-3.7484,-3.6569,0.0,0.0,0.0,0.0,0.0,0.0,0.0,-3.8489,0.0,-4.0861,0.0,-4.908,-5.0903,-4.982,-4.916,-4.9567,0.0,-5.0159,-4.9392,-4.9748,-4.961,-4.8708,-4.8819,-4.8902,-4.8902,-4.6406,0.0,0.0,0.0,0.0,0.0,0.0,0.0,0.0,0.0,0.0,0.0,-2.8892,-3.2025,0.0,-3.569,-3.6563,-3.6656,-3.7427,-3.751,-3.74,-3.7674,-3.9088,-4.0718,-4.0346,-4.0039,-3.9704,-3.9029,-3.8246,-3.7582,-3.7335,-3.6855,-3.6452,-3.6704,-3.5996,-3.5208,-3.5286,-3.4757,-3.3923,-3.2225,-3.241,-3.2909,-3.3104,-3.2444,0.0,0.0,0.0,0.0,0.0,0.0,0.0,0.0,0.0,0.0,0.0,0.0,0.0,0.0,0.0,0.0,0.0,0.0,0.0,0.0,0.0,0.0,0.0,-0.5598,0.0,-0.2675,0.0,-0.2753,-0.2871,-0.3659,-0.4637,-0.5538,-0.5855,-1.0753,-1.9259,-2.0663,-2.2104,-2.3355,-2.3355,-2.5087,-2.8122,-3.3866,-3.6291,-3.6723,-3.7857,-3.7871,-3.7242,0.0,0.0,0.0,0.0,0.0,-3.6061,-3.988,-4.0842,-3.9548,-3.52,-4.3462,0.0,-4.7616,-4.7953,-4.8037,-4.7205,-4.8991,0.0,0.0,0.0,0.0,-4.8708,-4.8714,-4.8618,-4.8304,-4.5299,-4.2323,0.0,0.0,0.0,0.0,0.0,0.0,0.0,0.0,0.0,-2.6082,-2.8821,0.0,-3.5224,-3.5361,-3.6276,-3.7537,-3.7362,-3.7362,-3.7422,-3.7362,-3.8218,-3.9421,-3.9335,-3.9498,-3.9376,-3.7962,-3.7763,-3.7698,-3.6364,-3.5817,-3.5923,-3.6598,-3.5706,-3.4575,-3.4899,-3.4588,-3.4069,-3.37,-3.3866,-3.4222,-3.4875,-3.4687,-3.4366,-3.4326,0.0,0.0,0.0,0.0,0.0,0.0,0.0,0.0,0.0,0.0,0.0,0.0,0.0,0.0,0.0,0.0,0.0,0.0,0.0,0.0,0.0,0.0,0.0,0.0,0.0,0.0,-0.725,-0.718,-0.7801,-0.8998,-0.896,-1.2746,-1.9483,-2.1793,-2.3479,-2.4734,-2.4734,-2.6918,-3.0509,-3.3572,-3.5224,-3.6044,-3.7008,-3.7844,-3.8644,0.0,0.0,0.0,0.0,0.0,0.0,0.0,-4.4123,0.0,-4.2976,-4.5944,-4.7731,-4.6591,-4.6402,-4.6159,-4.5611,-4.7007,-4.7958,-4.802,-4.7999,-4.7947,-4.7973,-4.7311,0.0,-4.726,-4.4688,-4.1824,-3.8654,0.0,0.0,0.0,0.0,0.0,0.0,0.0,-2.314,0.0,0.0,0.0,-3.4799,-3.5898,-3.6633,-3.7066,-3.7138,-3.6811,-3.6246,-3.6163,-3.6707,-3.7555,-3.8378,-3.8456,-3.8147,-3.7176,-3.6817,-3.6545,-3.5305,-3.4958,-3.5089,-3.5779,-3.522,-3.4444,-3.4702,-3.4503,-3.4069,-3.345,-3.3772,-3.4319,-3.4442,-3.4682,-3.4767,-3.4443,-3.3311,0.0,0.0,0.0,0.0,0.0,0.0,0.0,0.0,0.0,0.0,0.0,0.0,0.0,0.0,0.0,0.0,0.0,0.0,0.0,0.0,0.0,0.0,0.0,0.0,0.0,-0.9912,-1.047,-1.0755,-1.0891,-1.2928,-1.6885,-2.2467,-2.4314,-2.5945,-2.7159,-2.7882,-2.9194,-3.1112,-3.3593,-3.4737,-3.5278,-3.703,-3.8299,-3.9175,0.0,-3.7284,0.0,0.0,-3.9809,0.0,0.0,-4.6044,-4.8187,-5.0425,-4.8263,-4.6377,-4.6139,-4.5046,-4.4396,-4.4722,-4.5088,-4.5994,-4.7504,-4.6837,-4.6545,-4.6944,-4.6048,-4.5813,-4.6109,-4.437,-4.1704,0.0,0.0,0.0,0.0,0.0,0.0,0.0,0.0,0.0,0.0,0.0,-3.31,-3.4631,-3.6601,-3.698,-3.6243,-3.6726,-3.6075,-3.5003,-3.5003,-3.5213,-3.5743,-3.6977,-3.7197,-3.6877,-3.6339,-3.5824,-3.5241,-3.4412,-3.423,-3.4418,-3.4972,-3.4763,-3.4334,-3.4461,-3.4399,-3.3991,-3.2867,-3.3341,-3.3882,-3.3427,-3.3986,-3.4633,-3.4748,-3.4196,0.0,0.0,0.0,0.0,0.0,0.0,0.0,0.0,0.0,0.0,0.0,0.0,0.0,0.0,0.0,0.0,0.0,0.0,0.0,0.0,0.0,0.0,-1.5127,0.0,-1.201,0.0,-1.3302,-1.3414,-1.2684,-1.6575,-2.067,-2.4795,-2.6678,-2.8277,-2.9468,-3.0528,-3.1228,-3.1903,-3.4065,-3.4818,-3.4946,-3.6873,-3.8311,-3.9237,0.0,0.0,0.0,0.0,0.0,0.0,0.0,-4.4143,-4.5448,-4.6781,-4.6723,-4.6034,-4.4938,-4.3848,-4.3517,-4.4613,-4.3833,-4.3966,-4.542,-4.5955,-4.6005,-4.5777,-4.5847,-4.5723,-4.5248,-4.4535,-4.2113,0.0,0.0,0.0,0.0,0.0,0.0,0.0,0.0,0.0,0.0,-3.2733,-3.4794,-3.6891,-3.7107,-3.6753,-3.6049,-3.5823,-3.5368,-3.4756,-3.4564,-3.4366,-3.4328,-3.4951,-3.567,-3.6131,-3.5349,-3.4882,-3.4581,-3.3734,-3.3641,-3.3894,-3.4392,-3.4282,-3.4089,-3.414,-3.4115,-3.385,-3.2867,-3.3148,-3.3502,-3.2691,-3.3408,-3.4312,-3.4513,-3.5939,-3.6547,0.0,0.0,0.0,0.0,0.0,0.0,0.0,0.0,0.0,0.0,0.0,0.0,0.0,0.0,0.0,0.0,0.0,0.0,0.0,0.0,-1.6189,-1.5922,-1.3591,0.0,-1.3386,-1.5052,-1.5613,-1.5388,-1.9078,-2.172,-2.339,-2.7164,-2.9568,-3.0762,-3.0898,-3.2133,-3.4289,-3.5621,-3.5631,-3.496,-3.5991,-3.719,-3.8437,0.0,0.0,0.0,0.0,0.0,0.0,0.0,-4.198,-4.2628,-4.5076,-4.5395,-4.5261,-4.4722,-4.4287,-4.4177,-4.4613,-4.3676,-4.2918,-4.2916,-4.3755,-4.4463,-4.484,-4.4388,-4.4293,-4.4519,-4.3269,-4.1153,0.0,0.0,0.0,0.0,0.0,0.0,0.0,0.0,-3.0121,-3.2407,-3.4099,-3.5541,-3.6676,-3.6882,-3.6471,-3.577,-3.5489,-3.4894,-3.4147,-3.4063,-3.3894,-3.392,-3.4263,-3.4813,-3.5166,-3.4847,-3.4452,-3.4033,-3.3717,-3.3411,-3.3373,-3.3875,-3.4063,-3.4004,-3.3725,-3.392,-3.3766,-3.2449,-3.2895,-3.325,-3.2209,-3.3303,-3.4576,-3.5211,-3.5845,-3.6576,0.0,0.0,0.0,0.0,0.0,0.0,0.0,0.0,0.0,0.0,0.0,0.0,0.0,0.0,0.0,0.0,0.0,0.0,-2.2458,0.0,-1.6014,-1.5771,-1.3426,-1.2635,-1.3399,-1.5196,-1.6701,-1.7983,-1.9779,-2.2614,-2.6409,-2.9756,-3.1903,-3.3048,-3.3048,-3.4491,-3.6572,-3.5756,-3.5569,-3.579,-3.6258,-3.6275,-3.6468,-4.1869,0.0,-4.0094,0.0,-3.9826,-3.8635,-4.1301,-4.0593,-4.0563,-4.2883,-4.3196,-4.3669,-4.4535,-4.4722,-4.4353,-4.3355,-4.2969,-4.2424,-4.1716,-4.2343,-4.3071,-4.3889,-4.3312,0.0,-4.3596,-4.2205,-4.0508,-3.845,-3.6384,0.0,0.0,0.0,0.0,0.0,-3.0189,-3.1889,-3.3515,-3.502,-3.577,-3.6133,-3.6503,-3.6061,-3.5252,-3.5083,-3.4569,-3.3894,-3.381,-3.381,-3.381,-3.4089,-3.4159,-3.4221,-3.4375,-3.4084,-3.3666,-3.3641,-3.3275,-3.3046,-3.3538,-3.381,-3.3894,-3.3471,-3.3725,-3.3656,-3.2281,-3.2667,-3.3183,-3.2561,-3.3433,-3.4763,-3.5842,-3.6118,-3.6707,0.0,0.0,0.0,0.0,0.0,0.0,0.0,0.0,-3.0433,-2.8799,0.0,0.0,0.0,0.0,0.0,0.0,0.0,0.0,0.0,0.0,0.0,0.0,0.0,-1.217,-1.3312,-1.5204,-1.7204,-1.946,-2.0686,-2.3652,-2.793,-3.0701,-3.2806,-3.427,-3.5154,-3.6125,-3.6916,-3.5696,-3.5297,-3.5403,-3.5403,-3.4916,-3.4768,-4.1775,-4.1761,-4.1635,-4.2057,-4.1842,-4.1544,-4.0896,-4.0185,-3.9697,-3.9722,-3.9722,-4.0971,-4.4379,-4.4722,-4.3381,-4.0027,-4.1228,-4.2318,-4.2474,-4.2265,-4.2492,0.0,0.0,-4.2705,-4.2092,-4.1506,-4.0341,-3.871,0.0,0.0,-3.1392,0.0,-2.8973,-2.9624,-3.1363,-3.2976,-3.4424,-3.5252,-3.5574,-3.5659,-3.5854,-3.5341,-3.4397,-3.4397,-3.4397,-3.4397,-3.4147,-3.4089,-3.4089,-3.4089,-3.3726,-3.3364,-3.3907,-3.3751,-3.3386,-3.3386,-3.324,-3.3154,-3.3326,-3.3556,-3.3641,-3.3471,-3.3556,-3.3403,-3.2424,-3.2667,-3.3326,-3.3979,-3.4173,-3.4739,-3.6369,-3.7337,-3.7682,-3.7147,0.0,0.0,0.0,0.0,0.0,0.0,-3.2364,-2.9263,-3.0006,0.0,0.0,0.0,0.0,0.0,0.0,0.0,0.0,-1.6164,-1.3908,0.0,-1.1361,-1.0778,-1.1522,-1.3411,-1.5251,-1.7187,-1.9369,-2.2646,-2.5032,-2.67,-2.9066,-3.1262,-3.3577,-3.6716,-3.6747,-3.4969,-3.5978,-3.5027,-3.3119,-3.3119,-3.3119,-3.3619,-4.1967,-4.1799,-4.1683,-4.1868,-4.1398,-4.1097,-4.0795,-4.0185,-3.9697,-3.9697,-3.9697,-4.0077,-4.1177,-4.1254,-4.0869,0.0,-4.0206,-4.0565,0.0,-4.1003,-4.1,-4.101,-4.0984,-4.0821,-4.0412,-3.9642,-3.8981,-3.8522,0.0,0.0,0.0,-3.232,-3.2371,-3.287,-3.3538,-3.4067,-3.4598,-3.4925,-3.5025,-3.4743,-3.4826,-3.4721,-3.4397,-3.423,-3.4063,-3.3894,-3.3894,-3.381,-3.3843,-3.3706,-3.3528,-3.3427,-3.338,-3.28,-3.2166,-3.2551,-3.2316,-3.1945,-3.2458,-3.2718,-3.2878,-3.2968,-3.3154,-3.3189,-3.2671,-3.2557,-3.2575,-3.2744,-3.3558,-3.4446,-3.5268,-3.6669,-3.8069,-3.911,0.0,0.0,0.0,0.0,0.0,0.0,0.0,-3.1374,0.0,-2.9411,0.0,0.0,0.0,0.0,0.0,0.0,0.0,0.0,-1.3566,0.0,-1.0863,-1.0621,-1.1329,-1.314,-1.5175,-1.7384,-1.9781,-2.1514,-2.281,-2.405,-2.8192,-3.0806,-3.2285,-3.4846,-3.621,-3.6947,-3.732,-3.6374,-3.4627,-3.2488,-3.1681,-3.2096,-4.2065,-4.1895,-4.1696,-4.1597,-4.1198,-4.0795,-4.0593,-4.0185,-3.98,-3.9697,-3.9697,-3.9697,-3.9697,-3.9697,0.0,-3.9697,-3.9697,0.0,-4.0185,-4.0287,-4.0235,-3.9969,-3.9943,-3.9783,-3.9284,0.0,0.0,-3.8075,-3.6284,-3.5035,-3.4149,-3.3893,-3.3893,-3.4161,-3.4045,-3.4117,-3.4264,-3.4229,-3.4218,-3.4288,-3.4245,-3.4214,-3.4314,-3.423,-3.4063,-3.3979,-3.3894,-3.3894,-3.3927,-3.3897,-3.3587,-3.3275,-3.3144,-3.2384,-3.1708,-3.2225,-3.2117,-3.1928,-3.2097,-3.2533,-3.2845,-3.271,-3.2896,-3.3068,-3.2896,-3.2707,-3.2626,-3.2685,-3.3602,-3.4553,-3.5411,-3.68,-3.8448,-4.0307,0.0,-4.1069,0.0,0.0,0.0,0.0,0.0,0.0,0.0,-3.2085,0.0,0.0,0.0,0.0,0.0,0.0,0.0,-1.6665,-1.2558,0.0,-1.0048,-1.0839,-1.2104,-1.4022,-1.6019,-1.7797,-1.9355,-2.0452,-2.1366,-2.2308,-2.6816,-2.9869,-3.1732,-3.3941,-3.5787,-3.732,-3.7716,-3.6989,-3.5438,-3.2799,-3.1082,-3.0405,-4.1967,-4.1895,0.0,0.0,-4.0997,0.0,-4.0185,-4.0083,-3.9981,-3.9697,-3.9697,-3.9697,-3.9697,-3.9697,-3.9697,-3.9697,0.0,0.0,0.0,-4.0083,-3.9931,-3.9697,-3.9671,0.0,-3.8651,-3.814,-3.7763,-3.7425,-3.62,-3.5487,-3.5437,-3.4449,-3.3947,-3.3872,-3.3294,-3.3275,-3.359,-3.3162,-3.3322,-3.4037,-3.393,-3.3927,-3.4011,-3.4262,-3.4345,-3.4345,-3.4043,-3.4178,-3.4371,-3.4293,-3.375,-3.3067,-3.319,-3.2538,-3.1915,-3.2225,-3.2607,-3.2714,-3.2298,-3.276,-3.3164,-3.2785,-3.2896,-3.3068,-3.3068,-3.3119,-3.329,-3.3607,-3.414,-3.4993,-3.6579,-3.7693,-3.8903,-4.0761,-4.1143,-4.1309,-4.1417,0.0,0.0,0.0,0.0,0.0,0.0,-3.4491,-3.7418,0.0,0.0,0.0,0.0,0.0,-1.8549,-1.3486,-1.1422,-1.0077,-0.9482,-1.1815,-1.4102,-1.622,-1.7814,-1.8544,-1.8387,-1.969,-2.0545,-2.1261,-2.485,-2.8262,-3.1403,-3.3621,-3.5307,-3.6452,-3.7505,-3.7076,-3.5571,-3.4008,-3.1483,-2.8766,0.0,0.0,-4.1224,-4.0795,-4.0491,-4.0083,-3.9569,-3.9337,-3.9337,-3.9233,-3.9465,-3.9697,-3.9697,-3.9697,-3.9569,-3.9258,-3.9465,-3.9697,-3.98,-3.98,-3.9548,-3.9095,-3.907,-3.8491,-3.729,-3.7139,-3.6793,-3.6106,-3.5928,-3.57,-3.5276,-3.476,-3.4209,-3.3582,-3.2782,-3.2751,-3.3189,-3.2969,-3.3213,-3.3784,-3.4017,-3.37,-3.3168,-3.3251,-3.3416,-3.3528,-3.3167,-3.3666,-3.435,-3.3727,-3.3462,-3.33,-3.2906,-3.254,-3.2173,-3.2089,-3.2137,-3.2179,-3.1922,-3.2231,-3.2516,-3.2451,-3.281,-3.3068,-3.281,-3.3308,-3.3696,-3.3608,-3.4699,-3.5903,-3.6636,-3.8394,-4.0077,-4.1342,-4.1534,-4.1359,-4.1038,0.0,0.0,0.0,-3.5209,-3.5705,-3.5044,-3.8153,-4.0994,0.0,0.0,0.0,0.0,0.0,-2.4006,-1.4856,-1.3067,-1.2785,-1.3921,-1.6988,-1.9523,-2.1627,-2.1518,-2.0953,-1.9787,-1.9986,-2.0107,-2.0496,-2.2808,-2.5331,-2.8048,-3.1073,-3.3993,-3.6452,-3.7505,-3.7424,-3.6437,-3.4796,-3.2709,-3.0337,-4.0844,-4.0795,-4.0593,-4.0211,-3.9878,-3.9569,-3.9154,-3.905,-3.8945,-3.8841,-3.9154,-3.9283,-3.9179,-3.9283,-3.9154,-3.8921,-3.9258,-3.949,-3.949,-3.949,-3.9343,-3.8894,-3.8517,-3.7867,-3.6798,-3.6453,-3.5864,-3.5252,-3.5347,-3.5169,-3.4601,-3.4239,-3.3752,-3.3316,-3.2461,-3.2306,-3.2641,-3.2225,-3.2352,-3.3064,-3.3168,-3.2931,-3.2631,-3.2797,-3.289,-3.2875,-3.2644,-3.3112,-3.3762,-3.338,-3.3219,-3.3234,-3.3075,-3.2731,-3.2414,-3.2504,-3.2485,-3.2332,-3.1863,-3.2222,-3.2607,-3.2562,-3.281,-3.3068,-3.2896,-3.3408,-3.3985,-3.4135,-3.5095,-3.635,-3.7569,-3.9227,-4.0656,-4.1427,-4.1228,-4.0648,-3.9956,-3.8223,0.0,-3.4887,-3.6437,-3.7923,-3.8677,-4.2309,-4.5454,-4.7495,0.0,0.0,-3.8901,-3.3359,-2.6258,-1.7382,-1.708,-1.8155,-2.0412,-2.5712,-2.8423,-2.8614,-2.6784,-2.4702,-2.2305,-2.1665,-2.1094,-2.0611,-2.1982,-2.3825,-2.6026,-2.89,-3.1993,-3.5017,-3.5527,-3.6262,-3.681,-3.5058,-3.3577,-3.1943,-4.0287,-4.0185,-3.9981,-3.9594,-3.9387,-3.905,-3.8736,-3.8736,-3.8736,-3.855,-3.8736,-3.8736,-3.855,-3.8736,-3.8736,-3.8736,-3.905,-3.9129,-3.9158,-3.9158,-3.9013,-3.8667,-3.7967,-3.7246,-3.6701,-3.5891,-3.5304,-3.4838,-3.4764,-3.4421,-3.3949,-3.3433,-3.3162,-3.3039,-3.2179,-3.1988,-3.2139,-3.1377,-3.1478,-3.2122,-3.2102,-3.199,-3.1964,-3.2377,-3.2423,-3.2251,-3.2173,-3.2613,-3.3234,-3.3131,-3.307,-3.3053,-3.3344,-3.2997,-3.2634,-3.3028,-3.2997,-3.2701,-3.2087,-3.2436,-3.2982,-3.281,-3.2896,-3.3093,-3.3194,-3.3708,-3.4312,-3.5063,-3.5817,-3.6981,-3.9051,-4.0349,-4.1169,-4.1463,-4.0879,-3.9921,-3.8572,0.0,-3.5611,-3.5861,-3.7623,-3.9819,-4.2456,-4.6348,-4.9861,-5.2661,-4.9393,0.0,0.0,-3.6736,-2.917,-2.2402,-2.3048,-2.5506,-2.9826,-3.6626,-3.9087,-3.6964,-3.3235,-2.9479,-2.5771,-2.4356,-2.2899,-2.1582,-2.2226,-2.3429,-2.4923,-2.7098,-3.0057,-3.3063,-3.3122,-3.4245,-3.5825,-3.4844,-3.4094,-3.3144,-3.9699,-3.98,-3.9594,-3.905,-3.8945,-3.8736,-3.8185,-3.8421,-3.8526,-3.8104,-3.8607,-3.8921,-3.8526,-3.8631,-3.8736,-3.8526,-3.8526,-3.8436,-3.8329,-3.8304,-3.8033,-3.7567,-3.7468,-3.6972,-3.6259,-3.5405,-3.4896,-3.48,-3.4556,-3.4165,-3.3698,-3.3367,-3.2877,-3.2211,-3.2006,-3.1903,-3.1938,-3.1726,-3.1711,-3.1863,-3.1843,-3.1428,-3.0859,-3.0939,-3.1128,-3.1369,-3.1061,-3.194,-3.3157,-3.2826,-3.2993,-3.3284,-3.336,-3.325,-3.3054,-3.3043,-3.2932,-3.2685,-3.2339,-3.2413,-3.255,-3.2982,-3.3068,-3.3194,-3.3671,-3.4553,-3.5442,-3.5994,-3.7527,-3.9094,-4.0377,-4.1622,-4.2273,-4.1972,-4.1774,-4.0636,-3.7429,0.0,-3.7751,-3.7449,-3.9646,-4.259,-4.6002,-4.8808,-5.222,-5.6647,-5.6518,-5.4517,-5.0505,-4.605,-4.0773,-3.439,-3.1527,-3.5111,-4.5817,-4.904,-4.9391,-4.6933,-4.0724,-3.5244,-3.0568,-2.7688,-2.5577,-2.4422,-2.456,-2.4727,-2.4941,-2.6245,-2.8794,-3.1939,-3.2738,-3.2187,-3.1215,-3.391,-3.4135,-3.3008,-3.8896,-3.905,-3.8945,-3.8631,-3.8631,-3.8526,-3.8291,-3.8526,-3.8631,-3.8315,-3.8502,-3.8607,-3.8185,-3.8291,-3.8315,-3.8185,-3.8185,-3.7968,-3.7667,-3.7746,-3.7706,-3.7343,-3.6848,-3.6258,-3.5429,-3.5065,-3.4679,-3.4414,-3.398,-3.3542,-3.3034,-3.2568,-3.218,-3.1825,-3.1638,-3.1564,-3.166,-3.0984,-3.0973,-3.1223,-3.0948,-3.0487,-3.0103,-3.0208,-3.0248,-3.0237,-3.0241,-3.1029,-3.223,-3.2137,-3.2638,-3.324,-3.324,-3.3154,-3.3068,-3.3068,-3.281,-3.255,-3.255,-3.2463,-3.2487,-3.2982,-3.3294,-3.3683,-3.4022,-3.5086,-3.6135,-3.6933,-3.8238,-3.9639,-4.0765,-4.1795,-4.2192,-4.125,-4.0862,0.0,0.0,-3.7666,-3.8237,-3.9327,-4.1548,-4.4556,-4.8577,-5.1209,-5.4434,-5.8527,-5.8391,-5.6857,-5.402,-4.9404,-4.4842,-4.0565,-4.1311,-4.6687,-5.6718,-5.9501,-5.9291,-5.6051,-4.8295,-4.1065,-3.4517,-3.0054,-2.73,-2.6129,-2.5701,-2.5278,-2.506,-2.659,-2.8257,-3.0015,-3.1615,-3.1266,-3.0035,-3.1337,-3.1522,-3.1182,-3.8121,-3.8218,-3.8315,-3.8315,-3.8315,-3.8315,-3.8421,-3.8631,-3.8736,-3.8526,-3.8526,-3.8421,-3.808,-3.808,-3.7974,-3.7974,-3.7974,-3.7757,-3.7228,-3.7187,-3.7079,-3.6946,-3.6234,-3.5453,-3.4847,-3.4823,-3.4462,-3.3935,-3.3645,-3.314,-3.2376,-3.2058,-3.1793,-3.1737,-3.1501,-3.1357,-3.1234,-3.04,-3.0237,-3.036,-2.9942,-2.9689,-2.9504,-2.9689,-2.9658,-2.9521,-2.9702,-3.0482,-3.1411,-3.1574,-3.2248,-3.2982,-3.2982,-3.3068,-3.3068,-3.3068,-3.281,-3.2463,-3.2636,-3.255,-3.255,-3.2982,-3.3582,-3.4123,-3.4426,-3.5481,-3.6677,-3.759,-3.8612,-3.9727,-4.0938,-4.1567,-4.1597,-4.0939,0.0,0.0,0.0,-3.8282,-3.9024,-4.1044,-4.3113,-4.5989,-5.0024,-5.2903,-5.5949,-5.9545,-5.9246,-5.8431,-5.7197,-5.1788,-4.7724,-4.5206,-4.961,-5.6019,-6.432,-6.7552,-6.7215,-6.3381,-5.4488,-4.5866,-3.7807,-3.2018,-2.8462,-2.6751,-2.6213,-2.5613,-2.5056,-2.6994,-2.822,-2.9192,-3.134,-3.1298,-3.0004,-2.9407,-2.9012,-2.8916,-3.7252,-3.7637,-3.7974,-3.7974,-3.7974,-3.808,-3.8421,-3.8631,-3.8736,-3.8736,-3.8736,-3.8631,-3.8421,-3.8185,-3.7974,-3.7974,-3.7974,-3.7757,-3.7228,-3.6518,-3.6016,-3.5689,-3.516,-3.4871,-3.4823,-3.4823,-3.4462,-3.3744,-3.3911,-3.3359,-3.2079,-3.2352,-3.2154,-3.1761,-3.1889,-3.1417,-3.0493,-3.067,-3.0163,-2.9253,-2.9204,-2.9101,-2.9101,-2.9204,-2.9415,-2.9779,-2.9779,-3.0507,-3.1436,-3.1436,-3.1997,-3.2723,-3.2723,-3.2896,-3.3068,-3.3068,-3.2896,-3.2723,-3.2723,-3.2723,-3.2723,-3.3068,-3.3669,-3.44,-3.4933,-3.6032,-3.7142,-3.7782,-3.8792,-4.0035,-4.1495,-4.1007,-4.0884,-4.2138,0.0,0.0,-3.8999,-4.0294,-4.162,-4.2233,-4.4224,-4.6824,-5.022,-5.3136,-5.6281,-5.9771,-6.0893,-6.1409,-6.1002,-5.6043,-5.2406,-5.0445,-5.4142,-6.0173,-6.8421,-7.1366,-7.1128,-6.7474,-5.7657,-4.8589,-4.025,-3.3853,-2.8898,-2.5701,-2.6145,-2.5665,-2.461,-2.6953,-2.9278,-3.1437,-3.3638,-3.284,-3.0365,-2.9689,-2.8156,-2.6351,-3.7321,-3.7748,-3.7974,-3.7974,-3.8104,-3.8315,-3.8421,-3.8631,-3.8736,-3.8526,-3.8421,-3.8315,-3.8185,-3.7892,-3.7666,-3.7307,-3.7283,-3.6939,-3.6208,-3.5585,-3.5088,-3.4667,-3.4454,-3.4359,-3.4359,-3.4359,-3.4098,-3.3457,-3.3221,-3.2865,-3.2554,-3.2003,-3.1878,-3.2178,-3.2107,-3.1612,-3.0882,-3.0626,-3.0147,-2.9358,-2.8882,-2.8657,-2.8578,-2.8578,-2.8578,-2.8681,-2.9052,-2.9702,-3.0392,-3.0984,-3.1664,-3.2276,-3.2451,-3.255,-3.2711,-3.2882,-3.2822,-3.2711,-3.297,-3.2884,-3.2884,-3.3669,-3.4287,-3.5022,-3.5853,-3.669,-3.743,-3.7978,-3.8633,-3.9344,-4.0075,-4.0194,-4.0313,-4.0529,0.0,-4.0041,-3.9822,-4.0903,-4.2109,-4.3285,-4.5029,-4.7216,-5.0247,-5.3048,-5.606,-5.9567,-6.0882,-6.1492,-6.1142,-5.5486,-5.2188,-5.233,-5.5516,-6.0877,-6.8531,-7.1246,-7.0631,-6.666,-5.7146,-4.8248,-4.0012,-3.3681,-2.9069,-2.5835,-2.5467,-2.5129,-2.4949,-2.6227,-2.8264,-3.0764,-3.2481,-3.2446,-3.1318,-3.0193,-2.8053,-2.5508,-3.7001,-3.7426,-3.7676,-3.795,-3.8185,-3.8291,-3.8421,-3.8526,-3.8631,-3.8526,-3.8291,-3.8104,-3.8104,-3.7892,-3.7464,-3.6916,-3.6868,-3.6445,-3.5821,-3.5098,-3.4481,-3.4087,-3.4064,-3.4064,-3.4064,-3.4064,-3.3805,-3.3168,-3.2912,-3.2653,-3.244,-3.1964,-3.1908,-3.2136,-3.2123,-3.1792,-3.1089,-3.0725,-3.0264,-2.9731,-2.8955,-2.8578,-2.8417,-2.817,-2.8122,-2.8122,-2.8578,-2.9253,-3.0098,-3.0713,-3.1388,-3.2055,-3.219,-3.2435,-3.2744,-3.3195,-3.3251,-3.3231,-3.3514,-3.3341,-3.3358,-3.4022,-3.4806,-3.5582,-3.6416,-3.6887,-3.7228,-3.7758,-3.8067,-3.8306,-3.8859,-3.9091,-3.9427,-3.9995,-3.9972,-4.014,-4.0889,-4.1749,-4.2705,-4.3827,-4.5388,-4.7264,-4.9983,-5.2587,-5.5694,-5.9329,-6.0802,-6.1186,-6.0331,-5.5513,-5.3084,-5.3929,-5.6329,-6.0134,-6.5299,-6.846,-6.7951,-6.3684,-5.5181,-4.7175,-3.9707,-3.3728,-2.9393,-2.6491,-2.5451,-2.5068,-2.5405,-2.6149,-2.8015,-3.0684,-3.2217,-3.2928,-3.2735,-3.1472,-2.8921,-2.5756,-3.5884,-3.6407,-3.7035,-3.7878,-3.7974,-3.808,-3.8421,-3.8421,-3.8526,-3.8736,-3.8526,-3.8396,-3.8421,-3.8185,-3.7757,-3.7228,-3.6972,-3.6549,-3.6002,-3.4996,-3.428,-3.4087,-3.4064,-3.4064,-3.4064,-3.4064,-3.3707,-3.2878,-3.3168,-3.2652,-3.1391,-3.244,-3.2293,-3.1342,-3.216,-3.1889,-3.0879,-3.0879,-3.0567,-3.0037,-2.9319,-2.9046,-2.8892,-2.815,-2.8122,-2.8522,-2.8522,-2.9521,-3.0778,-3.0528,-3.1321,-3.2376,-3.2025,-3.2592,-3.331,-3.4099,-3.4247,-3.4247,-3.4272,-3.4272,-3.4239,-3.3959,-3.4906,-3.5957,-3.6257,-3.6304,-3.6456,-3.6995,-3.6868,-3.688,-3.8049,-3.7678,-3.824,-4.1059,-4.0564,-4.0414,-4.2291,-4.2964,-4.354,-4.3885,-4.513,-4.6889,-4.937,-5.2034,-5.5125,-5.883,-6.0874,-6.1056,-5.8942,-5.7139,-5.6053,-5.5752,-5.7089,-5.8114,-5.8739,-6.3295,-6.3305,-5.8744,-5.1972,-4.5644,-3.9719,-3.4084,-3.0241,-2.7765,-2.6284,-2.5716,-2.608,-2.7041,-2.8864,-3.1188,-3.3749,-3.4771,-3.4736,-3.3744,-3.0884,-2.7195,-3.5577,-3.5812,-3.6176,-3.7011,-3.7106,-3.7331,-3.8031,-3.808,-3.8185,-3.821,-3.7998,-3.7892,-3.808,-3.7892,-3.7321,-3.6415,-3.6319,-3.5758,-3.4781,-3.4369,-3.4129,-3.4087,-3.3767,-3.3592,-3.3592,-3.3592,-3.3215,-3.2586,-3.2684,-3.2433,-3.1879,-3.2042,-3.1967,-3.1841,-3.2099,-3.1704,-3.0879,-3.1027,-3.0435,-2.9343,-2.9094,-2.8668,-2.8174,-2.7951,-2.7962,-2.8122,-2.8443,-2.8795,-2.9262,-2.9904,-3.0555,-3.1126,-3.2067,-3.2883,-3.3576,-3.3926,-3.3922,-3.3869,-3.3935,-3.4102,-3.427,-3.4695,-3.501,-3.5549,-3.6223,-3.5812,-3.5521,-3.6414,-3.6284,-3.6256,-3.7037,-3.7559,-3.8304,-3.9551,-3.9746,-4.0062,-4.1504,-4.2141,-4.2696,-4.3237,-4.4983,-4.6463,-4.7648,-5.0854,-5.4033,-5.6692,-5.9897,-6.1017,-5.9517,-5.8244,-5.6825,-5.534,-5.5897,-5.5613,-5.4594,-5.8561,-5.8312,-5.3842,-4.8291,-4.3075,-3.826,-3.4997,-3.2007,-2.9577,-2.8426,-2.7604,-2.702,-2.7186,-2.8407,-3.0374,-3.3173,-3.4956,-3.5931,-3.5508,-3.3483,-3.068,-3.527,-3.5263,-3.5427,-3.6383,-3.6351,-3.6573,-3.7092,-3.7244,-3.7244,-3.7348,-3.7268,-3.7163,-3.7372,-3.7268,-3.6829,-3.5968,-3.5604,-3.5023,-3.4111,-3.4064,-3.4064,-3.4064,-3.3767,-3.3592,-3.3592,-3.3592,-3.3429,-3.3082,-3.2688,-3.2413,-3.2277,-3.1948,-3.1778,-3.177,-3.2034,-3.1785,-3.1192,-3.1342,-3.0807,-2.9867,-2.9569,-2.9106,-2.8469,-2.8175,-2.8069,-2.8042,-2.8259,-2.8706,-2.922,-2.9678,-3.0409,-3.124,-3.2442,-3.3256,-3.3763,-3.4102,-3.3958,-3.3813,-3.3615,-3.3627,-3.3765,-3.397,-3.4393,-3.4909,-3.5573,-3.5151,-3.4869,-3.5668,-3.5641,-3.5747,-3.6778,-3.7466,-3.8182,-3.9312,-3.9703,-4.032,-4.1482,-4.1929,-4.2363,-4.327,-4.4597,-4.5978,-4.6975,-5.0225,-5.351,-5.676,-5.9498,-6.0616,-5.9785,-5.8902,-5.7567,-5.585,-5.5468,-5.4282,-5.2165,-5.352,-5.2696,-4.9634,-4.5392,-4.1784,-3.8728,-3.6327,-3.4049,-3.2078,-3.0897,-2.9804,-2.8645,-2.8381,-2.9336,-3.1062,-3.3152,-3.5134,-3.664,-3.6816,-3.5596,-3.3487,-3.4752,-3.4645,-3.4707,-3.5734,-3.5726,-3.5624,-3.5979,-3.6002,-3.6105,-3.6309,-3.6309,-3.6411,-3.6411,-3.6411,-3.6194,-3.5665,-3.4939,-3.4335,-3.4162,-3.4162,-3.4162,-3.4162,-3.4162,-3.4162,-3.4162,-3.4064,-3.4064,-3.4017,-3.3029,-3.2512,-3.2394,-3.2201,-3.1793,-3.1318,-3.2112,-3.2154,-3.1761,-3.1761,-3.1536,-3.111,-3.0437,-2.9856,-2.9253,-2.864,-2.8339,-2.8322,-2.8322,-2.9022,-3.0025,-2.9844,-3.089,-3.2245,-3.3095,-3.3693,-3.4126,-3.424,-3.4217,-3.3902,-3.3146,-3.2793,-3.2616,-3.2363,-3.3106,-3.4007,-3.4625,-3.4391,-3.4279,-3.4876,-3.5102,-3.5638,-3.6894,-3.732,-3.8122,-3.9711,-4.0283,-4.0834,-4.1956,-4.211,-4.2562,-4.3679,-4.4313,-4.5365,-4.7188,-4.9861,-5.3473,-5.808,-5.9299,-5.9827,-5.9555,-5.8938,-5.7939,-5.6593,-5.5214,-5.3369,-5.0818,-4.8705,-4.7213,-4.6238,-4.3175,-4.1347,-4.0222,-3.7872,-3.607,-3.4903,-3.3518,-3.2093,-3.0837,-3.0418,-3.1111,-3.2582,-3.3476,-3.4976,-3.6881,-3.7767,-3.7191,-3.5722,-3.3608,-3.393,-3.4393,-3.5189,-3.5183,-3.5223,-3.5931,-3.5774,-3.5695,-3.5797,-3.6002,-3.6105,-3.6105,-3.6309,-3.6194,-3.5665,-3.5038,-3.4726,-3.4628,-3.4628,-3.4628,-3.4628,-3.4628,-3.4628,-3.4628,-3.4261,-3.3876,-3.3476,-3.3241,-3.27,-3.1877,-3.2035,-3.1908,-3.1584,-3.1793,-3.1882,-3.1937,-3.1761,-3.1233,-3.0413,-3.0296,-2.9769,-2.9044,-2.8928,-2.9005,-2.9188,-2.9188,-2.9329,-2.9721,-3.0612,-3.1656,-3.2605,-3.3504,-3.4031,-3.4264,-3.404,-3.3479,-3.2833,-3.2274,-3.1752,-3.1556,-3.1875,-3.186,-3.2226,-3.3713,-3.3917,-3.4113,-3.4999,-3.5534,-3.6206,-3.7065,-3.8222,-3.9165,-3.9825,-4.0283,-4.081,-4.1565,-4.1972,-4.2425,-4.3406,-4.4177,-4.5206,-4.6485,-5.0105,-5.3448,-5.5913,-5.7446,-5.8199,-5.8179,-5.7377,-5.6246,-5.4709,-5.3125,-5.1092,-4.8707,-4.6645,-4.5186,-4.4336,-4.2123,-4.077,-3.9909,-3.8466,-3.7418,-3.6689,-3.5373,-3.4004,-3.2674,-3.1737,-3.1412,-3.174,-3.2175,-3.3508,-3.5432,-3.6416,-3.7134,-3.756,-3.3767,-3.3866,-3.4059,-3.4691,-3.4639,-3.4634,-3.5218,-3.5141,-3.5041,-3.5241,-3.5342,-3.5442,-3.5442,-3.5641,-3.5743,-3.5575,-3.5381,-3.5017,-3.4655,-3.4655,-3.4438,-3.4102,-3.4414,-3.4655,-3.4655,-3.4703,-3.4606,-3.4246,-3.3983,-3.3457,-3.2827,-3.2678,-3.2447,-3.2025,-3.2025,-3.2113,-3.2225,-3.1937,-3.1416,-3.0714,-3.0649,-3.0056,-2.9416,-2.9416,-2.9363,-2.9432,-2.9432,-2.9762,-3.0302,-3.1144,-3.218,-3.3102,-3.3458,-3.3879,-3.3916,-3.2694,-3.2126,-3.1513,-3.0393,-3.0111,-3.0284,-3.0882,-3.1307,-3.1907,-3.3196,-3.3662,-3.4081,-3.5054,-3.6002,-3.6887,-3.8013,-3.9191,-4.0208,-4.1045,-4.1606,-4.2067,-4.2553,-4.2797,-4.315,-4.3984,-4.4505,-4.5688,-4.7438,-4.9887,-5.2165,-5.4097,-5.5011,-5.5583,-5.5938,-5.5365,-5.4423,-5.2967,-5.1467,-4.9819,-4.7857,-4.5852,-4.449,-4.3722,-4.2256,-4.136,-4.0875,-4.0186,-3.9523,-3.8727,-3.7966,-3.6626,-3.4907,-3.407,-3.3224,-3.262,-3.2189,-3.2895,-3.4285,-3.525,-3.7148,-3.8919,-3.404,-3.3965,-3.3965,-3.4335,-3.4261,-3.4261,-3.4335,-3.4335,-3.4433,-3.4628,-3.4726,-3.4726,-3.4726,-3.492,-3.5235,-3.5524,-3.5524,-3.5233,-3.4603,-3.4387,-3.405,-3.3428,-3.3929,-3.4241,-3.4433,-3.5061,-3.5281,-3.5089,-3.4652,-3.4328,-3.3998,-3.3457,-3.2965,-3.2611,-3.2449,-3.24,-3.24,-3.2113,-3.1673,-3.1318,-3.105,-3.0524,-2.9862,-2.9862,-2.9695,-2.9542,-2.9636,-3.0355,-3.1313,-3.1807,-3.2747,-3.3553,-3.3358,-3.3323,-3.3115,-3.1148,-3.0518,-3.0058,-2.8487,-2.8507,-2.9253,-3.0057,-3.1149,-3.2284,-3.3155,-3.3666,-3.4372,-3.5315,-3.6383,-3.7695,-3.9014,-4.0188,-4.1274,-4.2303,-4.2946,-4.3527,-4.3712,-4.3714,-4.4051,-4.4692,-4.5287,-4.6407,-4.8677,-4.9563,-5.0688,-5.2544,-5.2661,-5.2953,-5.3597,-5.3271,-5.263,-5.1558,-5.0317,-4.898,-4.759,-4.5547,-4.4207,-4.3521,-4.256,-4.2116,-4.2114,-4.1966,-4.1426,-4.0692,-4.0371,-3.9022,-3.727,-3.6518,-3.5426,-3.4062,-3.2922,-3.2771,-3.3398,-3.4845,-3.7321,-3.993,-3.3469,-3.3965,-3.4335,-3.4433,-3.4335,-3.4335,-3.4433,-3.4261,-3.4162,-3.4162,-3.4359,-3.4433,-3.4433,-3.4726,-3.492,-3.5235,-3.5017,-3.4993,-3.5114,-3.4485,-3.4006,-3.3933,-3.3597,-3.3784,-3.4408,-3.4506,-3.4625,-3.4838,-3.4764,-3.4514,-3.3949,-3.3433,-3.3251,-3.3306,-3.2684,-3.2463,-3.2636,-3.2025,-3.1584,-3.1294,-3.0847,-3.0441,-3.0124,-3.0124,-3.0168,-3.0168,-3.0629,-3.1252,-3.2089,-3.2865,-3.3243,-3.3335,-3.3464,-3.2848,-3.1698,-3.0227,-2.9238,-2.8516,-2.7895,-2.7963,-2.8574,-2.9645,-3.0802,-3.2081,-3.3797,-3.4659,-3.551,-3.6169,-3.7514,-3.8729,-3.9451,-4.0946,-4.2166,-4.2497,-4.2637,-4.309,-4.3662,-4.3588,-4.3815,-4.4964,-4.6245,-4.7418,-4.8494,-4.961,-5.0514,-5.1187,-5.1315,-5.1578,-5.2222,-5.1511,-5.0845,-5.0473,-4.9546,-4.8271,-4.6673,-4.5193,-4.3869,-4.2608,-4.2263,-4.2098,-4.2272,-4.1623,-4.1645,-4.1888,-4.1087,-4.022,-3.9163,-3.7905,-3.6487,-3.478,-3.3829,-3.3329,-3.3438,-3.5911,-3.8267,-4.0227,-3.3469,-3.3767,-3.4064,-3.4335,-3.4433,-3.4433,-3.4628,-3.4555,-3.4555,-3.4652,-3.4823,-3.492,-3.5017,-3.5064,-3.5059,-3.5178,-3.5083,-3.4964,-3.4964,-3.4649,-3.4165,-3.3557,-3.379,-3.3882,-3.39,-3.4743,-3.5344,-3.5437,-3.5251,-3.4919,-3.4312,-3.3909,-3.3545,-3.3246,-3.2736,-3.255,-3.2463,-3.2025,-3.1673,-3.1294,-3.096,-3.0578,-3.0216,-3.0216,-3.0399,-3.0721,-3.1226,-3.1921,-3.2576,-3.2785,-3.3348,-3.3761,-3.2836,-3.1911,-3.0811,-2.9126,-2.797,-2.721,-2.6825,-2.7322,-2.8251,-2.9847,-3.1184,-3.2611,-3.449,-3.5622,-3.6509,-3.7307,-3.8395,-3.9583,-4.0388,-4.1783,-4.3107,-4.3986,-4.4378,-4.4992,-4.5604,-4.5468,-4.5407,-4.5735,-4.7067,-4.8038,-4.8169,-4.8792,-4.9357,-4.9679,-4.933,-4.9146,-4.9436,-4.9577,-4.9481,-4.8994,-4.9033,-4.8318,-4.6917,-4.5474,-4.4102,-4.2747,-4.2339,-4.2251,-4.2405,-4.2202,-4.2443,-4.3161,-4.2553,-4.1618,-4.0525,-3.9378,-3.7566,-3.5466,-3.469,-3.4213,-3.4303,-3.6448,-3.8515,-4.0374]}]]